<?xml version="1.0" encoding="UTF-8" standalone="no" ?>
<gpx xmlns="http://www.topografix.com/GPX/1/1" xmlns:xsi="http://www.w3.org/2001/XMLSchema-instance" xsi:schemaLocation="http://www.topografix.com/GPX/1/1 http://www.topografix.com/GPX/1/1/gpx.xsd" version="1.1" creator="VisuGPX - https://www.visugpx.com">
  <metadata>
    <name>La Sportive</name>
  </metadata>
  <wpt lat="45.73248" lon="6.50638">
    <ele>1308.8</ele>
    <name><![CDATA[Ravitaillement]]></name>
    <desc><![CDATA[]]></desc>
  </wpt>
  <wpt lat="45.76017" lon="6.53412">
    <ele>1660.3</ele>
    <name><![CDATA[Ravitaillement]]></name>
    <desc><![CDATA[]]></desc>
  </wpt>
  <trk>
    <name><![CDATA[Diamant VTT 2025 - 30km V3-21461595]]></name>
    <trkseg>
      <trkpt lat="45.76002" lon="6.53375">
        <ele>1660</ele>
        <time>2025-06-05T13:40:41Z</time>
      </trkpt>
      <trkpt lat="45.75982" lon="6.5339">
        <ele>1659</ele>
        <time>2025-06-05T13:40:46Z</time>
      </trkpt>
      <trkpt lat="45.75955" lon="6.53419">
        <ele>1658</ele>
        <time>2025-06-05T13:40:54Z</time>
      </trkpt>
      <trkpt lat="45.75952" lon="6.53416">
        <ele>1658</ele>
        <time>2025-06-05T13:40:55Z</time>
      </trkpt>
      <trkpt lat="45.7595" lon="6.53414">
        <ele>1658</ele>
        <time>2025-06-05T13:40:56Z</time>
      </trkpt>
      <trkpt lat="45.75947" lon="6.53414">
        <ele>1658</ele>
        <time>2025-06-05T13:40:56Z</time>
      </trkpt>
      <trkpt lat="45.75944" lon="6.53415">
        <ele>1658</ele>
        <time>2025-06-05T13:40:57Z</time>
      </trkpt>
      <trkpt lat="45.75941" lon="6.53418">
        <ele>1657</ele>
        <time>2025-06-05T13:40:58Z</time>
      </trkpt>
      <trkpt lat="45.75939" lon="6.53421">
        <ele>1657</ele>
        <time>2025-06-05T13:40:59Z</time>
      </trkpt>
      <trkpt lat="45.75939" lon="6.53426">
        <ele>1658</ele>
        <time>2025-06-05T13:40:59Z</time>
      </trkpt>
      <trkpt lat="45.75935" lon="6.53425">
        <ele>1657</ele>
        <time>2025-06-05T13:41:00Z</time>
      </trkpt>
      <trkpt lat="45.7591" lon="6.53407">
        <ele>1655</ele>
        <time>2025-06-05T13:41:07Z</time>
      </trkpt>
      <trkpt lat="45.75906" lon="6.53414">
        <ele>1655</ele>
        <time>2025-06-05T13:41:08Z</time>
      </trkpt>
      <trkpt lat="45.75903" lon="6.53416">
        <ele>1655</ele>
        <time>2025-06-05T13:41:09Z</time>
      </trkpt>
      <trkpt lat="45.75898" lon="6.53416">
        <ele>1654</ele>
        <time>2025-06-05T13:41:10Z</time>
      </trkpt>
      <trkpt lat="45.75877" lon="6.53404">
        <ele>1653</ele>
        <time>2025-06-05T13:41:16Z</time>
      </trkpt>
      <trkpt lat="45.75818" lon="6.53375">
        <ele>1648</ele>
        <time>2025-06-05T13:41:30Z</time>
      </trkpt>
      <trkpt lat="45.75811" lon="6.53367">
        <ele>1648</ele>
        <time>2025-06-05T13:41:32Z</time>
      </trkpt>
      <trkpt lat="45.75807" lon="6.53358">
        <ele>1647</ele>
        <time>2025-06-05T13:41:34Z</time>
      </trkpt>
      <trkpt lat="45.75802" lon="6.53356">
        <ele>1647</ele>
        <time>2025-06-05T13:41:35Z</time>
      </trkpt>
      <trkpt lat="45.75798" lon="6.53353">
        <ele>1646</ele>
        <time>2025-06-05T13:41:36Z</time>
      </trkpt>
      <trkpt lat="45.75786" lon="6.53336">
        <ele>1645</ele>
        <time>2025-06-05T13:41:40Z</time>
      </trkpt>
      <trkpt lat="45.75778" lon="6.53316">
        <ele>1644</ele>
        <time>2025-06-05T13:41:44Z</time>
      </trkpt>
      <trkpt lat="45.75774" lon="6.53277">
        <ele>1645</ele>
        <time>2025-06-05T13:41:50Z</time>
      </trkpt>
      <trkpt lat="45.75772" lon="6.53219">
        <ele>1644</ele>
        <time>2025-06-05T13:42:00Z</time>
      </trkpt>
      <trkpt lat="45.75779" lon="6.53159">
        <ele>1644</ele>
        <time>2025-06-05T13:42:10Z</time>
      </trkpt>
      <trkpt lat="45.75782" lon="6.53147">
        <ele>1644</ele>
        <time>2025-06-05T13:42:12Z</time>
      </trkpt>
      <trkpt lat="45.75785" lon="6.53133">
        <ele>1643</ele>
        <time>2025-06-05T13:42:14Z</time>
      </trkpt>
      <trkpt lat="45.75789" lon="6.53119">
        <ele>1643</ele>
        <time>2025-06-05T13:42:17Z</time>
      </trkpt>
      <trkpt lat="45.75799" lon="6.53094">
        <ele>1642</ele>
        <time>2025-06-05T13:42:21Z</time>
      </trkpt>
      <trkpt lat="45.7581" lon="6.53077">
        <ele>1642</ele>
        <time>2025-06-05T13:42:25Z</time>
      </trkpt>
      <trkpt lat="45.75818" lon="6.53067">
        <ele>1642</ele>
        <time>2025-06-05T13:42:28Z</time>
      </trkpt>
      <trkpt lat="45.75826" lon="6.53059">
        <ele>1642</ele>
        <time>2025-06-05T13:42:30Z</time>
      </trkpt>
      <trkpt lat="45.75846" lon="6.53037">
        <ele>1642</ele>
        <time>2025-06-05T13:42:36Z</time>
      </trkpt>
      <trkpt lat="45.75851" lon="6.5302">
        <ele>1640</ele>
        <time>2025-06-05T13:42:39Z</time>
      </trkpt>
      <trkpt lat="45.7585" lon="6.52997">
        <ele>1639</ele>
        <time>2025-06-05T13:42:42Z</time>
      </trkpt>
      <trkpt lat="45.75848" lon="6.52985">
        <ele>1638</ele>
        <time>2025-06-05T13:42:44Z</time>
      </trkpt>
      <trkpt lat="45.75839" lon="6.52944">
        <ele>1636</ele>
        <time>2025-06-05T13:42:51Z</time>
      </trkpt>
      <trkpt lat="45.75843" lon="6.52924">
        <ele>1635</ele>
        <time>2025-06-05T13:42:55Z</time>
      </trkpt>
      <trkpt lat="45.75851" lon="6.52902">
        <ele>1634</ele>
        <time>2025-06-05T13:42:59Z</time>
      </trkpt>
      <trkpt lat="45.75868" lon="6.52874">
        <ele>1633</ele>
        <time>2025-06-05T13:43:05Z</time>
      </trkpt>
      <trkpt lat="45.75847" lon="6.5283">
        <ele>1632</ele>
        <time>2025-06-05T13:43:14Z</time>
      </trkpt>
      <trkpt lat="45.75827" lon="6.52791">
        <ele>1634</ele>
        <time>2025-06-05T13:43:22Z</time>
      </trkpt>
      <trkpt lat="45.75823" lon="6.52773">
        <ele>1634</ele>
        <time>2025-06-05T13:43:25Z</time>
      </trkpt>
      <trkpt lat="45.75816" lon="6.52749">
        <ele>1635</ele>
        <time>2025-06-05T13:43:29Z</time>
      </trkpt>
      <trkpt lat="45.75816" lon="6.52731">
        <ele>1637</ele>
        <time>2025-06-05T13:43:32Z</time>
      </trkpt>
      <trkpt lat="45.75819" lon="6.52715">
        <ele>1638</ele>
        <time>2025-06-05T13:43:34Z</time>
      </trkpt>
      <trkpt lat="45.75829" lon="6.52661">
        <ele>1641</ele>
        <time>2025-06-05T13:43:44Z</time>
      </trkpt>
      <trkpt lat="45.75834" lon="6.52645">
        <ele>1642</ele>
        <time>2025-06-05T13:43:46Z</time>
      </trkpt>
      <trkpt lat="45.75836" lon="6.52637">
        <ele>1643</ele>
        <time>2025-06-05T13:43:48Z</time>
      </trkpt>
      <trkpt lat="45.7584" lon="6.52599">
        <ele>1647</ele>
        <time>2025-06-05T13:43:54Z</time>
      </trkpt>
      <trkpt lat="45.75846" lon="6.52554">
        <ele>1649</ele>
        <time>2025-06-05T13:44:02Z</time>
      </trkpt>
      <trkpt lat="45.7585" lon="6.52506">
        <ele>1650</ele>
        <time>2025-06-05T13:44:09Z</time>
      </trkpt>
      <trkpt lat="45.75851" lon="6.52473">
        <ele>1650</ele>
        <time>2025-06-05T13:44:15Z</time>
      </trkpt>
      <trkpt lat="45.75846" lon="6.52437">
        <ele>1650</ele>
        <time>2025-06-05T13:44:21Z</time>
      </trkpt>
      <trkpt lat="45.75832" lon="6.5237">
        <ele>1652</ele>
        <time>2025-06-05T13:44:32Z</time>
      </trkpt>
      <trkpt lat="45.75816" lon="6.5232">
        <ele>1654</ele>
        <time>2025-06-05T13:44:41Z</time>
      </trkpt>
      <trkpt lat="45.75804" lon="6.52304">
        <ele>1655</ele>
        <time>2025-06-05T13:44:45Z</time>
      </trkpt>
      <trkpt lat="45.75792" lon="6.5228">
        <ele>1656</ele>
        <time>2025-06-05T13:44:50Z</time>
      </trkpt>
      <trkpt lat="45.75777" lon="6.52234">
        <ele>1658</ele>
        <time>2025-06-05T13:44:58Z</time>
      </trkpt>
      <trkpt lat="45.75785" lon="6.52181">
        <ele>1660</ele>
        <time>2025-06-05T13:45:07Z</time>
      </trkpt>
      <trkpt lat="45.75785" lon="6.52179">
        <ele>1660</ele>
        <time>2025-06-05T13:45:07Z</time>
      </trkpt>
      <trkpt lat="45.75806" lon="6.52137">
        <ele>1661</ele>
        <time>2025-06-05T13:45:16Z</time>
      </trkpt>
      <trkpt lat="45.75836" lon="6.52121">
        <ele>1657</ele>
        <time>2025-06-05T13:45:23Z</time>
      </trkpt>
      <trkpt lat="45.75883" lon="6.52082">
        <ele>1659</ele>
        <time>2025-06-05T13:45:36Z</time>
      </trkpt>
      <trkpt lat="45.75907" lon="6.52068">
        <ele>1660</ele>
        <time>2025-06-05T13:45:42Z</time>
      </trkpt>
      <trkpt lat="45.75927" lon="6.5206">
        <ele>1661</ele>
        <time>2025-06-05T13:45:47Z</time>
      </trkpt>
      <trkpt lat="45.75953" lon="6.52054">
        <ele>1661</ele>
        <time>2025-06-05T13:45:53Z</time>
      </trkpt>
      <trkpt lat="45.75976" lon="6.52046">
        <ele>1662</ele>
        <time>2025-06-05T13:45:58Z</time>
      </trkpt>
      <trkpt lat="45.75991" lon="6.52041">
        <ele>1662</ele>
        <time>2025-06-05T13:46:02Z</time>
      </trkpt>
      <trkpt lat="45.76018" lon="6.52034">
        <ele>1663</ele>
        <time>2025-06-05T13:46:08Z</time>
      </trkpt>
      <trkpt lat="45.7606" lon="6.52019">
        <ele>1665</ele>
        <time>2025-06-05T13:46:18Z</time>
      </trkpt>
      <trkpt lat="45.76071" lon="6.52011">
        <ele>1665</ele>
        <time>2025-06-05T13:46:21Z</time>
      </trkpt>
      <trkpt lat="45.76088" lon="6.51991">
        <ele>1667</ele>
        <time>2025-06-05T13:46:27Z</time>
      </trkpt>
      <trkpt lat="45.76098" lon="6.51967">
        <ele>1669</ele>
        <time>2025-06-05T13:46:31Z</time>
      </trkpt>
      <trkpt lat="45.76108" lon="6.51949">
        <ele>1669</ele>
        <time>2025-06-05T13:46:35Z</time>
      </trkpt>
      <trkpt lat="45.76117" lon="6.51921">
        <ele>1671</ele>
        <time>2025-06-05T13:46:40Z</time>
      </trkpt>
      <trkpt lat="45.76142" lon="6.51773">
        <ele>1683</ele>
        <time>2025-06-05T13:47:05Z</time>
      </trkpt>
      <trkpt lat="45.7615" lon="6.51741">
        <ele>1685</ele>
        <time>2025-06-05T13:47:10Z</time>
      </trkpt>
      <trkpt lat="45.76166" lon="6.51719">
        <ele>1685</ele>
        <time>2025-06-05T13:47:15Z</time>
      </trkpt>
      <trkpt lat="45.76177" lon="6.51708">
        <ele>1686</ele>
        <time>2025-06-05T13:47:18Z</time>
      </trkpt>
      <trkpt lat="45.76198" lon="6.51693">
        <ele>1686</ele>
        <time>2025-06-05T13:47:24Z</time>
      </trkpt>
      <trkpt lat="45.7621" lon="6.51674">
        <ele>1687</ele>
        <time>2025-06-05T13:47:28Z</time>
      </trkpt>
      <trkpt lat="45.76219" lon="6.51646">
        <ele>1688</ele>
        <time>2025-06-05T13:47:33Z</time>
      </trkpt>
      <trkpt lat="45.76225" lon="6.5162">
        <ele>1689</ele>
        <time>2025-06-05T13:47:38Z</time>
      </trkpt>
      <trkpt lat="45.76225" lon="6.51597">
        <ele>1690</ele>
        <time>2025-06-05T13:47:41Z</time>
      </trkpt>
      <trkpt lat="45.76224" lon="6.51584">
        <ele>1691</ele>
        <time>2025-06-05T13:47:44Z</time>
      </trkpt>
      <trkpt lat="45.76222" lon="6.51576">
        <ele>1692</ele>
        <time>2025-06-05T13:47:45Z</time>
      </trkpt>
      <trkpt lat="45.76219" lon="6.51564">
        <ele>1693</ele>
        <time>2025-06-05T13:47:47Z</time>
      </trkpt>
      <trkpt lat="45.76216" lon="6.51536">
        <ele>1695</ele>
        <time>2025-06-05T13:47:52Z</time>
      </trkpt>
      <trkpt lat="45.76217" lon="6.51509">
        <ele>1698</ele>
        <time>2025-06-05T13:47:56Z</time>
      </trkpt>
      <trkpt lat="45.76221" lon="6.5148">
        <ele>1700</ele>
        <time>2025-06-05T13:48:01Z</time>
      </trkpt>
      <trkpt lat="45.76222" lon="6.51475">
        <ele>1701</ele>
        <time>2025-06-05T13:48:02Z</time>
      </trkpt>
      <trkpt lat="45.7622" lon="6.51456">
        <ele>1703</ele>
        <time>2025-06-05T13:48:05Z</time>
      </trkpt>
      <trkpt lat="45.76236" lon="6.51424">
        <ele>1705</ele>
        <time>2025-06-05T13:48:11Z</time>
      </trkpt>
      <trkpt lat="45.76245" lon="6.51408">
        <ele>1706</ele>
        <time>2025-06-05T13:48:15Z</time>
      </trkpt>
      <trkpt lat="45.76255" lon="6.51392">
        <ele>1707</ele>
        <time>2025-06-05T13:48:18Z</time>
      </trkpt>
      <trkpt lat="45.76273" lon="6.51366">
        <ele>1708</ele>
        <time>2025-06-05T13:48:24Z</time>
      </trkpt>
      <trkpt lat="45.76279" lon="6.51328">
        <ele>1709</ele>
        <time>2025-06-05T13:48:30Z</time>
      </trkpt>
      <trkpt lat="45.76286" lon="6.51311">
        <ele>1710</ele>
        <time>2025-06-05T13:48:34Z</time>
      </trkpt>
      <trkpt lat="45.76293" lon="6.51295">
        <ele>1710</ele>
        <time>2025-06-05T13:48:37Z</time>
      </trkpt>
      <trkpt lat="45.763" lon="6.51284">
        <ele>1710</ele>
        <time>2025-06-05T13:48:39Z</time>
      </trkpt>
      <trkpt lat="45.76304" lon="6.51266">
        <ele>1711</ele>
        <time>2025-06-05T13:48:42Z</time>
      </trkpt>
      <trkpt lat="45.7631" lon="6.51255">
        <ele>1711</ele>
        <time>2025-06-05T13:48:44Z</time>
      </trkpt>
      <trkpt lat="45.76334" lon="6.51239">
        <ele>1710</ele>
        <time>2025-06-05T13:48:51Z</time>
      </trkpt>
      <trkpt lat="45.76346" lon="6.51223">
        <ele>1712</ele>
        <time>2025-06-05T13:48:54Z</time>
      </trkpt>
      <trkpt lat="45.76361" lon="6.51209">
        <ele>1714</ele>
        <time>2025-06-05T13:48:59Z</time>
      </trkpt>
      <trkpt lat="45.76383" lon="6.51167">
        <ele>1718</ele>
        <time>2025-06-05T13:49:07Z</time>
      </trkpt>
      <trkpt lat="45.76388" lon="6.51152">
        <ele>1718</ele>
        <time>2025-06-05T13:49:10Z</time>
      </trkpt>
      <trkpt lat="45.76385" lon="6.51131">
        <ele>1719</ele>
        <time>2025-06-05T13:49:13Z</time>
      </trkpt>
      <trkpt lat="45.76368" lon="6.5109">
        <ele>1719</ele>
        <time>2025-06-05T13:49:21Z</time>
      </trkpt>
      <trkpt lat="45.76372" lon="6.51068">
        <ele>1719</ele>
        <time>2025-06-05T13:49:25Z</time>
      </trkpt>
      <trkpt lat="45.76376" lon="6.51052">
        <ele>1719</ele>
        <time>2025-06-05T13:49:28Z</time>
      </trkpt>
      <trkpt lat="45.76353" lon="6.51059">
        <ele>1718</ele>
        <time>2025-06-05T13:49:33Z</time>
      </trkpt>
      <trkpt lat="45.76342" lon="6.51052">
        <ele>1717</ele>
        <time>2025-06-05T13:49:36Z</time>
      </trkpt>
      <trkpt lat="45.76318" lon="6.51031">
        <ele>1717</ele>
        <time>2025-06-05T13:49:42Z</time>
      </trkpt>
      <trkpt lat="45.76271" lon="6.51018">
        <ele>1718</ele>
        <time>2025-06-05T13:49:54Z</time>
      </trkpt>
      <trkpt lat="45.76248" lon="6.51008">
        <ele>1718</ele>
        <time>2025-06-05T13:49:59Z</time>
      </trkpt>
      <trkpt lat="45.76241" lon="6.51005">
        <ele>1718</ele>
        <time>2025-06-05T13:50:01Z</time>
      </trkpt>
      <trkpt lat="45.76156" lon="6.50978">
        <ele>1726</ele>
        <time>2025-06-05T13:50:21Z</time>
      </trkpt>
      <trkpt lat="45.76151" lon="6.50971">
        <ele>1726</ele>
        <time>2025-06-05T13:50:23Z</time>
      </trkpt>
      <trkpt lat="45.76137" lon="6.50946">
        <ele>1725</ele>
        <time>2025-06-05T13:50:28Z</time>
      </trkpt>
      <trkpt lat="45.76128" lon="6.50932">
        <ele>1725</ele>
        <time>2025-06-05T13:50:31Z</time>
      </trkpt>
      <trkpt lat="45.76107" lon="6.50913">
        <ele>1725</ele>
        <time>2025-06-05T13:50:37Z</time>
      </trkpt>
      <trkpt lat="45.76094" lon="6.50899">
        <ele>1725</ele>
        <time>2025-06-05T13:50:41Z</time>
      </trkpt>
      <trkpt lat="45.76087" lon="6.50887">
        <ele>1725</ele>
        <time>2025-06-05T13:50:43Z</time>
      </trkpt>
      <trkpt lat="45.76079" lon="6.50871">
        <ele>1726</ele>
        <time>2025-06-05T13:50:47Z</time>
      </trkpt>
      <trkpt lat="45.76075" lon="6.5086">
        <ele>1726</ele>
        <time>2025-06-05T13:50:49Z</time>
      </trkpt>
      <trkpt lat="45.76071" lon="6.50846">
        <ele>1726</ele>
        <time>2025-06-05T13:50:51Z</time>
      </trkpt>
      <trkpt lat="45.76068" lon="6.50807">
        <ele>1724</ele>
        <time>2025-06-05T13:50:58Z</time>
      </trkpt>
      <trkpt lat="45.76065" lon="6.50793">
        <ele>1723</ele>
        <time>2025-06-05T13:51:00Z</time>
      </trkpt>
      <trkpt lat="45.76061" lon="6.50781">
        <ele>1722</ele>
        <time>2025-06-05T13:51:02Z</time>
      </trkpt>
      <trkpt lat="45.76043" lon="6.5076">
        <ele>1722</ele>
        <time>2025-06-05T13:51:07Z</time>
      </trkpt>
      <trkpt lat="45.76021" lon="6.50743">
        <ele>1722</ele>
        <time>2025-06-05T13:51:13Z</time>
      </trkpt>
      <trkpt lat="45.76002" lon="6.50748">
        <ele>1724</ele>
        <time>2025-06-05T13:51:18Z</time>
      </trkpt>
      <trkpt lat="45.75986" lon="6.50759">
        <ele>1725</ele>
        <time>2025-06-05T13:51:22Z</time>
      </trkpt>
      <trkpt lat="45.75979" lon="6.50762">
        <ele>1725</ele>
        <time>2025-06-05T13:51:24Z</time>
      </trkpt>
      <trkpt lat="45.75968" lon="6.5076">
        <ele>1724</ele>
        <time>2025-06-05T13:51:26Z</time>
      </trkpt>
      <trkpt lat="45.75954" lon="6.50752">
        <ele>1722</ele>
        <time>2025-06-05T13:51:30Z</time>
      </trkpt>
      <trkpt lat="45.75945" lon="6.50746">
        <ele>1720</ele>
        <time>2025-06-05T13:51:32Z</time>
      </trkpt>
      <trkpt lat="45.75939" lon="6.50744">
        <ele>1720</ele>
        <time>2025-06-05T13:51:34Z</time>
      </trkpt>
      <trkpt lat="45.75934" lon="6.50747">
        <ele>1720</ele>
        <time>2025-06-05T13:51:35Z</time>
      </trkpt>
      <trkpt lat="45.75917" lon="6.50766">
        <ele>1721</ele>
        <time>2025-06-05T13:51:40Z</time>
      </trkpt>
      <trkpt lat="45.75908" lon="6.50774">
        <ele>1721</ele>
        <time>2025-06-05T13:51:42Z</time>
      </trkpt>
      <trkpt lat="45.75902" lon="6.50781">
        <ele>1722</ele>
        <time>2025-06-05T13:51:44Z</time>
      </trkpt>
      <trkpt lat="45.75883" lon="6.50799">
        <ele>1722</ele>
        <time>2025-06-05T13:51:49Z</time>
      </trkpt>
      <trkpt lat="45.75864" lon="6.50812">
        <ele>1722</ele>
        <time>2025-06-05T13:51:54Z</time>
      </trkpt>
      <trkpt lat="45.75848" lon="6.5082">
        <ele>1721</ele>
        <time>2025-06-05T13:51:58Z</time>
      </trkpt>
      <trkpt lat="45.75841" lon="6.50825">
        <ele>1720</ele>
        <time>2025-06-05T13:52:00Z</time>
      </trkpt>
      <trkpt lat="45.75831" lon="6.50829">
        <ele>1720</ele>
        <time>2025-06-05T13:52:03Z</time>
      </trkpt>
      <trkpt lat="45.75775" lon="6.50832">
        <ele>1726</ele>
        <time>2025-06-05T13:52:16Z</time>
      </trkpt>
      <trkpt lat="45.75765" lon="6.50831">
        <ele>1727</ele>
        <time>2025-06-05T13:52:18Z</time>
      </trkpt>
      <trkpt lat="45.75755" lon="6.50823">
        <ele>1728</ele>
        <time>2025-06-05T13:52:21Z</time>
      </trkpt>
      <trkpt lat="45.75745" lon="6.50817">
        <ele>1729</ele>
        <time>2025-06-05T13:52:23Z</time>
      </trkpt>
      <trkpt lat="45.75735" lon="6.50813">
        <ele>1730</ele>
        <time>2025-06-05T13:52:26Z</time>
      </trkpt>
      <trkpt lat="45.75729" lon="6.50813">
        <ele>1731</ele>
        <time>2025-06-05T13:52:27Z</time>
      </trkpt>
      <trkpt lat="45.75717" lon="6.50815">
        <ele>1733</ele>
        <time>2025-06-05T13:52:30Z</time>
      </trkpt>
      <trkpt lat="45.75714" lon="6.50819">
        <ele>1733</ele>
        <time>2025-06-05T13:52:31Z</time>
      </trkpt>
      <trkpt lat="45.75711" lon="6.50825">
        <ele>1734</ele>
        <time>2025-06-05T13:52:32Z</time>
      </trkpt>
      <trkpt lat="45.7571" lon="6.50832">
        <ele>1734</ele>
        <time>2025-06-05T13:52:33Z</time>
      </trkpt>
      <trkpt lat="45.75711" lon="6.50845">
        <ele>1734</ele>
        <time>2025-06-05T13:52:35Z</time>
      </trkpt>
      <trkpt lat="45.75715" lon="6.50853">
        <ele>1734</ele>
        <time>2025-06-05T13:52:37Z</time>
      </trkpt>
      <trkpt lat="45.7571" lon="6.50859">
        <ele>1735</ele>
        <time>2025-06-05T13:52:38Z</time>
      </trkpt>
      <trkpt lat="45.75704" lon="6.50858">
        <ele>1736</ele>
        <time>2025-06-05T13:52:40Z</time>
      </trkpt>
      <trkpt lat="45.7569" lon="6.50846">
        <ele>1737</ele>
        <time>2025-06-05T13:52:44Z</time>
      </trkpt>
      <trkpt lat="45.75665" lon="6.50836">
        <ele>1740</ele>
        <time>2025-06-05T13:52:50Z</time>
      </trkpt>
      <trkpt lat="45.75651" lon="6.50829">
        <ele>1743</ele>
        <time>2025-06-05T13:52:53Z</time>
      </trkpt>
      <trkpt lat="45.75633" lon="6.50817">
        <ele>1745</ele>
        <time>2025-06-05T13:52:58Z</time>
      </trkpt>
      <trkpt lat="45.75608" lon="6.50787">
        <ele>1747</ele>
        <time>2025-06-05T13:53:05Z</time>
      </trkpt>
      <trkpt lat="45.75588" lon="6.50775">
        <ele>1749</ele>
        <time>2025-06-05T13:53:10Z</time>
      </trkpt>
      <trkpt lat="45.75552" lon="6.50759">
        <ele>1752</ele>
        <time>2025-06-05T13:53:19Z</time>
      </trkpt>
      <trkpt lat="45.75511" lon="6.50734">
        <ele>1754</ele>
        <time>2025-06-05T13:53:30Z</time>
      </trkpt>
      <trkpt lat="45.75496" lon="6.5072">
        <ele>1754</ele>
        <time>2025-06-05T13:53:34Z</time>
      </trkpt>
      <trkpt lat="45.75477" lon="6.50703">
        <ele>1756</ele>
        <time>2025-06-05T13:53:39Z</time>
      </trkpt>
      <trkpt lat="45.75468" lon="6.50702">
        <ele>1757</ele>
        <time>2025-06-05T13:53:41Z</time>
      </trkpt>
      <trkpt lat="45.75447" lon="6.50703">
        <ele>1760</ele>
        <time>2025-06-05T13:53:46Z</time>
      </trkpt>
      <trkpt lat="45.7543" lon="6.50701">
        <ele>1762</ele>
        <time>2025-06-05T13:53:50Z</time>
      </trkpt>
      <trkpt lat="45.75422" lon="6.50696">
        <ele>1763</ele>
        <time>2025-06-05T13:53:52Z</time>
      </trkpt>
      <trkpt lat="45.754" lon="6.5067">
        <ele>1764</ele>
        <time>2025-06-05T13:53:59Z</time>
      </trkpt>
      <trkpt lat="45.75393" lon="6.50673">
        <ele>1766</ele>
        <time>2025-06-05T13:54:01Z</time>
      </trkpt>
      <trkpt lat="45.75392" lon="6.50679">
        <ele>1767</ele>
        <time>2025-06-05T13:54:02Z</time>
      </trkpt>
      <trkpt lat="45.75399" lon="6.50716">
        <ele>1771</ele>
        <time>2025-06-05T13:54:08Z</time>
      </trkpt>
      <trkpt lat="45.75404" lon="6.50727">
        <ele>1771</ele>
        <time>2025-06-05T13:54:10Z</time>
      </trkpt>
      <trkpt lat="45.75406" lon="6.50739">
        <ele>1772</ele>
        <time>2025-06-05T13:54:12Z</time>
      </trkpt>
      <trkpt lat="45.75408" lon="6.50773">
        <ele>1774</ele>
        <time>2025-06-05T13:54:17Z</time>
      </trkpt>
      <trkpt lat="45.75409" lon="6.50785">
        <ele>1775</ele>
        <time>2025-06-05T13:54:19Z</time>
      </trkpt>
      <trkpt lat="45.75416" lon="6.50801">
        <ele>1773</ele>
        <time>2025-06-05T13:54:23Z</time>
      </trkpt>
      <trkpt lat="45.75421" lon="6.50807">
        <ele>1773</ele>
        <time>2025-06-05T13:54:24Z</time>
      </trkpt>
      <trkpt lat="45.75436" lon="6.50833">
        <ele>1773</ele>
        <time>2025-06-05T13:54:30Z</time>
      </trkpt>
      <trkpt lat="45.75455" lon="6.50874">
        <ele>1773</ele>
        <time>2025-06-05T13:54:38Z</time>
      </trkpt>
      <trkpt lat="45.75467" lon="6.50892">
        <ele>1773</ele>
        <time>2025-06-05T13:54:42Z</time>
      </trkpt>
      <trkpt lat="45.75467" lon="6.50896">
        <ele>1773</ele>
        <time>2025-06-05T13:54:42Z</time>
      </trkpt>
      <trkpt lat="45.75468" lon="6.50903">
        <ele>1773</ele>
        <time>2025-06-05T13:54:43Z</time>
      </trkpt>
      <trkpt lat="45.75451" lon="6.50964">
        <ele>1778</ele>
        <time>2025-06-05T13:54:54Z</time>
      </trkpt>
      <trkpt lat="45.75451" lon="6.50973">
        <ele>1779</ele>
        <time>2025-06-05T13:54:56Z</time>
      </trkpt>
      <trkpt lat="45.7545" lon="6.50983">
        <ele>1779</ele>
        <time>2025-06-05T13:54:57Z</time>
      </trkpt>
      <trkpt lat="45.75452" lon="6.51006">
        <ele>1780</ele>
        <time>2025-06-05T13:55:01Z</time>
      </trkpt>
      <trkpt lat="45.75452" lon="6.51026">
        <ele>1780</ele>
        <time>2025-06-05T13:55:04Z</time>
      </trkpt>
      <trkpt lat="45.75448" lon="6.51033">
        <ele>1781</ele>
        <time>2025-06-05T13:55:06Z</time>
      </trkpt>
      <trkpt lat="45.75442" lon="6.51039">
        <ele>1782</ele>
        <time>2025-06-05T13:55:07Z</time>
      </trkpt>
      <trkpt lat="45.75396" lon="6.51066">
        <ele>1792</ele>
        <time>2025-06-05T13:55:19Z</time>
      </trkpt>
      <trkpt lat="45.75391" lon="6.51077">
        <ele>1793</ele>
        <time>2025-06-05T13:55:21Z</time>
      </trkpt>
      <trkpt lat="45.75386" lon="6.51089">
        <ele>1794</ele>
        <time>2025-06-05T13:55:23Z</time>
      </trkpt>
      <trkpt lat="45.75373" lon="6.51108">
        <ele>1797</ele>
        <time>2025-06-05T13:55:28Z</time>
      </trkpt>
      <trkpt lat="45.75362" lon="6.51116">
        <ele>1799</ele>
        <time>2025-06-05T13:55:31Z</time>
      </trkpt>
      <trkpt lat="45.75343" lon="6.51123">
        <ele>1803</ele>
        <time>2025-06-05T13:55:35Z</time>
      </trkpt>
      <trkpt lat="45.75336" lon="6.51137">
        <ele>1804</ele>
        <time>2025-06-05T13:55:38Z</time>
      </trkpt>
      <trkpt lat="45.75327" lon="6.512">
        <ele>1807</ele>
        <time>2025-06-05T13:55:49Z</time>
      </trkpt>
      <trkpt lat="45.75329" lon="6.51216">
        <ele>1807</ele>
        <time>2025-06-05T13:55:51Z</time>
      </trkpt>
      <trkpt lat="45.75336" lon="6.51233">
        <ele>1806</ele>
        <time>2025-06-05T13:55:54Z</time>
      </trkpt>
      <trkpt lat="45.75338" lon="6.51245">
        <ele>1806</ele>
        <time>2025-06-05T13:55:56Z</time>
      </trkpt>
      <trkpt lat="45.75322" lon="6.51301">
        <ele>1809</ele>
        <time>2025-06-05T13:56:06Z</time>
      </trkpt>
      <trkpt lat="45.75319" lon="6.51327">
        <ele>1810</ele>
        <time>2025-06-05T13:56:11Z</time>
      </trkpt>
      <trkpt lat="45.75298" lon="6.51404">
        <ele>1811</ele>
        <time>2025-06-05T13:56:24Z</time>
      </trkpt>
      <trkpt lat="45.75274" lon="6.51429">
        <ele>1814</ele>
        <time>2025-06-05T13:56:31Z</time>
      </trkpt>
      <trkpt lat="45.75266" lon="6.51438">
        <ele>1815</ele>
        <time>2025-06-05T13:56:33Z</time>
      </trkpt>
      <trkpt lat="45.75259" lon="6.51454">
        <ele>1815</ele>
        <time>2025-06-05T13:56:36Z</time>
      </trkpt>
      <trkpt lat="45.75253" lon="6.51464">
        <ele>1816</ele>
        <time>2025-06-05T13:56:39Z</time>
      </trkpt>
      <trkpt lat="45.75236" lon="6.51483">
        <ele>1818</ele>
        <time>2025-06-05T13:56:44Z</time>
      </trkpt>
      <trkpt lat="45.75232" lon="6.51498">
        <ele>1818</ele>
        <time>2025-06-05T13:56:46Z</time>
      </trkpt>
      <trkpt lat="45.75233" lon="6.5151">
        <ele>1817</ele>
        <time>2025-06-05T13:56:48Z</time>
      </trkpt>
      <trkpt lat="45.75237" lon="6.51529">
        <ele>1816</ele>
        <time>2025-06-05T13:56:51Z</time>
      </trkpt>
      <trkpt lat="45.75234" lon="6.5155">
        <ele>1816</ele>
        <time>2025-06-05T13:56:55Z</time>
      </trkpt>
      <trkpt lat="45.75225" lon="6.51565">
        <ele>1817</ele>
        <time>2025-06-05T13:56:58Z</time>
      </trkpt>
      <trkpt lat="45.75203" lon="6.51599">
        <ele>1817</ele>
        <time>2025-06-05T13:57:06Z</time>
      </trkpt>
      <trkpt lat="45.75193" lon="6.51609">
        <ele>1816</ele>
        <time>2025-06-05T13:57:09Z</time>
      </trkpt>
      <trkpt lat="45.75187" lon="6.51613">
        <ele>1816</ele>
        <time>2025-06-05T13:57:10Z</time>
      </trkpt>
      <trkpt lat="45.75182" lon="6.51614">
        <ele>1816</ele>
        <time>2025-06-05T13:57:11Z</time>
      </trkpt>
      <trkpt lat="45.75177" lon="6.51613">
        <ele>1817</ele>
        <time>2025-06-05T13:57:12Z</time>
      </trkpt>
      <trkpt lat="45.75167" lon="6.51605">
        <ele>1818</ele>
        <time>2025-06-05T13:57:15Z</time>
      </trkpt>
      <trkpt lat="45.75154" lon="6.51593">
        <ele>1818</ele>
        <time>2025-06-05T13:57:19Z</time>
      </trkpt>
      <trkpt lat="45.75134" lon="6.51576">
        <ele>1819</ele>
        <time>2025-06-05T13:57:24Z</time>
      </trkpt>
      <trkpt lat="45.75125" lon="6.51571">
        <ele>1820</ele>
        <time>2025-06-05T13:57:26Z</time>
      </trkpt>
      <trkpt lat="45.75115" lon="6.51568">
        <ele>1820</ele>
        <time>2025-06-05T13:57:29Z</time>
      </trkpt>
      <trkpt lat="45.75108" lon="6.51568">
        <ele>1819</ele>
        <time>2025-06-05T13:57:30Z</time>
      </trkpt>
      <trkpt lat="45.75101" lon="6.51569">
        <ele>1819</ele>
        <time>2025-06-05T13:57:32Z</time>
      </trkpt>
      <trkpt lat="45.75096" lon="6.51571">
        <ele>1818</ele>
        <time>2025-06-05T13:57:33Z</time>
      </trkpt>
      <trkpt lat="45.75089" lon="6.5158">
        <ele>1817</ele>
        <time>2025-06-05T13:57:36Z</time>
      </trkpt>
      <trkpt lat="45.75078" lon="6.51605">
        <ele>1815</ele>
        <time>2025-06-05T13:57:40Z</time>
      </trkpt>
      <trkpt lat="45.75074" lon="6.51636">
        <ele>1813</ele>
        <time>2025-06-05T13:57:45Z</time>
      </trkpt>
      <trkpt lat="45.75064" lon="6.51667">
        <ele>1813</ele>
        <time>2025-06-05T13:57:51Z</time>
      </trkpt>
      <trkpt lat="45.75058" lon="6.51693">
        <ele>1812</ele>
        <time>2025-06-05T13:57:56Z</time>
      </trkpt>
      <trkpt lat="45.7505" lon="6.51717">
        <ele>1812</ele>
        <time>2025-06-05T13:58:00Z</time>
      </trkpt>
      <trkpt lat="45.7502" lon="6.51773">
        <ele>1812</ele>
        <time>2025-06-05T13:58:11Z</time>
      </trkpt>
      <trkpt lat="45.75013" lon="6.51783">
        <ele>1812</ele>
        <time>2025-06-05T13:58:14Z</time>
      </trkpt>
      <trkpt lat="45.75005" lon="6.51803">
        <ele>1812</ele>
        <time>2025-06-05T13:58:17Z</time>
      </trkpt>
      <trkpt lat="45.74999" lon="6.51814">
        <ele>1811</ele>
        <time>2025-06-05T13:58:20Z</time>
      </trkpt>
      <trkpt lat="45.74994" lon="6.51823">
        <ele>1811</ele>
        <time>2025-06-05T13:58:22Z</time>
      </trkpt>
      <trkpt lat="45.74987" lon="6.5183">
        <ele>1810</ele>
        <time>2025-06-05T13:58:24Z</time>
      </trkpt>
      <trkpt lat="45.74971" lon="6.5184">
        <ele>1810</ele>
        <time>2025-06-05T13:58:28Z</time>
      </trkpt>
      <trkpt lat="45.74957" lon="6.51846">
        <ele>1811</ele>
        <time>2025-06-05T13:58:31Z</time>
      </trkpt>
      <trkpt lat="45.74942" lon="6.5185">
        <ele>1811</ele>
        <time>2025-06-05T13:58:35Z</time>
      </trkpt>
      <trkpt lat="45.74939" lon="6.51853">
        <ele>1811</ele>
        <time>2025-06-05T13:58:35Z</time>
      </trkpt>
      <trkpt lat="45.74937" lon="6.51858">
        <ele>1810</ele>
        <time>2025-06-05T13:58:36Z</time>
      </trkpt>
      <trkpt lat="45.74935" lon="6.51866">
        <ele>1810</ele>
        <time>2025-06-05T13:58:38Z</time>
      </trkpt>
      <trkpt lat="45.74935" lon="6.51878">
        <ele>1808</ele>
        <time>2025-06-05T13:58:40Z</time>
      </trkpt>
      <trkpt lat="45.74933" lon="6.51887">
        <ele>1807</ele>
        <time>2025-06-05T13:58:41Z</time>
      </trkpt>
      <trkpt lat="45.74926" lon="6.51892">
        <ele>1807</ele>
        <time>2025-06-05T13:58:43Z</time>
      </trkpt>
      <trkpt lat="45.74891" lon="6.51898">
        <ele>1806</ele>
        <time>2025-06-05T13:58:51Z</time>
      </trkpt>
      <trkpt lat="45.74879" lon="6.51903">
        <ele>1805</ele>
        <time>2025-06-05T13:58:54Z</time>
      </trkpt>
      <trkpt lat="45.74874" lon="6.51906">
        <ele>1804</ele>
        <time>2025-06-05T13:58:56Z</time>
      </trkpt>
      <trkpt lat="45.7486" lon="6.51921">
        <ele>1802</ele>
        <time>2025-06-05T13:59:00Z</time>
      </trkpt>
      <trkpt lat="45.74858" lon="6.51926">
        <ele>1802</ele>
        <time>2025-06-05T13:59:01Z</time>
      </trkpt>
      <trkpt lat="45.7486" lon="6.51921">
        <ele>1802</ele>
        <time>2025-06-05T13:59:01Z</time>
      </trkpt>
      <trkpt lat="45.74863" lon="6.5191">
        <ele>1804</ele>
        <time>2025-06-05T13:59:03Z</time>
      </trkpt>
      <trkpt lat="45.74867" lon="6.51876">
        <ele>1808</ele>
        <time>2025-06-05T13:59:09Z</time>
      </trkpt>
      <trkpt lat="45.7487" lon="6.51867">
        <ele>1809</ele>
        <time>2025-06-05T13:59:11Z</time>
      </trkpt>
      <trkpt lat="45.74875" lon="6.51858">
        <ele>1811</ele>
        <time>2025-06-05T13:59:13Z</time>
      </trkpt>
      <trkpt lat="45.74895" lon="6.51835">
        <ele>1814</ele>
        <time>2025-06-05T13:59:19Z</time>
      </trkpt>
      <trkpt lat="45.74913" lon="6.51811">
        <ele>1818</ele>
        <time>2025-06-05T13:59:24Z</time>
      </trkpt>
      <trkpt lat="45.74927" lon="6.51791">
        <ele>1820</ele>
        <time>2025-06-05T13:59:29Z</time>
      </trkpt>
      <trkpt lat="45.74937" lon="6.51776">
        <ele>1821</ele>
        <time>2025-06-05T13:59:32Z</time>
      </trkpt>
      <trkpt lat="45.7494" lon="6.51766">
        <ele>1822</ele>
        <time>2025-06-05T13:59:34Z</time>
      </trkpt>
      <trkpt lat="45.74942" lon="6.51757">
        <ele>1823</ele>
        <time>2025-06-05T13:59:36Z</time>
      </trkpt>
      <trkpt lat="45.74943" lon="6.51748">
        <ele>1824</ele>
        <time>2025-06-05T13:59:37Z</time>
      </trkpt>
      <trkpt lat="45.74942" lon="6.51737">
        <ele>1825</ele>
        <time>2025-06-05T13:59:39Z</time>
      </trkpt>
      <trkpt lat="45.74939" lon="6.51725">
        <ele>1826</ele>
        <time>2025-06-05T13:59:41Z</time>
      </trkpt>
      <trkpt lat="45.74936" lon="6.51716">
        <ele>1827</ele>
        <time>2025-06-05T13:59:43Z</time>
      </trkpt>
      <trkpt lat="45.74931" lon="6.51707">
        <ele>1828</ele>
        <time>2025-06-05T13:59:44Z</time>
      </trkpt>
      <trkpt lat="45.74915" lon="6.51681">
        <ele>1831</ele>
        <time>2025-06-05T13:59:50Z</time>
      </trkpt>
      <trkpt lat="45.74909" lon="6.5167">
        <ele>1832</ele>
        <time>2025-06-05T13:59:52Z</time>
      </trkpt>
      <trkpt lat="45.74905" lon="6.51657">
        <ele>1834</ele>
        <time>2025-06-05T13:59:55Z</time>
      </trkpt>
      <trkpt lat="45.74902" lon="6.51641">
        <ele>1835</ele>
        <time>2025-06-05T13:59:57Z</time>
      </trkpt>
      <trkpt lat="45.74899" lon="6.51609">
        <ele>1839</ele>
        <time>2025-06-05T14:00:03Z</time>
      </trkpt>
      <trkpt lat="45.749" lon="6.51589">
        <ele>1841</ele>
        <time>2025-06-05T14:00:06Z</time>
      </trkpt>
      <trkpt lat="45.74902" lon="6.5157">
        <ele>1843</ele>
        <time>2025-06-05T14:00:09Z</time>
      </trkpt>
      <trkpt lat="45.74902" lon="6.51558">
        <ele>1844</ele>
        <time>2025-06-05T14:00:11Z</time>
      </trkpt>
      <trkpt lat="45.749" lon="6.51545">
        <ele>1846</ele>
        <time>2025-06-05T14:00:13Z</time>
      </trkpt>
      <trkpt lat="45.74904" lon="6.5154">
        <ele>1846</ele>
        <time>2025-06-05T14:00:14Z</time>
      </trkpt>
      <trkpt lat="45.74919" lon="6.51486">
        <ele>1849</ele>
        <time>2025-06-05T14:00:24Z</time>
      </trkpt>
      <trkpt lat="45.74966" lon="6.51344">
        <ele>1854</ele>
        <time>2025-06-05T14:00:49Z</time>
      </trkpt>
      <trkpt lat="45.74981" lon="6.51294">
        <ele>1858</ele>
        <time>2025-06-05T14:00:58Z</time>
      </trkpt>
      <trkpt lat="45.74987" lon="6.51288">
        <ele>1858</ele>
        <time>2025-06-05T14:01:00Z</time>
      </trkpt>
      <trkpt lat="45.74992" lon="6.51282">
        <ele>1858</ele>
        <time>2025-06-05T14:01:02Z</time>
      </trkpt>
      <trkpt lat="45.75009" lon="6.51275">
        <ele>1858</ele>
        <time>2025-06-05T14:01:06Z</time>
      </trkpt>
      <trkpt lat="45.75029" lon="6.51271">
        <ele>1857</ele>
        <time>2025-06-05T14:01:10Z</time>
      </trkpt>
      <trkpt lat="45.7504" lon="6.51266">
        <ele>1857</ele>
        <time>2025-06-05T14:01:13Z</time>
      </trkpt>
      <trkpt lat="45.75045" lon="6.5126">
        <ele>1858</ele>
        <time>2025-06-05T14:01:15Z</time>
      </trkpt>
      <trkpt lat="45.75049" lon="6.51252">
        <ele>1858</ele>
        <time>2025-06-05T14:01:16Z</time>
      </trkpt>
      <trkpt lat="45.75055" lon="6.51231">
        <ele>1860</ele>
        <time>2025-06-05T14:01:20Z</time>
      </trkpt>
      <trkpt lat="45.75056" lon="6.51217">
        <ele>1861</ele>
        <time>2025-06-05T14:01:22Z</time>
      </trkpt>
      <trkpt lat="45.75056" lon="6.51201">
        <ele>1863</ele>
        <time>2025-06-05T14:01:25Z</time>
      </trkpt>
      <trkpt lat="45.75049" lon="6.51175">
        <ele>1866</ele>
        <time>2025-06-05T14:01:29Z</time>
      </trkpt>
      <trkpt lat="45.7504" lon="6.51138">
        <ele>1869</ele>
        <time>2025-06-05T14:01:36Z</time>
      </trkpt>
      <trkpt lat="45.75036" lon="6.51103">
        <ele>1871</ele>
        <time>2025-06-05T14:01:42Z</time>
      </trkpt>
      <trkpt lat="45.75037" lon="6.51091">
        <ele>1871</ele>
        <time>2025-06-05T14:01:44Z</time>
      </trkpt>
      <trkpt lat="45.75042" lon="6.51055">
        <ele>1869</ele>
        <time>2025-06-05T14:01:50Z</time>
      </trkpt>
      <trkpt lat="45.75043" lon="6.51051">
        <ele>1869</ele>
        <time>2025-06-05T14:01:50Z</time>
      </trkpt>
      <trkpt lat="45.75034" lon="6.50998">
        <ele>1867</ele>
        <time>2025-06-05T14:01:59Z</time>
      </trkpt>
      <trkpt lat="45.75027" lon="6.50929">
        <ele>1867</ele>
        <time>2025-06-05T14:02:10Z</time>
      </trkpt>
      <trkpt lat="45.75023" lon="6.50875">
        <ele>1868</ele>
        <time>2025-06-05T14:02:19Z</time>
      </trkpt>
      <trkpt lat="45.75029" lon="6.50864">
        <ele>1868</ele>
        <time>2025-06-05T14:02:22Z</time>
      </trkpt>
      <trkpt lat="45.75041" lon="6.50853">
        <ele>1866</ele>
        <time>2025-06-05T14:02:25Z</time>
      </trkpt>
      <trkpt lat="45.75055" lon="6.5085">
        <ele>1863</ele>
        <time>2025-06-05T14:02:28Z</time>
      </trkpt>
      <trkpt lat="45.7506" lon="6.50846">
        <ele>1863</ele>
        <time>2025-06-05T14:02:30Z</time>
      </trkpt>
      <trkpt lat="45.7506" lon="6.50832">
        <ele>1863</ele>
        <time>2025-06-05T14:02:32Z</time>
      </trkpt>
      <trkpt lat="45.7505" lon="6.50809">
        <ele>1864</ele>
        <time>2025-06-05T14:02:36Z</time>
      </trkpt>
      <trkpt lat="45.75038" lon="6.50786">
        <ele>1866</ele>
        <time>2025-06-05T14:02:41Z</time>
      </trkpt>
      <trkpt lat="45.75035" lon="6.50771">
        <ele>1867</ele>
        <time>2025-06-05T14:02:43Z</time>
      </trkpt>
      <trkpt lat="45.75035" lon="6.50737">
        <ele>1866</ele>
        <time>2025-06-05T14:02:49Z</time>
      </trkpt>
      <trkpt lat="45.75027" lon="6.50713">
        <ele>1865</ele>
        <time>2025-06-05T14:02:53Z</time>
      </trkpt>
      <trkpt lat="45.75017" lon="6.50689">
        <ele>1866</ele>
        <time>2025-06-05T14:02:58Z</time>
      </trkpt>
      <trkpt lat="45.75009" lon="6.50655">
        <ele>1864</ele>
        <time>2025-06-05T14:03:04Z</time>
      </trkpt>
      <trkpt lat="45.75002" lon="6.50638">
        <ele>1863</ele>
        <time>2025-06-05T14:03:07Z</time>
      </trkpt>
      <trkpt lat="45.74982" lon="6.50616">
        <ele>1865</ele>
        <time>2025-06-05T14:03:13Z</time>
      </trkpt>
      <trkpt lat="45.74955" lon="6.50589">
        <ele>1869</ele>
        <time>2025-06-05T14:03:21Z</time>
      </trkpt>
      <trkpt lat="45.74931" lon="6.50563">
        <ele>1871</ele>
        <time>2025-06-05T14:03:28Z</time>
      </trkpt>
      <trkpt lat="45.74921" lon="6.50546">
        <ele>1871</ele>
        <time>2025-06-05T14:03:31Z</time>
      </trkpt>
      <trkpt lat="45.74914" lon="6.50524">
        <ele>1869</ele>
        <time>2025-06-05T14:03:35Z</time>
      </trkpt>
      <trkpt lat="45.74902" lon="6.50487">
        <ele>1867</ele>
        <time>2025-06-05T14:03:42Z</time>
      </trkpt>
      <trkpt lat="45.74897" lon="6.50461">
        <ele>1866</ele>
        <time>2025-06-05T14:03:46Z</time>
      </trkpt>
      <trkpt lat="45.74866" lon="6.50417">
        <ele>1869</ele>
        <time>2025-06-05T14:03:56Z</time>
      </trkpt>
      <trkpt lat="45.74842" lon="6.5038">
        <ele>1872</ele>
        <time>2025-06-05T14:04:05Z</time>
      </trkpt>
      <trkpt lat="45.74827" lon="6.50352">
        <ele>1874</ele>
        <time>2025-06-05T14:04:10Z</time>
      </trkpt>
      <trkpt lat="45.74822" lon="6.5034">
        <ele>1874</ele>
        <time>2025-06-05T14:04:13Z</time>
      </trkpt>
      <trkpt lat="45.74816" lon="6.50308">
        <ele>1873</ele>
        <time>2025-06-05T14:04:18Z</time>
      </trkpt>
      <trkpt lat="45.74811" lon="6.50295">
        <ele>1873</ele>
        <time>2025-06-05T14:04:20Z</time>
      </trkpt>
      <trkpt lat="45.74801" lon="6.50289">
        <ele>1875</ele>
        <time>2025-06-05T14:04:23Z</time>
      </trkpt>
      <trkpt lat="45.7479" lon="6.50283">
        <ele>1877</ele>
        <time>2025-06-05T14:04:26Z</time>
      </trkpt>
      <trkpt lat="45.74782" lon="6.50272">
        <ele>1877</ele>
        <time>2025-06-05T14:04:28Z</time>
      </trkpt>
      <trkpt lat="45.74769" lon="6.50238">
        <ele>1875</ele>
        <time>2025-06-05T14:04:35Z</time>
      </trkpt>
      <trkpt lat="45.74757" lon="6.5022">
        <ele>1876</ele>
        <time>2025-06-05T14:04:39Z</time>
      </trkpt>
      <trkpt lat="45.74744" lon="6.50202">
        <ele>1876</ele>
        <time>2025-06-05T14:04:43Z</time>
      </trkpt>
      <trkpt lat="45.74722" lon="6.50188">
        <ele>1875</ele>
        <time>2025-06-05T14:04:49Z</time>
      </trkpt>
      <trkpt lat="45.74686" lon="6.50169">
        <ele>1873</ele>
        <time>2025-06-05T14:04:57Z</time>
      </trkpt>
      <trkpt lat="45.74666" lon="6.50165">
        <ele>1873</ele>
        <time>2025-06-05T14:05:02Z</time>
      </trkpt>
      <trkpt lat="45.74651" lon="6.50159">
        <ele>1872</ele>
        <time>2025-06-05T14:05:06Z</time>
      </trkpt>
      <trkpt lat="45.74644" lon="6.50149">
        <ele>1871</ele>
        <time>2025-06-05T14:05:08Z</time>
      </trkpt>
      <trkpt lat="45.74635" lon="6.50137">
        <ele>1869</ele>
        <time>2025-06-05T14:05:11Z</time>
      </trkpt>
      <trkpt lat="45.74617" lon="6.50125">
        <ele>1867</ele>
        <time>2025-06-05T14:05:16Z</time>
      </trkpt>
      <trkpt lat="45.74601" lon="6.50117">
        <ele>1866</ele>
        <time>2025-06-05T14:05:20Z</time>
      </trkpt>
      <trkpt lat="45.74587" lon="6.50117">
        <ele>1866</ele>
        <time>2025-06-05T14:05:23Z</time>
      </trkpt>
      <trkpt lat="45.74565" lon="6.50122">
        <ele>1866</ele>
        <time>2025-06-05T14:05:28Z</time>
      </trkpt>
      <trkpt lat="45.7455" lon="6.50123">
        <ele>1866</ele>
        <time>2025-06-05T14:05:32Z</time>
      </trkpt>
      <trkpt lat="45.7454" lon="6.50121">
        <ele>1866</ele>
        <time>2025-06-05T14:05:34Z</time>
      </trkpt>
      <trkpt lat="45.74531" lon="6.50115">
        <ele>1865</ele>
        <time>2025-06-05T14:05:36Z</time>
      </trkpt>
      <trkpt lat="45.74524" lon="6.50105">
        <ele>1863</ele>
        <time>2025-06-05T14:05:39Z</time>
      </trkpt>
      <trkpt lat="45.74518" lon="6.50094">
        <ele>1862</ele>
        <time>2025-06-05T14:05:41Z</time>
      </trkpt>
      <trkpt lat="45.74514" lon="6.50077">
        <ele>1860</ele>
        <time>2025-06-05T14:05:44Z</time>
      </trkpt>
      <trkpt lat="45.74513" lon="6.50073">
        <ele>1859</ele>
        <time>2025-06-05T14:05:44Z</time>
      </trkpt>
      <trkpt lat="45.74513" lon="6.50028">
        <ele>1852</ele>
        <time>2025-06-05T14:05:52Z</time>
      </trkpt>
      <trkpt lat="45.74513" lon="6.50011">
        <ele>1849</ele>
        <time>2025-06-05T14:05:55Z</time>
      </trkpt>
      <trkpt lat="45.74511" lon="6.49999">
        <ele>1848</ele>
        <time>2025-06-05T14:05:57Z</time>
      </trkpt>
      <trkpt lat="45.74503" lon="6.49968">
        <ele>1845</ele>
        <time>2025-06-05T14:06:02Z</time>
      </trkpt>
      <trkpt lat="45.74494" lon="6.49932">
        <ele>1841</ele>
        <time>2025-06-05T14:06:08Z</time>
      </trkpt>
      <trkpt lat="45.74489" lon="6.49898">
        <ele>1837</ele>
        <time>2025-06-05T14:06:14Z</time>
      </trkpt>
      <trkpt lat="45.74481" lon="6.4987">
        <ele>1835</ele>
        <time>2025-06-05T14:06:19Z</time>
      </trkpt>
      <trkpt lat="45.7447" lon="6.49851">
        <ele>1834</ele>
        <time>2025-06-05T14:06:23Z</time>
      </trkpt>
      <trkpt lat="45.74455" lon="6.49827">
        <ele>1833</ele>
        <time>2025-06-05T14:06:28Z</time>
      </trkpt>
      <trkpt lat="45.7445" lon="6.49817">
        <ele>1832</ele>
        <time>2025-06-05T14:06:30Z</time>
      </trkpt>
      <trkpt lat="45.74463" lon="6.49804">
        <ele>1828</ele>
        <time>2025-06-05T14:06:34Z</time>
      </trkpt>
      <trkpt lat="45.74477" lon="6.49807">
        <ele>1826</ele>
        <time>2025-06-05T14:06:37Z</time>
      </trkpt>
      <trkpt lat="45.74486" lon="6.49822">
        <ele>1828</ele>
        <time>2025-06-05T14:06:40Z</time>
      </trkpt>
      <trkpt lat="45.74491" lon="6.49811">
        <ele>1825</ele>
        <time>2025-06-05T14:06:42Z</time>
      </trkpt>
      <trkpt lat="45.745" lon="6.49817">
        <ele>1825</ele>
        <time>2025-06-05T14:06:45Z</time>
      </trkpt>
      <trkpt lat="45.74502" lon="6.49812">
        <ele>1824</ele>
        <time>2025-06-05T14:06:46Z</time>
      </trkpt>
      <trkpt lat="45.74488" lon="6.49784">
        <ele>1820</ele>
        <time>2025-06-05T14:06:51Z</time>
      </trkpt>
      <trkpt lat="45.74442" lon="6.49754">
        <ele>1823</ele>
        <time>2025-06-05T14:07:03Z</time>
      </trkpt>
      <trkpt lat="45.74426" lon="6.49726">
        <ele>1824</ele>
        <time>2025-06-05T14:07:09Z</time>
      </trkpt>
      <trkpt lat="45.74407" lon="6.49703">
        <ele>1826</ele>
        <time>2025-06-05T14:07:15Z</time>
      </trkpt>
      <trkpt lat="45.74409" lon="6.4969">
        <ele>1825</ele>
        <time>2025-06-05T14:07:17Z</time>
      </trkpt>
      <trkpt lat="45.74407" lon="6.49684">
        <ele>1825</ele>
        <time>2025-06-05T14:07:18Z</time>
      </trkpt>
      <trkpt lat="45.74404" lon="6.4965">
        <ele>1823</ele>
        <time>2025-06-05T14:07:24Z</time>
      </trkpt>
      <trkpt lat="45.74406" lon="6.49631">
        <ele>1821</ele>
        <time>2025-06-05T14:07:27Z</time>
      </trkpt>
      <trkpt lat="45.74394" lon="6.49616">
        <ele>1820</ele>
        <time>2025-06-05T14:07:31Z</time>
      </trkpt>
      <trkpt lat="45.74374" lon="6.49603">
        <ele>1820</ele>
        <time>2025-06-05T14:07:36Z</time>
      </trkpt>
      <trkpt lat="45.74362" lon="6.49591">
        <ele>1820</ele>
        <time>2025-06-05T14:07:39Z</time>
      </trkpt>
      <trkpt lat="45.74357" lon="6.49567">
        <ele>1818</ele>
        <time>2025-06-05T14:07:43Z</time>
      </trkpt>
      <trkpt lat="45.74349" lon="6.49546">
        <ele>1816</ele>
        <time>2025-06-05T14:07:47Z</time>
      </trkpt>
      <trkpt lat="45.74342" lon="6.49537">
        <ele>1816</ele>
        <time>2025-06-05T14:07:49Z</time>
      </trkpt>
      <trkpt lat="45.74334" lon="6.49536">
        <ele>1817</ele>
        <time>2025-06-05T14:07:51Z</time>
      </trkpt>
      <trkpt lat="45.74332" lon="6.49532">
        <ele>1816</ele>
        <time>2025-06-05T14:07:52Z</time>
      </trkpt>
      <trkpt lat="45.74323" lon="6.49517">
        <ele>1815</ele>
        <time>2025-06-05T14:07:55Z</time>
      </trkpt>
      <trkpt lat="45.74294" lon="6.49484">
        <ele>1812</ele>
        <time>2025-06-05T14:08:04Z</time>
      </trkpt>
      <trkpt lat="45.74289" lon="6.49507">
        <ele>1814</ele>
        <time>2025-06-05T14:08:08Z</time>
      </trkpt>
      <trkpt lat="45.74283" lon="6.49513">
        <ele>1814</ele>
        <time>2025-06-05T14:08:09Z</time>
      </trkpt>
      <trkpt lat="45.74284" lon="6.49505">
        <ele>1814</ele>
        <time>2025-06-05T14:08:11Z</time>
      </trkpt>
      <trkpt lat="45.74262" lon="6.4948">
        <ele>1813</ele>
        <time>2025-06-05T14:08:17Z</time>
      </trkpt>
      <trkpt lat="45.74256" lon="6.49463">
        <ele>1812</ele>
        <time>2025-06-05T14:08:20Z</time>
      </trkpt>
      <trkpt lat="45.74244" lon="6.49443">
        <ele>1811</ele>
        <time>2025-06-05T14:08:25Z</time>
      </trkpt>
      <trkpt lat="45.74244" lon="6.49404">
        <ele>1808</ele>
        <time>2025-06-05T14:08:31Z</time>
      </trkpt>
      <trkpt lat="45.74248" lon="6.49394">
        <ele>1807</ele>
        <time>2025-06-05T14:08:33Z</time>
      </trkpt>
      <trkpt lat="45.74243" lon="6.49376">
        <ele>1805</ele>
        <time>2025-06-05T14:08:36Z</time>
      </trkpt>
      <trkpt lat="45.74216" lon="6.4933">
        <ele>1801</ele>
        <time>2025-06-05T14:08:46Z</time>
      </trkpt>
      <trkpt lat="45.74206" lon="6.49322">
        <ele>1801</ele>
        <time>2025-06-05T14:08:49Z</time>
      </trkpt>
      <trkpt lat="45.74206" lon="6.49306">
        <ele>1798</ele>
        <time>2025-06-05T14:08:51Z</time>
      </trkpt>
      <trkpt lat="45.74194" lon="6.49282">
        <ele>1797</ele>
        <time>2025-06-05T14:08:56Z</time>
      </trkpt>
      <trkpt lat="45.74175" lon="6.49275">
        <ele>1799</ele>
        <time>2025-06-05T14:09:01Z</time>
      </trkpt>
      <trkpt lat="45.7417" lon="6.49272">
        <ele>1800</ele>
        <time>2025-06-05T14:09:02Z</time>
      </trkpt>
      <trkpt lat="45.74161" lon="6.49267">
        <ele>1800</ele>
        <time>2025-06-05T14:09:04Z</time>
      </trkpt>
      <trkpt lat="45.74152" lon="6.49272">
        <ele>1799</ele>
        <time>2025-06-05T14:09:06Z</time>
      </trkpt>
      <trkpt lat="45.74149" lon="6.49289">
        <ele>1800</ele>
        <time>2025-06-05T14:09:09Z</time>
      </trkpt>
      <trkpt lat="45.74155" lon="6.49309">
        <ele>1801</ele>
        <time>2025-06-05T14:09:13Z</time>
      </trkpt>
      <trkpt lat="45.74154" lon="6.49321">
        <ele>1802</ele>
        <time>2025-06-05T14:09:15Z</time>
      </trkpt>
      <trkpt lat="45.74147" lon="6.49337">
        <ele>1801</ele>
        <time>2025-06-05T14:09:18Z</time>
      </trkpt>
      <trkpt lat="45.74143" lon="6.49377">
        <ele>1798</ele>
        <time>2025-06-05T14:09:24Z</time>
      </trkpt>
      <trkpt lat="45.74137" lon="6.49377">
        <ele>1797</ele>
        <time>2025-06-05T14:09:26Z</time>
      </trkpt>
      <trkpt lat="45.74126" lon="6.49362">
        <ele>1796</ele>
        <time>2025-06-05T14:09:29Z</time>
      </trkpt>
      <trkpt lat="45.74108" lon="6.49348">
        <ele>1793</ele>
        <time>2025-06-05T14:09:34Z</time>
      </trkpt>
      <trkpt lat="45.74094" lon="6.49324">
        <ele>1792</ele>
        <time>2025-06-05T14:09:39Z</time>
      </trkpt>
      <trkpt lat="45.74092" lon="6.49346">
        <ele>1790</ele>
        <time>2025-06-05T14:09:43Z</time>
      </trkpt>
      <trkpt lat="45.74097" lon="6.4935">
        <ele>1791</ele>
        <time>2025-06-05T14:09:44Z</time>
      </trkpt>
      <trkpt lat="45.74085" lon="6.49355">
        <ele>1788</ele>
        <time>2025-06-05T14:09:47Z</time>
      </trkpt>
      <trkpt lat="45.74072" lon="6.49355">
        <ele>1783</ele>
        <time>2025-06-05T14:09:50Z</time>
      </trkpt>
      <trkpt lat="45.74024" lon="6.49303">
        <ele>1774</ele>
        <time>2025-06-05T14:10:04Z</time>
      </trkpt>
      <trkpt lat="45.73976" lon="6.49223">
        <ele>1769</ele>
        <time>2025-06-05T14:10:21Z</time>
      </trkpt>
      <trkpt lat="45.73962" lon="6.49194">
        <ele>1768</ele>
        <time>2025-06-05T14:10:27Z</time>
      </trkpt>
      <trkpt lat="45.73949" lon="6.49153">
        <ele>1770</ele>
        <time>2025-06-05T14:10:34Z</time>
      </trkpt>
      <trkpt lat="45.73934" lon="6.49128">
        <ele>1768</ele>
        <time>2025-06-05T14:10:40Z</time>
      </trkpt>
      <trkpt lat="45.73919" lon="6.49117">
        <ele>1765</ele>
        <time>2025-06-05T14:10:44Z</time>
      </trkpt>
      <trkpt lat="45.73915" lon="6.49156">
        <ele>1757</ele>
        <time>2025-06-05T14:10:50Z</time>
      </trkpt>
      <trkpt lat="45.73916" lon="6.49199">
        <ele>1749</ele>
        <time>2025-06-05T14:10:57Z</time>
      </trkpt>
      <trkpt lat="45.73868" lon="6.49161">
        <ele>1738</ele>
        <time>2025-06-05T14:11:10Z</time>
      </trkpt>
      <trkpt lat="45.73836" lon="6.49143">
        <ele>1729</ele>
        <time>2025-06-05T14:11:18Z</time>
      </trkpt>
      <trkpt lat="45.73854" lon="6.49212">
        <ele>1722</ele>
        <time>2025-06-05T14:11:30Z</time>
      </trkpt>
      <trkpt lat="45.73888" lon="6.4926">
        <ele>1726</ele>
        <time>2025-06-05T14:11:41Z</time>
      </trkpt>
      <trkpt lat="45.73901" lon="6.49309">
        <ele>1719</ele>
        <time>2025-06-05T14:11:50Z</time>
      </trkpt>
      <trkpt lat="45.73899" lon="6.4935">
        <ele>1710</ele>
        <time>2025-06-05T14:11:56Z</time>
      </trkpt>
      <trkpt lat="45.73927" lon="6.49415">
        <ele>1710</ele>
        <time>2025-06-05T14:12:09Z</time>
      </trkpt>
      <trkpt lat="45.73912" lon="6.4946">
        <ele>1699</ele>
        <time>2025-06-05T14:12:17Z</time>
      </trkpt>
      <trkpt lat="45.73868" lon="6.49478">
        <ele>1682</ele>
        <time>2025-06-05T14:12:28Z</time>
      </trkpt>
      <trkpt lat="45.73864" lon="6.49476">
        <ele>1681</ele>
        <time>2025-06-05T14:12:29Z</time>
      </trkpt>
      <trkpt lat="45.73849" lon="6.49482">
        <ele>1675</ele>
        <time>2025-06-05T14:12:32Z</time>
      </trkpt>
      <trkpt lat="45.73842" lon="6.49482">
        <ele>1673</ele>
        <time>2025-06-05T14:12:34Z</time>
      </trkpt>
      <trkpt lat="45.73838" lon="6.49478">
        <ele>1672</ele>
        <time>2025-06-05T14:12:35Z</time>
      </trkpt>
      <trkpt lat="45.7383" lon="6.49468">
        <ele>1670</ele>
        <time>2025-06-05T14:12:38Z</time>
      </trkpt>
      <trkpt lat="45.73817" lon="6.49451">
        <ele>1668</ele>
        <time>2025-06-05T14:12:42Z</time>
      </trkpt>
      <trkpt lat="45.73803" lon="6.49442">
        <ele>1665</ele>
        <time>2025-06-05T14:12:45Z</time>
      </trkpt>
      <trkpt lat="45.73782" lon="6.49436">
        <ele>1660</ele>
        <time>2025-06-05T14:12:50Z</time>
      </trkpt>
      <trkpt lat="45.73751" lon="6.49425">
        <ele>1653</ele>
        <time>2025-06-05T14:12:58Z</time>
      </trkpt>
      <trkpt lat="45.73724" lon="6.4941">
        <ele>1651</ele>
        <time>2025-06-05T14:13:04Z</time>
      </trkpt>
      <trkpt lat="45.73711" lon="6.49407">
        <ele>1649</ele>
        <time>2025-06-05T14:13:08Z</time>
      </trkpt>
      <trkpt lat="45.73695" lon="6.49401">
        <ele>1648</ele>
        <time>2025-06-05T14:13:11Z</time>
      </trkpt>
      <trkpt lat="45.73685" lon="6.49402">
        <ele>1646</ele>
        <time>2025-06-05T14:13:14Z</time>
      </trkpt>
      <trkpt lat="45.73667" lon="6.49415">
        <ele>1640</ele>
        <time>2025-06-05T14:13:18Z</time>
      </trkpt>
      <trkpt lat="45.73645" lon="6.49436">
        <ele>1633</ele>
        <time>2025-06-05T14:13:25Z</time>
      </trkpt>
      <trkpt lat="45.73639" lon="6.4944">
        <ele>1631</ele>
        <time>2025-06-05T14:13:26Z</time>
      </trkpt>
      <trkpt lat="45.7363" lon="6.49445">
        <ele>1629</ele>
        <time>2025-06-05T14:13:28Z</time>
      </trkpt>
      <trkpt lat="45.73626" lon="6.49457">
        <ele>1626</ele>
        <time>2025-06-05T14:13:31Z</time>
      </trkpt>
      <trkpt lat="45.73623" lon="6.49474">
        <ele>1622</ele>
        <time>2025-06-05T14:13:33Z</time>
      </trkpt>
      <trkpt lat="45.73612" lon="6.49478">
        <ele>1619</ele>
        <time>2025-06-05T14:13:36Z</time>
      </trkpt>
      <trkpt lat="45.73602" lon="6.49503">
        <ele>1613</ele>
        <time>2025-06-05T14:13:41Z</time>
      </trkpt>
      <trkpt lat="45.73605" lon="6.49531">
        <ele>1609</ele>
        <time>2025-06-05T14:13:45Z</time>
      </trkpt>
      <trkpt lat="45.7362" lon="6.49579">
        <ele>1604</ele>
        <time>2025-06-05T14:13:54Z</time>
      </trkpt>
      <trkpt lat="45.73618" lon="6.49589">
        <ele>1602</ele>
        <time>2025-06-05T14:13:56Z</time>
      </trkpt>
      <trkpt lat="45.73616" lon="6.49602">
        <ele>1600</ele>
        <time>2025-06-05T14:13:58Z</time>
      </trkpt>
      <trkpt lat="45.7361" lon="6.49596">
        <ele>1600</ele>
        <time>2025-06-05T14:14:00Z</time>
      </trkpt>
      <trkpt lat="45.73602" lon="6.49586">
        <ele>1600</ele>
        <time>2025-06-05T14:14:02Z</time>
      </trkpt>
      <trkpt lat="45.73592" lon="6.49581">
        <ele>1599</ele>
        <time>2025-06-05T14:14:05Z</time>
      </trkpt>
      <trkpt lat="45.73579" lon="6.49568">
        <ele>1598</ele>
        <time>2025-06-05T14:14:08Z</time>
      </trkpt>
      <trkpt lat="45.73566" lon="6.49563">
        <ele>1594</ele>
        <time>2025-06-05T14:14:11Z</time>
      </trkpt>
      <trkpt lat="45.73561" lon="6.49558">
        <ele>1593</ele>
        <time>2025-06-05T14:14:13Z</time>
      </trkpt>
      <trkpt lat="45.73556" lon="6.49555">
        <ele>1592</ele>
        <time>2025-06-05T14:14:14Z</time>
      </trkpt>
      <trkpt lat="45.73549" lon="6.49547">
        <ele>1591</ele>
        <time>2025-06-05T14:14:16Z</time>
      </trkpt>
      <trkpt lat="45.73541" lon="6.49528">
        <ele>1590</ele>
        <time>2025-06-05T14:14:20Z</time>
      </trkpt>
      <trkpt lat="45.73535" lon="6.49516">
        <ele>1589</ele>
        <time>2025-06-05T14:14:22Z</time>
      </trkpt>
      <trkpt lat="45.7353" lon="6.49516">
        <ele>1587</ele>
        <time>2025-06-05T14:14:23Z</time>
      </trkpt>
      <trkpt lat="45.73515" lon="6.49513">
        <ele>1582</ele>
        <time>2025-06-05T14:14:27Z</time>
      </trkpt>
      <trkpt lat="45.7351" lon="6.49508">
        <ele>1580</ele>
        <time>2025-06-05T14:14:28Z</time>
      </trkpt>
      <trkpt lat="45.73488" lon="6.49461">
        <ele>1579</ele>
        <time>2025-06-05T14:14:38Z</time>
      </trkpt>
      <trkpt lat="45.73478" lon="6.49425">
        <ele>1580</ele>
        <time>2025-06-05T14:14:44Z</time>
      </trkpt>
      <trkpt lat="45.73464" lon="6.49407">
        <ele>1576</ele>
        <time>2025-06-05T14:14:48Z</time>
      </trkpt>
      <trkpt lat="45.73453" lon="6.49394">
        <ele>1574</ele>
        <time>2025-06-05T14:14:52Z</time>
      </trkpt>
      <trkpt lat="45.73447" lon="6.49391">
        <ele>1571</ele>
        <time>2025-06-05T14:14:53Z</time>
      </trkpt>
      <trkpt lat="45.73436" lon="6.49379">
        <ele>1568</ele>
        <time>2025-06-05T14:14:56Z</time>
      </trkpt>
      <trkpt lat="45.73434" lon="6.49366">
        <ele>1569</ele>
        <time>2025-06-05T14:14:58Z</time>
      </trkpt>
      <trkpt lat="45.7343" lon="6.49362">
        <ele>1568</ele>
        <time>2025-06-05T14:15:00Z</time>
      </trkpt>
      <trkpt lat="45.73426" lon="6.49364">
        <ele>1566</ele>
        <time>2025-06-05T14:15:01Z</time>
      </trkpt>
      <trkpt lat="45.73423" lon="6.49373">
        <ele>1563</ele>
        <time>2025-06-05T14:15:02Z</time>
      </trkpt>
      <trkpt lat="45.73428" lon="6.49423">
        <ele>1557</ele>
        <time>2025-06-05T14:15:10Z</time>
      </trkpt>
      <trkpt lat="45.73429" lon="6.49443">
        <ele>1556</ele>
        <time>2025-06-05T14:15:14Z</time>
      </trkpt>
      <trkpt lat="45.73426" lon="6.49459">
        <ele>1553</ele>
        <time>2025-06-05T14:15:16Z</time>
      </trkpt>
      <trkpt lat="45.73419" lon="6.4948">
        <ele>1549</ele>
        <time>2025-06-05T14:15:20Z</time>
      </trkpt>
      <trkpt lat="45.73413" lon="6.49492">
        <ele>1546</ele>
        <time>2025-06-05T14:15:23Z</time>
      </trkpt>
      <trkpt lat="45.73407" lon="6.49501">
        <ele>1542</ele>
        <time>2025-06-05T14:15:25Z</time>
      </trkpt>
      <trkpt lat="45.73402" lon="6.49515">
        <ele>1539</ele>
        <time>2025-06-05T14:15:27Z</time>
      </trkpt>
      <trkpt lat="45.73405" lon="6.49536">
        <ele>1539</ele>
        <time>2025-06-05T14:15:31Z</time>
      </trkpt>
      <trkpt lat="45.73401" lon="6.49575">
        <ele>1534</ele>
        <time>2025-06-05T14:15:37Z</time>
      </trkpt>
      <trkpt lat="45.73396" lon="6.49589">
        <ele>1530</ele>
        <time>2025-06-05T14:15:40Z</time>
      </trkpt>
      <trkpt lat="45.73394" lon="6.49603">
        <ele>1529</ele>
        <time>2025-06-05T14:15:42Z</time>
      </trkpt>
      <trkpt lat="45.73393" lon="6.49653">
        <ele>1528</ele>
        <time>2025-06-05T14:15:50Z</time>
      </trkpt>
      <trkpt lat="45.73395" lon="6.49676">
        <ele>1528</ele>
        <time>2025-06-05T14:15:54Z</time>
      </trkpt>
      <trkpt lat="45.734" lon="6.49692">
        <ele>1528</ele>
        <time>2025-06-05T14:15:57Z</time>
      </trkpt>
      <trkpt lat="45.73404" lon="6.49712">
        <ele>1528</ele>
        <time>2025-06-05T14:16:00Z</time>
      </trkpt>
      <trkpt lat="45.73409" lon="6.49727">
        <ele>1529</ele>
        <time>2025-06-05T14:16:03Z</time>
      </trkpt>
      <trkpt lat="45.73413" lon="6.49758">
        <ele>1527</ele>
        <time>2025-06-05T14:16:08Z</time>
      </trkpt>
      <trkpt lat="45.73426" lon="6.49795">
        <ele>1526</ele>
        <time>2025-06-05T14:16:15Z</time>
      </trkpt>
      <trkpt lat="45.73432" lon="6.49819">
        <ele>1525</ele>
        <time>2025-06-05T14:16:19Z</time>
      </trkpt>
      <trkpt lat="45.73433" lon="6.49829">
        <ele>1524</ele>
        <time>2025-06-05T14:16:21Z</time>
      </trkpt>
      <trkpt lat="45.73431" lon="6.49842">
        <ele>1522</ele>
        <time>2025-06-05T14:16:23Z</time>
      </trkpt>
      <trkpt lat="45.73428" lon="6.49859">
        <ele>1519</ele>
        <time>2025-06-05T14:16:26Z</time>
      </trkpt>
      <trkpt lat="45.73424" lon="6.49861">
        <ele>1518</ele>
        <time>2025-06-05T14:16:27Z</time>
      </trkpt>
      <trkpt lat="45.73418" lon="6.49866">
        <ele>1516</ele>
        <time>2025-06-05T14:16:28Z</time>
      </trkpt>
      <trkpt lat="45.73411" lon="6.49874">
        <ele>1512</ele>
        <time>2025-06-05T14:16:30Z</time>
      </trkpt>
      <trkpt lat="45.73393" lon="6.49915">
        <ele>1500</ele>
        <time>2025-06-05T14:16:38Z</time>
      </trkpt>
      <trkpt lat="45.7339" lon="6.49942">
        <ele>1496</ele>
        <time>2025-06-05T14:16:43Z</time>
      </trkpt>
      <trkpt lat="45.73387" lon="6.49985">
        <ele>1490</ele>
        <time>2025-06-05T14:16:50Z</time>
      </trkpt>
      <trkpt lat="45.73383" lon="6.4999">
        <ele>1488</ele>
        <time>2025-06-05T14:16:51Z</time>
      </trkpt>
      <trkpt lat="45.7337" lon="6.49987">
        <ele>1484</ele>
        <time>2025-06-05T14:16:54Z</time>
      </trkpt>
      <trkpt lat="45.73361" lon="6.49986">
        <ele>1481</ele>
        <time>2025-06-05T14:16:56Z</time>
      </trkpt>
      <trkpt lat="45.73353" lon="6.49989">
        <ele>1478</ele>
        <time>2025-06-05T14:16:58Z</time>
      </trkpt>
      <trkpt lat="45.73356" lon="6.50015">
        <ele>1476</ele>
        <time>2025-06-05T14:17:02Z</time>
      </trkpt>
      <trkpt lat="45.73355" lon="6.50026">
        <ele>1474</ele>
        <time>2025-06-05T14:17:04Z</time>
      </trkpt>
      <trkpt lat="45.73345" lon="6.50033">
        <ele>1470</ele>
        <time>2025-06-05T14:17:07Z</time>
      </trkpt>
      <trkpt lat="45.73325" lon="6.50039">
        <ele>1463</ele>
        <time>2025-06-05T14:17:12Z</time>
      </trkpt>
      <trkpt lat="45.73309" lon="6.50041">
        <ele>1457</ele>
        <time>2025-06-05T14:17:15Z</time>
      </trkpt>
      <trkpt lat="45.73298" lon="6.50038">
        <ele>1454</ele>
        <time>2025-06-05T14:17:18Z</time>
      </trkpt>
      <trkpt lat="45.73271" lon="6.50028">
        <ele>1446</ele>
        <time>2025-06-05T14:17:24Z</time>
      </trkpt>
      <trkpt lat="45.73258" lon="6.50025">
        <ele>1442</ele>
        <time>2025-06-05T14:17:28Z</time>
      </trkpt>
      <trkpt lat="45.7323" lon="6.50026">
        <ele>1432</ele>
        <time>2025-06-05T14:17:34Z</time>
      </trkpt>
      <trkpt lat="45.73217" lon="6.50024">
        <ele>1427</ele>
        <time>2025-06-05T14:17:37Z</time>
      </trkpt>
      <trkpt lat="45.73188" lon="6.5001">
        <ele>1418</ele>
        <time>2025-06-05T14:17:44Z</time>
      </trkpt>
      <trkpt lat="45.73181" lon="6.50011">
        <ele>1415</ele>
        <time>2025-06-05T14:17:46Z</time>
      </trkpt>
      <trkpt lat="45.73174" lon="6.50017">
        <ele>1412</ele>
        <time>2025-06-05T14:17:48Z</time>
      </trkpt>
      <trkpt lat="45.73164" lon="6.50035">
        <ele>1406</ele>
        <time>2025-06-05T14:17:52Z</time>
      </trkpt>
      <trkpt lat="45.73158" lon="6.50055">
        <ele>1401</ele>
        <time>2025-06-05T14:17:55Z</time>
      </trkpt>
      <trkpt lat="45.73157" lon="6.50063">
        <ele>1400</ele>
        <time>2025-06-05T14:17:56Z</time>
      </trkpt>
      <trkpt lat="45.73159" lon="6.50076">
        <ele>1400</ele>
        <time>2025-06-05T14:17:59Z</time>
      </trkpt>
      <trkpt lat="45.73161" lon="6.50101">
        <ele>1395</ele>
        <time>2025-06-05T14:18:03Z</time>
      </trkpt>
      <trkpt lat="45.73163" lon="6.50127">
        <ele>1388</ele>
        <time>2025-06-05T14:18:07Z</time>
      </trkpt>
      <trkpt lat="45.73168" lon="6.50138">
        <ele>1387</ele>
        <time>2025-06-05T14:18:09Z</time>
      </trkpt>
      <trkpt lat="45.73173" lon="6.50153">
        <ele>1384</ele>
        <time>2025-06-05T14:18:12Z</time>
      </trkpt>
      <trkpt lat="45.7318" lon="6.50205">
        <ele>1369</ele>
        <time>2025-06-05T14:18:20Z</time>
      </trkpt>
      <trkpt lat="45.73195" lon="6.5024">
        <ele>1362</ele>
        <time>2025-06-05T14:18:27Z</time>
      </trkpt>
      <trkpt lat="45.73205" lon="6.50274">
        <ele>1358</ele>
        <time>2025-06-05T14:18:33Z</time>
      </trkpt>
      <trkpt lat="45.73205" lon="6.50307">
        <ele>1353</ele>
        <time>2025-06-05T14:18:39Z</time>
      </trkpt>
      <trkpt lat="45.73205" lon="6.50306">
        <ele>1353</ele>
        <time>2025-06-05T14:18:39Z</time>
      </trkpt>
      <trkpt lat="45.73205" lon="6.50307">
        <ele>1353</ele>
        <time>2025-06-05T14:18:39Z</time>
      </trkpt>
      <trkpt lat="45.73209" lon="6.50316">
        <ele>1353</ele>
        <time>2025-06-05T14:18:41Z</time>
      </trkpt>
      <trkpt lat="45.73211" lon="6.50349">
        <ele>1348</ele>
        <time>2025-06-05T14:18:46Z</time>
      </trkpt>
      <trkpt lat="45.73214" lon="6.50391">
        <ele>1344</ele>
        <time>2025-06-05T14:18:53Z</time>
      </trkpt>
      <trkpt lat="45.73225" lon="6.50427">
        <ele>1342</ele>
        <time>2025-06-05T14:18:59Z</time>
      </trkpt>
      <trkpt lat="45.73223" lon="6.50486">
        <ele>1331</ele>
        <time>2025-06-05T14:19:09Z</time>
      </trkpt>
      <trkpt lat="45.73221" lon="6.50526">
        <ele>1324</ele>
        <time>2025-06-05T14:19:15Z</time>
      </trkpt>
      <trkpt lat="45.73228" lon="6.50561">
        <ele>1319</ele>
        <time>2025-06-05T14:19:21Z</time>
      </trkpt>
      <trkpt lat="45.73246" lon="6.50601">
        <ele>1314</ele>
        <time>2025-06-05T14:19:29Z</time>
      </trkpt>
      <trkpt lat="45.73261" lon="6.50626">
        <ele>1314</ele>
        <time>2025-06-05T14:19:35Z</time>
      </trkpt>
      <trkpt lat="45.73262" lon="6.50632">
        <ele>1314</ele>
        <time>2025-06-05T14:19:36Z</time>
      </trkpt>
      <trkpt lat="45.7326" lon="6.50635">
        <ele>1312</ele>
        <time>2025-06-05T14:19:36Z</time>
      </trkpt>
      <trkpt lat="45.73257" lon="6.50637">
        <ele>1311</ele>
        <time>2025-06-05T14:19:37Z</time>
      </trkpt>
      <trkpt lat="45.73236" lon="6.5064">
        <ele>1306</ele>
        <time>2025-06-05T14:19:42Z</time>
      </trkpt>
      <trkpt lat="45.73229" lon="6.50639">
        <ele>1306</ele>
        <time>2025-06-05T14:19:44Z</time>
      </trkpt>
      <trkpt lat="45.73236" lon="6.5064">
        <ele>1306</ele>
        <time>2025-06-05T14:19:45Z</time>
      </trkpt>
      <trkpt lat="45.73257" lon="6.50637">
        <ele>1311</ele>
        <time>2025-06-05T14:19:50Z</time>
      </trkpt>
      <trkpt lat="45.7326" lon="6.50635">
        <ele>1312</ele>
        <time>2025-06-05T14:19:51Z</time>
      </trkpt>
      <trkpt lat="45.73262" lon="6.50632">
        <ele>1314</ele>
        <time>2025-06-05T14:19:52Z</time>
      </trkpt>
      <trkpt lat="45.73272" lon="6.50645">
        <ele>1314</ele>
        <time>2025-06-05T14:19:55Z</time>
      </trkpt>
      <trkpt lat="45.73279" lon="6.50667">
        <ele>1312</ele>
        <time>2025-06-05T14:19:59Z</time>
      </trkpt>
      <trkpt lat="45.7329" lon="6.50679">
        <ele>1314</ele>
        <time>2025-06-05T14:20:02Z</time>
      </trkpt>
      <trkpt lat="45.73313" lon="6.50711">
        <ele>1316</ele>
        <time>2025-06-05T14:20:09Z</time>
      </trkpt>
      <trkpt lat="45.73326" lon="6.50737">
        <ele>1316</ele>
        <time>2025-06-05T14:20:15Z</time>
      </trkpt>
      <trkpt lat="45.73333" lon="6.50744">
        <ele>1317</ele>
        <time>2025-06-05T14:20:17Z</time>
      </trkpt>
      <trkpt lat="45.73343" lon="6.50743">
        <ele>1320</ele>
        <time>2025-06-05T14:20:19Z</time>
      </trkpt>
      <trkpt lat="45.73353" lon="6.50738">
        <ele>1325</ele>
        <time>2025-06-05T14:20:21Z</time>
      </trkpt>
      <trkpt lat="45.7336" lon="6.50742">
        <ele>1326</ele>
        <time>2025-06-05T14:20:23Z</time>
      </trkpt>
      <trkpt lat="45.73363" lon="6.50748">
        <ele>1326</ele>
        <time>2025-06-05T14:20:24Z</time>
      </trkpt>
      <trkpt lat="45.73362" lon="6.50756">
        <ele>1325</ele>
        <time>2025-06-05T14:20:26Z</time>
      </trkpt>
      <trkpt lat="45.73359" lon="6.50768">
        <ele>1324</ele>
        <time>2025-06-05T14:20:28Z</time>
      </trkpt>
      <trkpt lat="45.73359" lon="6.50781">
        <ele>1323</ele>
        <time>2025-06-05T14:20:30Z</time>
      </trkpt>
      <trkpt lat="45.73357" lon="6.50819">
        <ele>1320</ele>
        <time>2025-06-05T14:20:36Z</time>
      </trkpt>
      <trkpt lat="45.73377" lon="6.50861">
        <ele>1324</ele>
        <time>2025-06-05T14:20:44Z</time>
      </trkpt>
      <trkpt lat="45.73432" lon="6.50933">
        <ele>1335</ele>
        <time>2025-06-05T14:21:02Z</time>
      </trkpt>
      <trkpt lat="45.73487" lon="6.50954">
        <ele>1348</ele>
        <time>2025-06-05T14:21:15Z</time>
      </trkpt>
      <trkpt lat="45.7348" lon="6.50971">
        <ele>1343</ele>
        <time>2025-06-05T14:21:18Z</time>
      </trkpt>
      <trkpt lat="45.73457" lon="6.51025">
        <ele>1324</ele>
        <time>2025-06-05T14:21:29Z</time>
      </trkpt>
      <trkpt lat="45.73433" lon="6.51139">
        <ele>1310</ele>
        <time>2025-06-05T14:21:48Z</time>
      </trkpt>
      <trkpt lat="45.73427" lon="6.51201">
        <ele>1311</ele>
        <time>2025-06-05T14:21:58Z</time>
      </trkpt>
      <trkpt lat="45.73416" lon="6.51299">
        <ele>1309</ele>
        <time>2025-06-05T14:22:14Z</time>
      </trkpt>
      <trkpt lat="45.73401" lon="6.51345">
        <ele>1300</ele>
        <time>2025-06-05T14:22:23Z</time>
      </trkpt>
      <trkpt lat="45.73409" lon="6.51474">
        <ele>1291</ele>
        <time>2025-06-05T14:22:44Z</time>
      </trkpt>
      <trkpt lat="45.73419" lon="6.51511">
        <ele>1295</ele>
        <time>2025-06-05T14:22:50Z</time>
      </trkpt>
      <trkpt lat="45.73426" lon="6.51528">
        <ele>1298</ele>
        <time>2025-06-05T14:22:53Z</time>
      </trkpt>
      <trkpt lat="45.73441" lon="6.51594">
        <ele>1303</ele>
        <time>2025-06-05T14:23:05Z</time>
      </trkpt>
      <trkpt lat="45.73443" lon="6.51619">
        <ele>1301</ele>
        <time>2025-06-05T14:23:09Z</time>
      </trkpt>
      <trkpt lat="45.73453" lon="6.51677">
        <ele>1300</ele>
        <time>2025-06-05T14:23:19Z</time>
      </trkpt>
      <trkpt lat="45.73462" lon="6.51707">
        <ele>1302</ele>
        <time>2025-06-05T14:23:24Z</time>
      </trkpt>
      <trkpt lat="45.73469" lon="6.51738">
        <ele>1302</ele>
        <time>2025-06-05T14:23:29Z</time>
      </trkpt>
      <trkpt lat="45.73482" lon="6.51772">
        <ele>1308</ele>
        <time>2025-06-05T14:23:36Z</time>
      </trkpt>
      <trkpt lat="45.73484" lon="6.51787">
        <ele>1310</ele>
        <time>2025-06-05T14:23:38Z</time>
      </trkpt>
      <trkpt lat="45.73482" lon="6.51814">
        <ele>1308</ele>
        <time>2025-06-05T14:23:42Z</time>
      </trkpt>
      <trkpt lat="45.73484" lon="6.51845">
        <ele>1307</ele>
        <time>2025-06-05T14:23:48Z</time>
      </trkpt>
      <trkpt lat="45.73498" lon="6.51886">
        <ele>1308</ele>
        <time>2025-06-05T14:23:55Z</time>
      </trkpt>
      <trkpt lat="45.73497" lon="6.51924">
        <ele>1298</ele>
        <time>2025-06-05T14:24:01Z</time>
      </trkpt>
      <trkpt lat="45.73496" lon="6.51935">
        <ele>1294</ele>
        <time>2025-06-05T14:24:03Z</time>
      </trkpt>
      <trkpt lat="45.73497" lon="6.51957">
        <ele>1287</ele>
        <time>2025-06-05T14:24:07Z</time>
      </trkpt>
      <trkpt lat="45.73502" lon="6.51968">
        <ele>1284</ele>
        <time>2025-06-05T14:24:09Z</time>
      </trkpt>
      <trkpt lat="45.73516" lon="6.51975">
        <ele>1284</ele>
        <time>2025-06-05T14:24:12Z</time>
      </trkpt>
      <trkpt lat="45.73522" lon="6.51974">
        <ele>1285</ele>
        <time>2025-06-05T14:24:14Z</time>
      </trkpt>
      <trkpt lat="45.73524" lon="6.51974">
        <ele>1286</ele>
        <time>2025-06-05T14:24:14Z</time>
      </trkpt>
      <trkpt lat="45.73535" lon="6.51972">
        <ele>1288</ele>
        <time>2025-06-05T14:24:17Z</time>
      </trkpt>
      <trkpt lat="45.73548" lon="6.51979">
        <ele>1287</ele>
        <time>2025-06-05T14:24:20Z</time>
      </trkpt>
      <trkpt lat="45.7356" lon="6.51995">
        <ele>1281</ele>
        <time>2025-06-05T14:24:24Z</time>
      </trkpt>
      <trkpt lat="45.73573" lon="6.52032">
        <ele>1274</ele>
        <time>2025-06-05T14:24:30Z</time>
      </trkpt>
      <trkpt lat="45.73589" lon="6.52051">
        <ele>1274</ele>
        <time>2025-06-05T14:24:35Z</time>
      </trkpt>
      <trkpt lat="45.73637" lon="6.5208">
        <ele>1277</ele>
        <time>2025-06-05T14:24:47Z</time>
      </trkpt>
      <trkpt lat="45.73644" lon="6.52086">
        <ele>1277</ele>
        <time>2025-06-05T14:24:49Z</time>
      </trkpt>
      <trkpt lat="45.73649" lon="6.52094">
        <ele>1276</ele>
        <time>2025-06-05T14:24:51Z</time>
      </trkpt>
      <trkpt lat="45.73657" lon="6.5211">
        <ele>1276</ele>
        <time>2025-06-05T14:24:54Z</time>
      </trkpt>
      <trkpt lat="45.73679" lon="6.52134">
        <ele>1279</ele>
        <time>2025-06-05T14:25:01Z</time>
      </trkpt>
      <trkpt lat="45.73683" lon="6.52141">
        <ele>1279</ele>
        <time>2025-06-05T14:25:02Z</time>
      </trkpt>
      <trkpt lat="45.73684" lon="6.52146">
        <ele>1279</ele>
        <time>2025-06-05T14:25:03Z</time>
      </trkpt>
      <trkpt lat="45.737" lon="6.52155">
        <ele>1282</ele>
        <time>2025-06-05T14:25:07Z</time>
      </trkpt>
      <trkpt lat="45.73714" lon="6.52167">
        <ele>1283</ele>
        <time>2025-06-05T14:25:11Z</time>
      </trkpt>
      <trkpt lat="45.73743" lon="6.52192">
        <ele>1287</ele>
        <time>2025-06-05T14:25:19Z</time>
      </trkpt>
      <trkpt lat="45.73748" lon="6.52196">
        <ele>1287</ele>
        <time>2025-06-05T14:25:20Z</time>
      </trkpt>
      <trkpt lat="45.73762" lon="6.52205">
        <ele>1290</ele>
        <time>2025-06-05T14:25:24Z</time>
      </trkpt>
      <trkpt lat="45.73769" lon="6.52211">
        <ele>1292</ele>
        <time>2025-06-05T14:25:26Z</time>
      </trkpt>
      <trkpt lat="45.73776" lon="6.52221">
        <ele>1293</ele>
        <time>2025-06-05T14:25:28Z</time>
      </trkpt>
      <trkpt lat="45.73798" lon="6.52271">
        <ele>1295</ele>
        <time>2025-06-05T14:25:38Z</time>
      </trkpt>
      <trkpt lat="45.73804" lon="6.52291">
        <ele>1295</ele>
        <time>2025-06-05T14:25:41Z</time>
      </trkpt>
      <trkpt lat="45.73807" lon="6.52333">
        <ele>1292</ele>
        <time>2025-06-05T14:25:48Z</time>
      </trkpt>
      <trkpt lat="45.7381" lon="6.52346">
        <ele>1293</ele>
        <time>2025-06-05T14:25:50Z</time>
      </trkpt>
      <trkpt lat="45.73817" lon="6.52361">
        <ele>1295</ele>
        <time>2025-06-05T14:25:53Z</time>
      </trkpt>
      <trkpt lat="45.73823" lon="6.52373">
        <ele>1296</ele>
        <time>2025-06-05T14:25:56Z</time>
      </trkpt>
      <trkpt lat="45.73837" lon="6.52394">
        <ele>1300</ele>
        <time>2025-06-05T14:26:00Z</time>
      </trkpt>
      <trkpt lat="45.73876" lon="6.52447">
        <ele>1317</ele>
        <time>2025-06-05T14:26:13Z</time>
      </trkpt>
      <trkpt lat="45.73883" lon="6.52458">
        <ele>1320</ele>
        <time>2025-06-05T14:26:15Z</time>
      </trkpt>
      <trkpt lat="45.73889" lon="6.5247">
        <ele>1323</ele>
        <time>2025-06-05T14:26:18Z</time>
      </trkpt>
      <trkpt lat="45.73892" lon="6.52486">
        <ele>1325</ele>
        <time>2025-06-05T14:26:20Z</time>
      </trkpt>
      <trkpt lat="45.73892" lon="6.52494">
        <ele>1325</ele>
        <time>2025-06-05T14:26:22Z</time>
      </trkpt>
      <trkpt lat="45.73895" lon="6.52549">
        <ele>1324</ele>
        <time>2025-06-05T14:26:31Z</time>
      </trkpt>
      <trkpt lat="45.739" lon="6.52603">
        <ele>1323</ele>
        <time>2025-06-05T14:26:40Z</time>
      </trkpt>
      <trkpt lat="45.73903" lon="6.52618">
        <ele>1323</ele>
        <time>2025-06-05T14:26:42Z</time>
      </trkpt>
      <trkpt lat="45.73908" lon="6.52635">
        <ele>1324</ele>
        <time>2025-06-05T14:26:45Z</time>
      </trkpt>
      <trkpt lat="45.73915" lon="6.52653">
        <ele>1326</ele>
        <time>2025-06-05T14:26:49Z</time>
      </trkpt>
      <trkpt lat="45.73923" lon="6.52668">
        <ele>1328</ele>
        <time>2025-06-05T14:26:52Z</time>
      </trkpt>
      <trkpt lat="45.7393" lon="6.52677">
        <ele>1331</ele>
        <time>2025-06-05T14:26:54Z</time>
      </trkpt>
      <trkpt lat="45.73944" lon="6.52691">
        <ele>1337</ele>
        <time>2025-06-05T14:26:58Z</time>
      </trkpt>
      <trkpt lat="45.73952" lon="6.52702">
        <ele>1340</ele>
        <time>2025-06-05T14:27:00Z</time>
      </trkpt>
      <trkpt lat="45.73957" lon="6.52714">
        <ele>1341</ele>
        <time>2025-06-05T14:27:03Z</time>
      </trkpt>
      <trkpt lat="45.73961" lon="6.52726">
        <ele>1341</ele>
        <time>2025-06-05T14:27:05Z</time>
      </trkpt>
      <trkpt lat="45.73962" lon="6.52735">
        <ele>1341</ele>
        <time>2025-06-05T14:27:06Z</time>
      </trkpt>
      <trkpt lat="45.73963" lon="6.5275">
        <ele>1339</ele>
        <time>2025-06-05T14:27:09Z</time>
      </trkpt>
      <trkpt lat="45.73962" lon="6.5276">
        <ele>1337</ele>
        <time>2025-06-05T14:27:10Z</time>
      </trkpt>
      <trkpt lat="45.73961" lon="6.52778">
        <ele>1334</ele>
        <time>2025-06-05T14:27:13Z</time>
      </trkpt>
      <trkpt lat="45.73964" lon="6.528">
        <ele>1333</ele>
        <time>2025-06-05T14:27:17Z</time>
      </trkpt>
      <trkpt lat="45.73975" lon="6.52839">
        <ele>1332</ele>
        <time>2025-06-05T14:27:24Z</time>
      </trkpt>
      <trkpt lat="45.73978" lon="6.52845">
        <ele>1332</ele>
        <time>2025-06-05T14:27:25Z</time>
      </trkpt>
      <trkpt lat="45.73981" lon="6.52848">
        <ele>1333</ele>
        <time>2025-06-05T14:27:26Z</time>
      </trkpt>
      <trkpt lat="45.73983" lon="6.52849">
        <ele>1334</ele>
        <time>2025-06-05T14:27:26Z</time>
      </trkpt>
      <trkpt lat="45.73985" lon="6.52858">
        <ele>1333</ele>
        <time>2025-06-05T14:27:28Z</time>
      </trkpt>
      <trkpt lat="45.73986" lon="6.52861">
        <ele>1333</ele>
        <time>2025-06-05T14:27:29Z</time>
      </trkpt>
      <trkpt lat="45.73988" lon="6.52865">
        <ele>1333</ele>
        <time>2025-06-05T14:27:29Z</time>
      </trkpt>
      <trkpt lat="45.74006" lon="6.52888">
        <ele>1336</ele>
        <time>2025-06-05T14:27:35Z</time>
      </trkpt>
      <trkpt lat="45.74037" lon="6.52911">
        <ele>1340</ele>
        <time>2025-06-05T14:27:43Z</time>
      </trkpt>
      <trkpt lat="45.74048" lon="6.52917">
        <ele>1342</ele>
        <time>2025-06-05T14:27:46Z</time>
      </trkpt>
      <trkpt lat="45.7406" lon="6.52922">
        <ele>1344</ele>
        <time>2025-06-05T14:27:49Z</time>
      </trkpt>
      <trkpt lat="45.74086" lon="6.52928">
        <ele>1351</ele>
        <time>2025-06-05T14:27:55Z</time>
      </trkpt>
      <trkpt lat="45.74098" lon="6.52933">
        <ele>1356</ele>
        <time>2025-06-05T14:27:58Z</time>
      </trkpt>
      <trkpt lat="45.74113" lon="6.5294">
        <ele>1361</ele>
        <time>2025-06-05T14:28:02Z</time>
      </trkpt>
      <trkpt lat="45.74127" lon="6.52949">
        <ele>1366</ele>
        <time>2025-06-05T14:28:05Z</time>
      </trkpt>
      <trkpt lat="45.74133" lon="6.52956">
        <ele>1367</ele>
        <time>2025-06-05T14:28:07Z</time>
      </trkpt>
      <trkpt lat="45.74137" lon="6.52963">
        <ele>1367</ele>
        <time>2025-06-05T14:28:08Z</time>
      </trkpt>
      <trkpt lat="45.74138" lon="6.52971">
        <ele>1366</ele>
        <time>2025-06-05T14:28:10Z</time>
      </trkpt>
      <trkpt lat="45.74136" lon="6.52988">
        <ele>1361</ele>
        <time>2025-06-05T14:28:13Z</time>
      </trkpt>
      <trkpt lat="45.74131" lon="6.53006">
        <ele>1356</ele>
        <time>2025-06-05T14:28:16Z</time>
      </trkpt>
      <trkpt lat="45.74129" lon="6.53023">
        <ele>1355</ele>
        <time>2025-06-05T14:28:18Z</time>
      </trkpt>
      <trkpt lat="45.74128" lon="6.53052">
        <ele>1353</ele>
        <time>2025-06-05T14:28:23Z</time>
      </trkpt>
      <trkpt lat="45.74128" lon="6.53064">
        <ele>1353</ele>
        <time>2025-06-05T14:28:25Z</time>
      </trkpt>
      <trkpt lat="45.7413" lon="6.53069">
        <ele>1354</ele>
        <time>2025-06-05T14:28:26Z</time>
      </trkpt>
      <trkpt lat="45.74133" lon="6.53076">
        <ele>1355</ele>
        <time>2025-06-05T14:28:27Z</time>
      </trkpt>
      <trkpt lat="45.74162" lon="6.53094">
        <ele>1365</ele>
        <time>2025-06-05T14:28:35Z</time>
      </trkpt>
      <trkpt lat="45.74167" lon="6.53099">
        <ele>1367</ele>
        <time>2025-06-05T14:28:36Z</time>
      </trkpt>
      <trkpt lat="45.74174" lon="6.53114">
        <ele>1372</ele>
        <time>2025-06-05T14:28:39Z</time>
      </trkpt>
      <trkpt lat="45.74177" lon="6.53119">
        <ele>1374</ele>
        <time>2025-06-05T14:28:40Z</time>
      </trkpt>
      <trkpt lat="45.74179" lon="6.53121">
        <ele>1375</ele>
        <time>2025-06-05T14:28:41Z</time>
      </trkpt>
      <trkpt lat="45.74184" lon="6.53121">
        <ele>1378</ele>
        <time>2025-06-05T14:28:42Z</time>
      </trkpt>
      <trkpt lat="45.74188" lon="6.53116">
        <ele>1380</ele>
        <time>2025-06-05T14:28:43Z</time>
      </trkpt>
      <trkpt lat="45.74188" lon="6.53112">
        <ele>1379</ele>
        <time>2025-06-05T14:28:44Z</time>
      </trkpt>
      <trkpt lat="45.74188" lon="6.53108">
        <ele>1379</ele>
        <time>2025-06-05T14:28:45Z</time>
      </trkpt>
      <trkpt lat="45.74186" lon="6.53104">
        <ele>1378</ele>
        <time>2025-06-05T14:28:45Z</time>
      </trkpt>
      <trkpt lat="45.74176" lon="6.53086">
        <ele>1372</ele>
        <time>2025-06-05T14:28:49Z</time>
      </trkpt>
      <trkpt lat="45.74171" lon="6.53072">
        <ele>1369</ele>
        <time>2025-06-05T14:28:52Z</time>
      </trkpt>
      <trkpt lat="45.74167" lon="6.53043">
        <ele>1369</ele>
        <time>2025-06-05T14:28:56Z</time>
      </trkpt>
      <trkpt lat="45.74168" lon="6.53032">
        <ele>1370</ele>
        <time>2025-06-05T14:28:58Z</time>
      </trkpt>
      <trkpt lat="45.74169" lon="6.53021">
        <ele>1371</ele>
        <time>2025-06-05T14:29:00Z</time>
      </trkpt>
      <trkpt lat="45.74182" lon="6.52958">
        <ele>1391</ele>
        <time>2025-06-05T14:29:11Z</time>
      </trkpt>
      <trkpt lat="45.74183" lon="6.52947">
        <ele>1394</ele>
        <time>2025-06-05T14:29:13Z</time>
      </trkpt>
      <trkpt lat="45.74182" lon="6.52939">
        <ele>1396</ele>
        <time>2025-06-05T14:29:14Z</time>
      </trkpt>
      <trkpt lat="45.74181" lon="6.52931">
        <ele>1397</ele>
        <time>2025-06-05T14:29:15Z</time>
      </trkpt>
      <trkpt lat="45.74179" lon="6.52922">
        <ele>1398</ele>
        <time>2025-06-05T14:29:17Z</time>
      </trkpt>
      <trkpt lat="45.74171" lon="6.52904">
        <ele>1397</ele>
        <time>2025-06-05T14:29:20Z</time>
      </trkpt>
      <trkpt lat="45.74165" lon="6.52898">
        <ele>1395</ele>
        <time>2025-06-05T14:29:22Z</time>
      </trkpt>
      <trkpt lat="45.74159" lon="6.52892">
        <ele>1394</ele>
        <time>2025-06-05T14:29:24Z</time>
      </trkpt>
      <trkpt lat="45.7414" lon="6.52877">
        <ele>1389</ele>
        <time>2025-06-05T14:29:29Z</time>
      </trkpt>
      <trkpt lat="45.74123" lon="6.52857">
        <ele>1388</ele>
        <time>2025-06-05T14:29:34Z</time>
      </trkpt>
      <trkpt lat="45.74109" lon="6.52836">
        <ele>1388</ele>
        <time>2025-06-05T14:29:39Z</time>
      </trkpt>
      <trkpt lat="45.74105" lon="6.52828">
        <ele>1389</ele>
        <time>2025-06-05T14:29:40Z</time>
      </trkpt>
      <trkpt lat="45.74102" lon="6.52816">
        <ele>1390</ele>
        <time>2025-06-05T14:29:42Z</time>
      </trkpt>
      <trkpt lat="45.74091" lon="6.52771">
        <ele>1393</ele>
        <time>2025-06-05T14:29:50Z</time>
      </trkpt>
      <trkpt lat="45.7409" lon="6.52762">
        <ele>1394</ele>
        <time>2025-06-05T14:29:52Z</time>
      </trkpt>
      <trkpt lat="45.74091" lon="6.52756">
        <ele>1396</ele>
        <time>2025-06-05T14:29:53Z</time>
      </trkpt>
      <trkpt lat="45.74092" lon="6.52753">
        <ele>1397</ele>
        <time>2025-06-05T14:29:53Z</time>
      </trkpt>
      <trkpt lat="45.74094" lon="6.52751">
        <ele>1398</ele>
        <time>2025-06-05T14:29:54Z</time>
      </trkpt>
      <trkpt lat="45.74098" lon="6.52748">
        <ele>1400</ele>
        <time>2025-06-05T14:29:55Z</time>
      </trkpt>
      <trkpt lat="45.74102" lon="6.52748">
        <ele>1401</ele>
        <time>2025-06-05T14:29:56Z</time>
      </trkpt>
      <trkpt lat="45.74105" lon="6.52751">
        <ele>1402</ele>
        <time>2025-06-05T14:29:57Z</time>
      </trkpt>
      <trkpt lat="45.74108" lon="6.52757">
        <ele>1402</ele>
        <time>2025-06-05T14:29:58Z</time>
      </trkpt>
      <trkpt lat="45.74118" lon="6.52791">
        <ele>1400</ele>
        <time>2025-06-05T14:30:04Z</time>
      </trkpt>
      <trkpt lat="45.74122" lon="6.528">
        <ele>1400</ele>
        <time>2025-06-05T14:30:05Z</time>
      </trkpt>
      <trkpt lat="45.74127" lon="6.52808">
        <ele>1400</ele>
        <time>2025-06-05T14:30:07Z</time>
      </trkpt>
      <trkpt lat="45.7414" lon="6.52819">
        <ele>1403</ele>
        <time>2025-06-05T14:30:11Z</time>
      </trkpt>
      <trkpt lat="45.74155" lon="6.52826">
        <ele>1407</ele>
        <time>2025-06-05T14:30:14Z</time>
      </trkpt>
      <trkpt lat="45.74181" lon="6.52836">
        <ele>1415</ele>
        <time>2025-06-05T14:30:21Z</time>
      </trkpt>
      <trkpt lat="45.74203" lon="6.52847">
        <ele>1421</ele>
        <time>2025-06-05T14:30:26Z</time>
      </trkpt>
      <trkpt lat="45.74209" lon="6.52851">
        <ele>1423</ele>
        <time>2025-06-05T14:30:28Z</time>
      </trkpt>
      <trkpt lat="45.74214" lon="6.52856">
        <ele>1425</ele>
        <time>2025-06-05T14:30:29Z</time>
      </trkpt>
      <trkpt lat="45.74218" lon="6.52863">
        <ele>1426</ele>
        <time>2025-06-05T14:30:31Z</time>
      </trkpt>
      <trkpt lat="45.74224" lon="6.52879">
        <ele>1428</ele>
        <time>2025-06-05T14:30:34Z</time>
      </trkpt>
      <trkpt lat="45.74225" lon="6.52895">
        <ele>1427</ele>
        <time>2025-06-05T14:30:36Z</time>
      </trkpt>
      <trkpt lat="45.74224" lon="6.52929">
        <ele>1423</ele>
        <time>2025-06-05T14:30:42Z</time>
      </trkpt>
      <trkpt lat="45.74225" lon="6.52941">
        <ele>1421</ele>
        <time>2025-06-05T14:30:44Z</time>
      </trkpt>
      <trkpt lat="45.74228" lon="6.52952">
        <ele>1421</ele>
        <time>2025-06-05T14:30:46Z</time>
      </trkpt>
      <trkpt lat="45.74232" lon="6.52962">
        <ele>1422</ele>
        <time>2025-06-05T14:30:48Z</time>
      </trkpt>
      <trkpt lat="45.74236" lon="6.52969">
        <ele>1423</ele>
        <time>2025-06-05T14:30:49Z</time>
      </trkpt>
      <trkpt lat="45.7424" lon="6.52974">
        <ele>1425</ele>
        <time>2025-06-05T14:30:50Z</time>
      </trkpt>
      <trkpt lat="45.74243" lon="6.52976">
        <ele>1427</ele>
        <time>2025-06-05T14:30:51Z</time>
      </trkpt>
      <trkpt lat="45.74247" lon="6.52974">
        <ele>1430</ele>
        <time>2025-06-05T14:30:52Z</time>
      </trkpt>
      <trkpt lat="45.7425" lon="6.52983">
        <ele>1430</ele>
        <time>2025-06-05T14:30:54Z</time>
      </trkpt>
      <trkpt lat="45.74262" lon="6.53003">
        <ele>1436</ele>
        <time>2025-06-05T14:30:58Z</time>
      </trkpt>
      <trkpt lat="45.74271" lon="6.53014">
        <ele>1441</ele>
        <time>2025-06-05T14:31:01Z</time>
      </trkpt>
      <trkpt lat="45.74285" lon="6.53025">
        <ele>1449</ele>
        <time>2025-06-05T14:31:04Z</time>
      </trkpt>
      <trkpt lat="45.74305" lon="6.5305">
        <ele>1457</ele>
        <time>2025-06-05T14:31:11Z</time>
      </trkpt>
      <trkpt lat="45.74306" lon="6.53055">
        <ele>1457</ele>
        <time>2025-06-05T14:31:11Z</time>
      </trkpt>
      <trkpt lat="45.7431" lon="6.53067">
        <ele>1457</ele>
        <time>2025-06-05T14:31:14Z</time>
      </trkpt>
      <trkpt lat="45.74311" lon="6.53081">
        <ele>1454</ele>
        <time>2025-06-05T14:31:16Z</time>
      </trkpt>
      <trkpt lat="45.7431" lon="6.53101">
        <ele>1452</ele>
        <time>2025-06-05T14:31:19Z</time>
      </trkpt>
      <trkpt lat="45.74315" lon="6.53137">
        <ele>1453</ele>
        <time>2025-06-05T14:31:25Z</time>
      </trkpt>
      <trkpt lat="45.74333" lon="6.5317">
        <ele>1464</ele>
        <time>2025-06-05T14:31:32Z</time>
      </trkpt>
      <trkpt lat="45.74344" lon="6.53192">
        <ele>1471</ele>
        <time>2025-06-05T14:31:36Z</time>
      </trkpt>
      <trkpt lat="45.7435" lon="6.53226">
        <ele>1474</ele>
        <time>2025-06-05T14:31:42Z</time>
      </trkpt>
      <trkpt lat="45.74347" lon="6.53263">
        <ele>1470</ele>
        <time>2025-06-05T14:31:48Z</time>
      </trkpt>
      <trkpt lat="45.74335" lon="6.53307">
        <ele>1462</ele>
        <time>2025-06-05T14:31:56Z</time>
      </trkpt>
      <trkpt lat="45.74339" lon="6.53389">
        <ele>1475</ele>
        <time>2025-06-05T14:32:09Z</time>
      </trkpt>
      <trkpt lat="45.74327" lon="6.53448">
        <ele>1480</ele>
        <time>2025-06-05T14:32:19Z</time>
      </trkpt>
      <trkpt lat="45.74316" lon="6.53475">
        <ele>1478</ele>
        <time>2025-06-05T14:32:24Z</time>
      </trkpt>
      <trkpt lat="45.74307" lon="6.53497">
        <ele>1477</ele>
        <time>2025-06-05T14:32:29Z</time>
      </trkpt>
      <trkpt lat="45.74306" lon="6.53522">
        <ele>1482</ele>
        <time>2025-06-05T14:32:33Z</time>
      </trkpt>
      <trkpt lat="45.74297" lon="6.53557">
        <ele>1482</ele>
        <time>2025-06-05T14:32:39Z</time>
      </trkpt>
      <trkpt lat="45.74291" lon="6.5361">
        <ele>1491</ele>
        <time>2025-06-05T14:32:47Z</time>
      </trkpt>
      <trkpt lat="45.74291" lon="6.5366">
        <ele>1506</ele>
        <time>2025-06-05T14:32:56Z</time>
      </trkpt>
      <trkpt lat="45.7428" lon="6.53707">
        <ele>1513</ele>
        <time>2025-06-05T14:33:04Z</time>
      </trkpt>
      <trkpt lat="45.74255" lon="6.53765">
        <ele>1517</ele>
        <time>2025-06-05T14:33:15Z</time>
      </trkpt>
      <trkpt lat="45.74242" lon="6.53805">
        <ele>1522</ele>
        <time>2025-06-05T14:33:22Z</time>
      </trkpt>
      <trkpt lat="45.74202" lon="6.53877">
        <ele>1523</ele>
        <time>2025-06-05T14:33:37Z</time>
      </trkpt>
      <trkpt lat="45.74182" lon="6.53909">
        <ele>1523</ele>
        <time>2025-06-05T14:33:44Z</time>
      </trkpt>
      <trkpt lat="45.74159" lon="6.53945">
        <ele>1525</ele>
        <time>2025-06-05T14:33:52Z</time>
      </trkpt>
      <trkpt lat="45.74152" lon="6.5395">
        <ele>1522</ele>
        <time>2025-06-05T14:33:54Z</time>
      </trkpt>
      <trkpt lat="45.74147" lon="6.53978">
        <ele>1529</ele>
        <time>2025-06-05T14:33:58Z</time>
      </trkpt>
      <trkpt lat="45.74135" lon="6.53993">
        <ele>1527</ele>
        <time>2025-06-05T14:34:02Z</time>
      </trkpt>
      <trkpt lat="45.74135" lon="6.54005">
        <ele>1530</ele>
        <time>2025-06-05T14:34:04Z</time>
      </trkpt>
      <trkpt lat="45.74137" lon="6.54006">
        <ele>1532</ele>
        <time>2025-06-05T14:34:05Z</time>
      </trkpt>
      <trkpt lat="45.7414" lon="6.54009">
        <ele>1534</ele>
        <time>2025-06-05T14:34:06Z</time>
      </trkpt>
      <trkpt lat="45.7416" lon="6.54006">
        <ele>1545</ele>
        <time>2025-06-05T14:34:10Z</time>
      </trkpt>
      <trkpt lat="45.74197" lon="6.54003">
        <ele>1558</ele>
        <time>2025-06-05T14:34:19Z</time>
      </trkpt>
      <trkpt lat="45.74212" lon="6.53994">
        <ele>1561</ele>
        <time>2025-06-05T14:34:23Z</time>
      </trkpt>
      <trkpt lat="45.74219" lon="6.53996">
        <ele>1564</ele>
        <time>2025-06-05T14:34:24Z</time>
      </trkpt>
      <trkpt lat="45.74219" lon="6.54003">
        <ele>1566</ele>
        <time>2025-06-05T14:34:25Z</time>
      </trkpt>
      <trkpt lat="45.74219" lon="6.54005">
        <ele>1566</ele>
        <time>2025-06-05T14:34:26Z</time>
      </trkpt>
      <trkpt lat="45.74201" lon="6.5403">
        <ele>1567</ele>
        <time>2025-06-05T14:34:32Z</time>
      </trkpt>
      <trkpt lat="45.74195" lon="6.54044">
        <ele>1568</ele>
        <time>2025-06-05T14:34:34Z</time>
      </trkpt>
      <trkpt lat="45.74187" lon="6.54068">
        <ele>1572</ele>
        <time>2025-06-05T14:34:39Z</time>
      </trkpt>
      <trkpt lat="45.7417" lon="6.5408">
        <ele>1569</ele>
        <time>2025-06-05T14:34:43Z</time>
      </trkpt>
      <trkpt lat="45.74157" lon="6.54084">
        <ele>1564</ele>
        <time>2025-06-05T14:34:46Z</time>
      </trkpt>
      <trkpt lat="45.74149" lon="6.54096">
        <ele>1562</ele>
        <time>2025-06-05T14:34:49Z</time>
      </trkpt>
      <trkpt lat="45.74145" lon="6.5412">
        <ele>1563</ele>
        <time>2025-06-05T14:34:53Z</time>
      </trkpt>
      <trkpt lat="45.74129" lon="6.54158">
        <ele>1559</ele>
        <time>2025-06-05T14:35:00Z</time>
      </trkpt>
      <trkpt lat="45.74129" lon="6.54193">
        <ele>1561</ele>
        <time>2025-06-05T14:35:06Z</time>
      </trkpt>
      <trkpt lat="45.74132" lon="6.54218">
        <ele>1563</ele>
        <time>2025-06-05T14:35:10Z</time>
      </trkpt>
      <trkpt lat="45.74131" lon="6.54236">
        <ele>1563</ele>
        <time>2025-06-05T14:35:13Z</time>
      </trkpt>
      <trkpt lat="45.74142" lon="6.54277">
        <ele>1568</ele>
        <time>2025-06-05T14:35:20Z</time>
      </trkpt>
      <trkpt lat="45.74149" lon="6.54297">
        <ele>1570</ele>
        <time>2025-06-05T14:35:24Z</time>
      </trkpt>
      <trkpt lat="45.74154" lon="6.54304">
        <ele>1572</ele>
        <time>2025-06-05T14:35:25Z</time>
      </trkpt>
      <trkpt lat="45.74156" lon="6.54314">
        <ele>1573</ele>
        <time>2025-06-05T14:35:27Z</time>
      </trkpt>
      <trkpt lat="45.74153" lon="6.54335">
        <ele>1569</ele>
        <time>2025-06-05T14:35:31Z</time>
      </trkpt>
      <trkpt lat="45.74157" lon="6.54354">
        <ele>1569</ele>
        <time>2025-06-05T14:35:34Z</time>
      </trkpt>
      <trkpt lat="45.74167" lon="6.54366">
        <ele>1574</ele>
        <time>2025-06-05T14:35:37Z</time>
      </trkpt>
      <trkpt lat="45.74188" lon="6.54373">
        <ele>1578</ele>
        <time>2025-06-05T14:35:42Z</time>
      </trkpt>
      <trkpt lat="45.7421" lon="6.54375">
        <ele>1584</ele>
        <time>2025-06-05T14:35:47Z</time>
      </trkpt>
      <trkpt lat="45.74221" lon="6.54379">
        <ele>1586</ele>
        <time>2025-06-05T14:35:50Z</time>
      </trkpt>
      <trkpt lat="45.74236" lon="6.54392">
        <ele>1589</ele>
        <time>2025-06-05T14:35:54Z</time>
      </trkpt>
      <trkpt lat="45.7426" lon="6.54417">
        <ele>1591</ele>
        <time>2025-06-05T14:36:01Z</time>
      </trkpt>
      <trkpt lat="45.74282" lon="6.54424">
        <ele>1591</ele>
        <time>2025-06-05T14:36:06Z</time>
      </trkpt>
      <trkpt lat="45.74322" lon="6.54427">
        <ele>1593</ele>
        <time>2025-06-05T14:36:15Z</time>
      </trkpt>
      <trkpt lat="45.74403" lon="6.54448">
        <ele>1594</ele>
        <time>2025-06-05T14:36:35Z</time>
      </trkpt>
      <trkpt lat="45.74411" lon="6.54447">
        <ele>1594</ele>
        <time>2025-06-05T14:36:36Z</time>
      </trkpt>
      <trkpt lat="45.74441" lon="6.54441">
        <ele>1595</ele>
        <time>2025-06-05T14:36:43Z</time>
      </trkpt>
      <trkpt lat="45.74458" lon="6.54438">
        <ele>1596</ele>
        <time>2025-06-05T14:36:47Z</time>
      </trkpt>
      <trkpt lat="45.74484" lon="6.5443">
        <ele>1597</ele>
        <time>2025-06-05T14:36:54Z</time>
      </trkpt>
      <trkpt lat="45.745" lon="6.5442">
        <ele>1599</ele>
        <time>2025-06-05T14:36:58Z</time>
      </trkpt>
      <trkpt lat="45.74507" lon="6.54417">
        <ele>1600</ele>
        <time>2025-06-05T14:36:59Z</time>
      </trkpt>
      <trkpt lat="45.74516" lon="6.54417">
        <ele>1600</ele>
        <time>2025-06-05T14:37:02Z</time>
      </trkpt>
      <trkpt lat="45.74529" lon="6.5442">
        <ele>1599</ele>
        <time>2025-06-05T14:37:05Z</time>
      </trkpt>
      <trkpt lat="45.74533" lon="6.54419">
        <ele>1599</ele>
        <time>2025-06-05T14:37:06Z</time>
      </trkpt>
      <trkpt lat="45.74536" lon="6.54414">
        <ele>1600</ele>
        <time>2025-06-05T14:37:07Z</time>
      </trkpt>
      <trkpt lat="45.74536" lon="6.54408">
        <ele>1601</ele>
        <time>2025-06-05T14:37:08Z</time>
      </trkpt>
      <trkpt lat="45.7453" lon="6.54405">
        <ele>1601</ele>
        <time>2025-06-05T14:37:09Z</time>
      </trkpt>
      <trkpt lat="45.74514" lon="6.54401">
        <ele>1602</ele>
        <time>2025-06-05T14:37:13Z</time>
      </trkpt>
      <trkpt lat="45.74488" lon="6.54396">
        <ele>1603</ele>
        <time>2025-06-05T14:37:19Z</time>
      </trkpt>
      <trkpt lat="45.74467" lon="6.54384">
        <ele>1605</ele>
        <time>2025-06-05T14:37:24Z</time>
      </trkpt>
      <trkpt lat="45.74456" lon="6.5438">
        <ele>1605</ele>
        <time>2025-06-05T14:37:27Z</time>
      </trkpt>
      <trkpt lat="45.74446" lon="6.54366">
        <ele>1607</ele>
        <time>2025-06-05T14:37:30Z</time>
      </trkpt>
      <trkpt lat="45.74425" lon="6.54348">
        <ele>1609</ele>
        <time>2025-06-05T14:37:36Z</time>
      </trkpt>
      <trkpt lat="45.74414" lon="6.54331">
        <ele>1610</ele>
        <time>2025-06-05T14:37:40Z</time>
      </trkpt>
      <trkpt lat="45.74395" lon="6.54301">
        <ele>1614</ele>
        <time>2025-06-05T14:37:46Z</time>
      </trkpt>
      <trkpt lat="45.74381" lon="6.54267">
        <ele>1618</ele>
        <time>2025-06-05T14:37:53Z</time>
      </trkpt>
      <trkpt lat="45.74377" lon="6.54257">
        <ele>1619</ele>
        <time>2025-06-05T14:37:55Z</time>
      </trkpt>
      <trkpt lat="45.74348" lon="6.54211">
        <ele>1619</ele>
        <time>2025-06-05T14:38:05Z</time>
      </trkpt>
      <trkpt lat="45.74334" lon="6.5417">
        <ele>1620</ele>
        <time>2025-06-05T14:38:12Z</time>
      </trkpt>
      <trkpt lat="45.7433" lon="6.54155">
        <ele>1619</ele>
        <time>2025-06-05T14:38:15Z</time>
      </trkpt>
      <trkpt lat="45.74336" lon="6.54127">
        <ele>1620</ele>
        <time>2025-06-05T14:38:20Z</time>
      </trkpt>
      <trkpt lat="45.74339" lon="6.54124">
        <ele>1620</ele>
        <time>2025-06-05T14:38:20Z</time>
      </trkpt>
      <trkpt lat="45.74349" lon="6.54114">
        <ele>1622</ele>
        <time>2025-06-05T14:38:23Z</time>
      </trkpt>
      <trkpt lat="45.74368" lon="6.54119">
        <ele>1625</ele>
        <time>2025-06-05T14:38:28Z</time>
      </trkpt>
      <trkpt lat="45.74381" lon="6.54123">
        <ele>1627</ele>
        <time>2025-06-05T14:38:31Z</time>
      </trkpt>
      <trkpt lat="45.74404" lon="6.54169">
        <ele>1629</ele>
        <time>2025-06-05T14:38:40Z</time>
      </trkpt>
      <trkpt lat="45.74417" lon="6.54175">
        <ele>1630</ele>
        <time>2025-06-05T14:38:43Z</time>
      </trkpt>
      <trkpt lat="45.7444" lon="6.54175">
        <ele>1630</ele>
        <time>2025-06-05T14:38:49Z</time>
      </trkpt>
      <trkpt lat="45.74448" lon="6.54176">
        <ele>1629</ele>
        <time>2025-06-05T14:38:51Z</time>
      </trkpt>
      <trkpt lat="45.74469" lon="6.54179">
        <ele>1629</ele>
        <time>2025-06-05T14:38:55Z</time>
      </trkpt>
      <trkpt lat="45.74491" lon="6.54184">
        <ele>1627</ele>
        <time>2025-06-05T14:39:01Z</time>
      </trkpt>
      <trkpt lat="45.74512" lon="6.54183">
        <ele>1627</ele>
        <time>2025-06-05T14:39:06Z</time>
      </trkpt>
      <trkpt lat="45.74536" lon="6.54177">
        <ele>1628</ele>
        <time>2025-06-05T14:39:11Z</time>
      </trkpt>
      <trkpt lat="45.74576" lon="6.54168">
        <ele>1629</ele>
        <time>2025-06-05T14:39:21Z</time>
      </trkpt>
      <trkpt lat="45.74643" lon="6.54155">
        <ele>1632</ele>
        <time>2025-06-05T14:39:37Z</time>
      </trkpt>
      <trkpt lat="45.74648" lon="6.54161">
        <ele>1631</ele>
        <time>2025-06-05T14:39:38Z</time>
      </trkpt>
      <trkpt lat="45.74643" lon="6.54155">
        <ele>1632</ele>
        <time>2025-06-05T14:39:40Z</time>
      </trkpt>
      <trkpt lat="45.74588" lon="6.54099">
        <ele>1641</ele>
        <time>2025-06-05T14:39:55Z</time>
      </trkpt>
      <trkpt lat="45.74559" lon="6.54071">
        <ele>1645</ele>
        <time>2025-06-05T14:40:04Z</time>
      </trkpt>
      <trkpt lat="45.74547" lon="6.54055">
        <ele>1645</ele>
        <time>2025-06-05T14:40:07Z</time>
      </trkpt>
      <trkpt lat="45.74525" lon="6.54014">
        <ele>1648</ele>
        <time>2025-06-05T14:40:16Z</time>
      </trkpt>
      <trkpt lat="45.7452" lon="6.53993">
        <ele>1649</ele>
        <time>2025-06-05T14:40:19Z</time>
      </trkpt>
      <trkpt lat="45.74519" lon="6.53977">
        <ele>1650</ele>
        <time>2025-06-05T14:40:22Z</time>
      </trkpt>
      <trkpt lat="45.74519" lon="6.5396">
        <ele>1650</ele>
        <time>2025-06-05T14:40:25Z</time>
      </trkpt>
      <trkpt lat="45.74521" lon="6.53938">
        <ele>1651</ele>
        <time>2025-06-05T14:40:28Z</time>
      </trkpt>
      <trkpt lat="45.7453" lon="6.53888">
        <ele>1654</ele>
        <time>2025-06-05T14:40:37Z</time>
      </trkpt>
      <trkpt lat="45.74543" lon="6.53817">
        <ele>1658</ele>
        <time>2025-06-05T14:40:49Z</time>
      </trkpt>
      <trkpt lat="45.74548" lon="6.53799">
        <ele>1660</ele>
        <time>2025-06-05T14:40:52Z</time>
      </trkpt>
      <trkpt lat="45.74558" lon="6.53779">
        <ele>1662</ele>
        <time>2025-06-05T14:40:56Z</time>
      </trkpt>
      <trkpt lat="45.74607" lon="6.53711">
        <ele>1669</ele>
        <time>2025-06-05T14:41:12Z</time>
      </trkpt>
      <trkpt lat="45.74619" lon="6.53681">
        <ele>1670</ele>
        <time>2025-06-05T14:41:17Z</time>
      </trkpt>
      <trkpt lat="45.74626" lon="6.53655">
        <ele>1671</ele>
        <time>2025-06-05T14:41:22Z</time>
      </trkpt>
      <trkpt lat="45.74628" lon="6.53649">
        <ele>1671</ele>
        <time>2025-06-05T14:41:23Z</time>
      </trkpt>
      <trkpt lat="45.74626" lon="6.53655">
        <ele>1671</ele>
        <time>2025-06-05T14:41:24Z</time>
      </trkpt>
      <trkpt lat="45.74648" lon="6.53668">
        <ele>1669</ele>
        <time>2025-06-05T14:41:30Z</time>
      </trkpt>
      <trkpt lat="45.74673" lon="6.53676">
        <ele>1667</ele>
        <time>2025-06-05T14:41:36Z</time>
      </trkpt>
      <trkpt lat="45.74695" lon="6.53672">
        <ele>1665</ele>
        <time>2025-06-05T14:41:41Z</time>
      </trkpt>
      <trkpt lat="45.74715" lon="6.53665">
        <ele>1664</ele>
        <time>2025-06-05T14:41:46Z</time>
      </trkpt>
      <trkpt lat="45.74737" lon="6.53649">
        <ele>1664</ele>
        <time>2025-06-05T14:41:51Z</time>
      </trkpt>
      <trkpt lat="45.74761" lon="6.53637">
        <ele>1662</ele>
        <time>2025-06-05T14:41:57Z</time>
      </trkpt>
      <trkpt lat="45.74781" lon="6.53611">
        <ele>1662</ele>
        <time>2025-06-05T14:42:04Z</time>
      </trkpt>
      <trkpt lat="45.74797" lon="6.53595">
        <ele>1660</ele>
        <time>2025-06-05T14:42:08Z</time>
      </trkpt>
      <trkpt lat="45.74814" lon="6.53556">
        <ele>1662</ele>
        <time>2025-06-05T14:42:16Z</time>
      </trkpt>
      <trkpt lat="45.7487" lon="6.53466">
        <ele>1665</ele>
        <time>2025-06-05T14:42:35Z</time>
      </trkpt>
      <trkpt lat="45.7489" lon="6.53427">
        <ele>1667</ele>
        <time>2025-06-05T14:42:43Z</time>
      </trkpt>
      <trkpt lat="45.74898" lon="6.5342">
        <ele>1667</ele>
        <time>2025-06-05T14:42:46Z</time>
      </trkpt>
      <trkpt lat="45.74908" lon="6.53409">
        <ele>1668</ele>
        <time>2025-06-05T14:42:48Z</time>
      </trkpt>
      <trkpt lat="45.74961" lon="6.53352">
        <ele>1666</ele>
        <time>2025-06-05T14:43:04Z</time>
      </trkpt>
      <trkpt lat="45.74973" lon="6.5335">
        <ele>1664</ele>
        <time>2025-06-05T14:43:07Z</time>
      </trkpt>
      <trkpt lat="45.75013" lon="6.53355">
        <ele>1657</ele>
        <time>2025-06-05T14:43:16Z</time>
      </trkpt>
      <trkpt lat="45.75044" lon="6.53357">
        <ele>1653</ele>
        <time>2025-06-05T14:43:23Z</time>
      </trkpt>
      <trkpt lat="45.75053" lon="6.53358">
        <ele>1652</ele>
        <time>2025-06-05T14:43:25Z</time>
      </trkpt>
      <trkpt lat="45.75071" lon="6.53353">
        <ele>1650</ele>
        <time>2025-06-05T14:43:30Z</time>
      </trkpt>
      <trkpt lat="45.75075" lon="6.53352">
        <ele>1650</ele>
        <time>2025-06-05T14:43:31Z</time>
      </trkpt>
      <trkpt lat="45.75082" lon="6.53352">
        <ele>1649</ele>
        <time>2025-06-05T14:43:32Z</time>
      </trkpt>
      <trkpt lat="45.75089" lon="6.5335">
        <ele>1648</ele>
        <time>2025-06-05T14:43:34Z</time>
      </trkpt>
      <trkpt lat="45.75098" lon="6.53344">
        <ele>1648</ele>
        <time>2025-06-05T14:43:36Z</time>
      </trkpt>
      <trkpt lat="45.75116" lon="6.53338">
        <ele>1647</ele>
        <time>2025-06-05T14:43:41Z</time>
      </trkpt>
      <trkpt lat="45.75133" lon="6.53329">
        <ele>1646</ele>
        <time>2025-06-05T14:43:45Z</time>
      </trkpt>
      <trkpt lat="45.75158" lon="6.53321">
        <ele>1644</ele>
        <time>2025-06-05T14:43:51Z</time>
      </trkpt>
      <trkpt lat="45.75177" lon="6.53313">
        <ele>1642</ele>
        <time>2025-06-05T14:43:55Z</time>
      </trkpt>
      <trkpt lat="45.75226" lon="6.5329">
        <ele>1638</ele>
        <time>2025-06-05T14:44:08Z</time>
      </trkpt>
      <trkpt lat="45.75238" lon="6.53275">
        <ele>1637</ele>
        <time>2025-06-05T14:44:11Z</time>
      </trkpt>
      <trkpt lat="45.7526" lon="6.53259">
        <ele>1635</ele>
        <time>2025-06-05T14:44:17Z</time>
      </trkpt>
      <trkpt lat="45.75274" lon="6.53243">
        <ele>1634</ele>
        <time>2025-06-05T14:44:21Z</time>
      </trkpt>
      <trkpt lat="45.75284" lon="6.53235">
        <ele>1632</ele>
        <time>2025-06-05T14:44:24Z</time>
      </trkpt>
      <trkpt lat="45.7529" lon="6.53236">
        <ele>1632</ele>
        <time>2025-06-05T14:44:25Z</time>
      </trkpt>
      <trkpt lat="45.75304" lon="6.53245">
        <ele>1630</ele>
        <time>2025-06-05T14:44:29Z</time>
      </trkpt>
      <trkpt lat="45.75323" lon="6.53262">
        <ele>1628</ele>
        <time>2025-06-05T14:44:34Z</time>
      </trkpt>
      <trkpt lat="45.75342" lon="6.53277">
        <ele>1625</ele>
        <time>2025-06-05T14:44:39Z</time>
      </trkpt>
      <trkpt lat="45.7537" lon="6.53295">
        <ele>1622</ele>
        <time>2025-06-05T14:44:46Z</time>
      </trkpt>
      <trkpt lat="45.75395" lon="6.5331">
        <ele>1618</ele>
        <time>2025-06-05T14:44:53Z</time>
      </trkpt>
      <trkpt lat="45.75439" lon="6.53334">
        <ele>1614</ele>
        <time>2025-06-05T14:45:04Z</time>
      </trkpt>
      <trkpt lat="45.75454" lon="6.53341">
        <ele>1614</ele>
        <time>2025-06-05T14:45:07Z</time>
      </trkpt>
      <trkpt lat="45.75463" lon="6.53346">
        <ele>1614</ele>
        <time>2025-06-05T14:45:10Z</time>
      </trkpt>
      <trkpt lat="45.75466" lon="6.53331">
        <ele>1614</ele>
        <time>2025-06-05T14:45:12Z</time>
      </trkpt>
      <trkpt lat="45.75475" lon="6.5332">
        <ele>1614</ele>
        <time>2025-06-05T14:45:15Z</time>
      </trkpt>
      <trkpt lat="45.7548" lon="6.53309">
        <ele>1614</ele>
        <time>2025-06-05T14:45:17Z</time>
      </trkpt>
      <trkpt lat="45.75483" lon="6.53273">
        <ele>1614</ele>
        <time>2025-06-05T14:45:23Z</time>
      </trkpt>
      <trkpt lat="45.75485" lon="6.53259">
        <ele>1614</ele>
        <time>2025-06-05T14:45:25Z</time>
      </trkpt>
      <trkpt lat="45.75482" lon="6.53247">
        <ele>1614</ele>
        <time>2025-06-05T14:45:27Z</time>
      </trkpt>
      <trkpt lat="45.75483" lon="6.53235">
        <ele>1614</ele>
        <time>2025-06-05T14:45:29Z</time>
      </trkpt>
      <trkpt lat="45.75485" lon="6.53222">
        <ele>1615</ele>
        <time>2025-06-05T14:45:31Z</time>
      </trkpt>
      <trkpt lat="45.75503" lon="6.53187">
        <ele>1615</ele>
        <time>2025-06-05T14:45:39Z</time>
      </trkpt>
      <trkpt lat="45.75526" lon="6.53168">
        <ele>1616</ele>
        <time>2025-06-05T14:45:45Z</time>
      </trkpt>
      <trkpt lat="45.75555" lon="6.5314">
        <ele>1617</ele>
        <time>2025-06-05T14:45:53Z</time>
      </trkpt>
      <trkpt lat="45.75568" lon="6.53126">
        <ele>1618</ele>
        <time>2025-06-05T14:45:57Z</time>
      </trkpt>
      <trkpt lat="45.75575" lon="6.53114">
        <ele>1618</ele>
        <time>2025-06-05T14:45:59Z</time>
      </trkpt>
      <trkpt lat="45.75586" lon="6.53091">
        <ele>1618</ele>
        <time>2025-06-05T14:46:04Z</time>
      </trkpt>
      <trkpt lat="45.75588" lon="6.53087">
        <ele>1618</ele>
        <time>2025-06-05T14:46:05Z</time>
      </trkpt>
      <trkpt lat="45.75594" lon="6.53079">
        <ele>1619</ele>
        <time>2025-06-05T14:46:07Z</time>
      </trkpt>
      <trkpt lat="45.75604" lon="6.53073">
        <ele>1620</ele>
        <time>2025-06-05T14:46:09Z</time>
      </trkpt>
      <trkpt lat="45.7561" lon="6.53068">
        <ele>1620</ele>
        <time>2025-06-05T14:46:11Z</time>
      </trkpt>
      <trkpt lat="45.75622" lon="6.5307">
        <ele>1621</ele>
        <time>2025-06-05T14:46:14Z</time>
      </trkpt>
      <trkpt lat="45.75627" lon="6.53072">
        <ele>1622</ele>
        <time>2025-06-05T14:46:15Z</time>
      </trkpt>
      <trkpt lat="45.75632" lon="6.53077">
        <ele>1622</ele>
        <time>2025-06-05T14:46:16Z</time>
      </trkpt>
      <trkpt lat="45.75644" lon="6.53095">
        <ele>1623</ele>
        <time>2025-06-05T14:46:20Z</time>
      </trkpt>
      <trkpt lat="45.75658" lon="6.53122">
        <ele>1625</ele>
        <time>2025-06-05T14:46:26Z</time>
      </trkpt>
      <trkpt lat="45.75665" lon="6.5314">
        <ele>1626</ele>
        <time>2025-06-05T14:46:29Z</time>
      </trkpt>
      <trkpt lat="45.7567" lon="6.5314">
        <ele>1627</ele>
        <time>2025-06-05T14:46:30Z</time>
      </trkpt>
      <trkpt lat="45.75673" lon="6.5314">
        <ele>1627</ele>
        <time>2025-06-05T14:46:31Z</time>
      </trkpt>
      <trkpt lat="45.75679" lon="6.5313">
        <ele>1628</ele>
        <time>2025-06-05T14:46:33Z</time>
      </trkpt>
      <trkpt lat="45.75688" lon="6.53105">
        <ele>1629</ele>
        <time>2025-06-05T14:46:38Z</time>
      </trkpt>
      <trkpt lat="45.75693" lon="6.53095">
        <ele>1629</ele>
        <time>2025-06-05T14:46:40Z</time>
      </trkpt>
      <trkpt lat="45.75699" lon="6.53091">
        <ele>1630</ele>
        <time>2025-06-05T14:46:41Z</time>
      </trkpt>
      <trkpt lat="45.75705" lon="6.53091">
        <ele>1630</ele>
        <time>2025-06-05T14:46:43Z</time>
      </trkpt>
      <trkpt lat="45.75708" lon="6.53092">
        <ele>1631</ele>
        <time>2025-06-05T14:46:43Z</time>
      </trkpt>
      <trkpt lat="45.75711" lon="6.53094">
        <ele>1631</ele>
        <time>2025-06-05T14:46:44Z</time>
      </trkpt>
      <trkpt lat="45.75714" lon="6.53104">
        <ele>1632</ele>
        <time>2025-06-05T14:46:46Z</time>
      </trkpt>
      <trkpt lat="45.75714" lon="6.53111">
        <ele>1632</ele>
        <time>2025-06-05T14:46:47Z</time>
      </trkpt>
      <trkpt lat="45.7571" lon="6.53133">
        <ele>1633</ele>
        <time>2025-06-05T14:46:51Z</time>
      </trkpt>
      <trkpt lat="45.75709" lon="6.53145">
        <ele>1633</ele>
        <time>2025-06-05T14:46:53Z</time>
      </trkpt>
      <trkpt lat="45.75712" lon="6.5316">
        <ele>1634</ele>
        <time>2025-06-05T14:46:55Z</time>
      </trkpt>
      <trkpt lat="45.75727" lon="6.53183">
        <ele>1637</ele>
        <time>2025-06-05T14:47:00Z</time>
      </trkpt>
      <trkpt lat="45.75735" lon="6.532">
        <ele>1638</ele>
        <time>2025-06-05T14:47:04Z</time>
      </trkpt>
      <trkpt lat="45.75739" lon="6.53202">
        <ele>1639</ele>
        <time>2025-06-05T14:47:05Z</time>
      </trkpt>
      <trkpt lat="45.75742" lon="6.53203">
        <ele>1640</ele>
        <time>2025-06-05T14:47:05Z</time>
      </trkpt>
      <trkpt lat="45.75745" lon="6.53201">
        <ele>1640</ele>
        <time>2025-06-05T14:47:06Z</time>
      </trkpt>
      <trkpt lat="45.7576" lon="6.53171">
        <ele>1642</ele>
        <time>2025-06-05T14:47:12Z</time>
      </trkpt>
      <trkpt lat="45.7577" lon="6.53153">
        <ele>1643</ele>
        <time>2025-06-05T14:47:16Z</time>
      </trkpt>
      <trkpt lat="45.75776" lon="6.53148">
        <ele>1643</ele>
        <time>2025-06-05T14:47:18Z</time>
      </trkpt>
      <trkpt lat="45.75782" lon="6.53147">
        <ele>1644</ele>
        <time>2025-06-05T14:47:19Z</time>
      </trkpt>
      <trkpt lat="45.75779" lon="6.53159">
        <ele>1644</ele>
        <time>2025-06-05T14:47:21Z</time>
      </trkpt>
      <trkpt lat="45.75772" lon="6.53219">
        <ele>1644</ele>
        <time>2025-06-05T14:47:31Z</time>
      </trkpt>
      <trkpt lat="45.75774" lon="6.53277">
        <ele>1645</ele>
        <time>2025-06-05T14:47:40Z</time>
      </trkpt>
      <trkpt lat="45.75778" lon="6.53316">
        <ele>1644</ele>
        <time>2025-06-05T14:47:47Z</time>
      </trkpt>
      <trkpt lat="45.75786" lon="6.53336">
        <ele>1645</ele>
        <time>2025-06-05T14:47:51Z</time>
      </trkpt>
      <trkpt lat="45.75798" lon="6.53353">
        <ele>1646</ele>
        <time>2025-06-05T14:47:55Z</time>
      </trkpt>
      <trkpt lat="45.75802" lon="6.53356">
        <ele>1647</ele>
        <time>2025-06-05T14:47:56Z</time>
      </trkpt>
      <trkpt lat="45.75807" lon="6.53358">
        <ele>1647</ele>
        <time>2025-06-05T14:47:57Z</time>
      </trkpt>
      <trkpt lat="45.75811" lon="6.53367">
        <ele>1648</ele>
        <time>2025-06-05T14:47:59Z</time>
      </trkpt>
      <trkpt lat="45.75818" lon="6.53375">
        <ele>1648</ele>
        <time>2025-06-05T14:48:01Z</time>
      </trkpt>
      <trkpt lat="45.75877" lon="6.53404">
        <ele>1653</ele>
        <time>2025-06-05T14:48:15Z</time>
      </trkpt>
      <trkpt lat="45.75898" lon="6.53416">
        <ele>1654</ele>
        <time>2025-06-05T14:48:20Z</time>
      </trkpt>
      <trkpt lat="45.75902" lon="6.53416">
        <ele>1655</ele>
        <time>2025-06-05T14:48:21Z</time>
      </trkpt>
      <trkpt lat="45.75903" lon="6.53416">
        <ele>1655</ele>
        <time>2025-06-05T14:48:22Z</time>
      </trkpt>
      <trkpt lat="45.75906" lon="6.53414">
        <ele>1655</ele>
        <time>2025-06-05T14:48:22Z</time>
      </trkpt>
      <trkpt lat="45.7591" lon="6.53407">
        <ele>1655</ele>
        <time>2025-06-05T14:48:24Z</time>
      </trkpt>
      <trkpt lat="45.75935" lon="6.53425">
        <ele>1657</ele>
        <time>2025-06-05T14:48:30Z</time>
      </trkpt>
      <trkpt lat="45.75939" lon="6.53426">
        <ele>1658</ele>
        <time>2025-06-05T14:48:31Z</time>
      </trkpt>
      <trkpt lat="45.75939" lon="6.53421">
        <ele>1657</ele>
        <time>2025-06-05T14:48:32Z</time>
      </trkpt>
      <trkpt lat="45.75941" lon="6.53418">
        <ele>1657</ele>
        <time>2025-06-05T14:48:33Z</time>
      </trkpt>
      <trkpt lat="45.75944" lon="6.53415">
        <ele>1658</ele>
        <time>2025-06-05T14:48:34Z</time>
      </trkpt>
      <trkpt lat="45.75947" lon="6.53414">
        <ele>1658</ele>
        <time>2025-06-05T14:48:34Z</time>
      </trkpt>
      <trkpt lat="45.7595" lon="6.53414">
        <ele>1658</ele>
        <time>2025-06-05T14:48:35Z</time>
      </trkpt>
      <trkpt lat="45.75952" lon="6.53416">
        <ele>1658</ele>
        <time>2025-06-05T14:48:36Z</time>
      </trkpt>
      <trkpt lat="45.75955" lon="6.53419">
        <ele>1658</ele>
        <time>2025-06-05T14:48:37Z</time>
      </trkpt>
      <trkpt lat="45.75982" lon="6.5339">
        <ele>1659</ele>
        <time>2025-06-05T14:48:44Z</time>
      </trkpt>
      <trkpt lat="45.75999" lon="6.53376">
        <ele>1659</ele>
        <time>2025-06-05T14:48:49Z</time>
      </trkpt>
      <trkpt lat="45.76022" lon="6.53363">
        <ele>1660</ele>
        <time>2025-06-05T14:48:55Z</time>
      </trkpt>
      <trkpt lat="45.76032" lon="6.53359">
        <ele>1660</ele>
        <time>2025-06-05T14:48:57Z</time>
      </trkpt>
      <trkpt lat="45.76035" lon="6.53358">
        <ele>1660</ele>
        <time>2025-06-05T14:48:58Z</time>
      </trkpt>
      <trkpt lat="45.76039" lon="6.53378">
        <ele>1661</ele>
        <time>2025-06-05T14:49:01Z</time>
      </trkpt>
      <trkpt lat="45.76037" lon="6.53386">
        <ele>1661</ele>
        <time>2025-06-05T14:49:03Z</time>
      </trkpt>
      <trkpt lat="45.76031" lon="6.53396">
        <ele>1661</ele>
        <time>2025-06-05T14:49:05Z</time>
      </trkpt>
      <trkpt lat="45.76023" lon="6.53406">
        <ele>1661</ele>
        <time>2025-06-05T14:49:07Z</time>
      </trkpt>
      <trkpt lat="45.76006" lon="6.53421">
        <ele>1661</ele>
        <time>2025-06-05T14:49:12Z</time>
      </trkpt>
      <trkpt lat="45.76" lon="6.53427">
        <ele>1661</ele>
        <time>2025-06-05T14:49:14Z</time>
      </trkpt>
      <trkpt lat="45.75997" lon="6.53432">
        <ele>1661</ele>
        <time>2025-06-05T14:49:15Z</time>
      </trkpt>
      <trkpt lat="45.75993" lon="6.5344">
        <ele>1661</ele>
        <time>2025-06-05T14:49:16Z</time>
      </trkpt>
      <trkpt lat="45.7599" lon="6.53453">
        <ele>1661</ele>
        <time>2025-06-05T14:49:19Z</time>
      </trkpt>
      <trkpt lat="45.7599" lon="6.5346">
        <ele>1661</ele>
        <time>2025-06-05T14:49:20Z</time>
      </trkpt>
      <trkpt lat="45.7599" lon="6.53466">
        <ele>1662</ele>
        <time>2025-06-05T14:49:21Z</time>
      </trkpt>
      <trkpt lat="45.75992" lon="6.53477">
        <ele>1662</ele>
        <time>2025-06-05T14:49:23Z</time>
      </trkpt>
      <trkpt lat="45.75981" lon="6.53491">
        <ele>1662</ele>
        <time>2025-06-05T14:49:26Z</time>
      </trkpt>
      <trkpt lat="45.75976" lon="6.53507">
        <ele>1662</ele>
        <time>2025-06-05T14:49:29Z</time>
      </trkpt>
      <trkpt lat="45.75972" lon="6.53511">
        <ele>1662</ele>
        <time>2025-06-05T14:49:30Z</time>
      </trkpt>
      <trkpt lat="45.75963" lon="6.53541">
        <ele>1662</ele>
        <time>2025-06-05T14:49:35Z</time>
      </trkpt>
      <trkpt lat="45.7596" lon="6.53547">
        <ele>1662</ele>
        <time>2025-06-05T14:49:37Z</time>
      </trkpt>
      <trkpt lat="45.75945" lon="6.53576">
        <ele>1662</ele>
        <time>2025-06-05T14:49:42Z</time>
      </trkpt>
      <trkpt lat="45.7594" lon="6.53583">
        <ele>1662</ele>
        <time>2025-06-05T14:49:44Z</time>
      </trkpt>
      <trkpt lat="45.75926" lon="6.5359">
        <ele>1660</ele>
        <time>2025-06-05T14:49:48Z</time>
      </trkpt>
      <trkpt lat="45.75922" lon="6.5359">
        <ele>1660</ele>
        <time>2025-06-05T14:49:48Z</time>
      </trkpt>
      <trkpt lat="45.75928" lon="6.536">
        <ele>1661</ele>
        <time>2025-06-05T14:49:51Z</time>
      </trkpt>
      <trkpt lat="45.75933" lon="6.53616">
        <ele>1663</ele>
        <time>2025-06-05T14:49:53Z</time>
      </trkpt>
      <trkpt lat="45.75932" lon="6.53626">
        <ele>1663</ele>
        <time>2025-06-05T14:49:55Z</time>
      </trkpt>
      <trkpt lat="45.75933" lon="6.53639">
        <ele>1664</ele>
        <time>2025-06-05T14:49:57Z</time>
      </trkpt>
      <trkpt lat="45.75936" lon="6.53648">
        <ele>1665</ele>
        <time>2025-06-05T14:49:59Z</time>
      </trkpt>
      <trkpt lat="45.75937" lon="6.53661">
        <ele>1666</ele>
        <time>2025-06-05T14:50:01Z</time>
      </trkpt>
      <trkpt lat="45.75939" lon="6.53693">
        <ele>1669</ele>
        <time>2025-06-05T14:50:06Z</time>
      </trkpt>
      <trkpt lat="45.7594" lon="6.53702">
        <ele>1670</ele>
        <time>2025-06-05T14:50:08Z</time>
      </trkpt>
      <trkpt lat="45.75948" lon="6.53722">
        <ele>1672</ele>
        <time>2025-06-05T14:50:11Z</time>
      </trkpt>
      <trkpt lat="45.75951" lon="6.53733">
        <ele>1674</ele>
        <time>2025-06-05T14:50:13Z</time>
      </trkpt>
      <trkpt lat="45.7595" lon="6.53765">
        <ele>1676</ele>
        <time>2025-06-05T14:50:19Z</time>
      </trkpt>
      <trkpt lat="45.75946" lon="6.53804">
        <ele>1679</ele>
        <time>2025-06-05T14:50:25Z</time>
      </trkpt>
      <trkpt lat="45.75943" lon="6.53829">
        <ele>1681</ele>
        <time>2025-06-05T14:50:29Z</time>
      </trkpt>
      <trkpt lat="45.75934" lon="6.53862">
        <ele>1683</ele>
        <time>2025-06-05T14:50:35Z</time>
      </trkpt>
      <trkpt lat="45.75927" lon="6.53891">
        <ele>1684</ele>
        <time>2025-06-05T14:50:40Z</time>
      </trkpt>
      <trkpt lat="45.75919" lon="6.53917">
        <ele>1685</ele>
        <time>2025-06-05T14:50:45Z</time>
      </trkpt>
      <trkpt lat="45.75919" lon="6.53953">
        <ele>1688</ele>
        <time>2025-06-05T14:50:50Z</time>
      </trkpt>
      <trkpt lat="45.7592" lon="6.53973">
        <ele>1690</ele>
        <time>2025-06-05T14:50:54Z</time>
      </trkpt>
      <trkpt lat="45.75921" lon="6.54028">
        <ele>1693</ele>
        <time>2025-06-05T14:51:03Z</time>
      </trkpt>
      <trkpt lat="45.75928" lon="6.54046">
        <ele>1696</ele>
        <time>2025-06-05T14:51:06Z</time>
      </trkpt>
      <trkpt lat="45.75939" lon="6.54114">
        <ele>1703</ele>
        <time>2025-06-05T14:51:17Z</time>
      </trkpt>
      <trkpt lat="45.75942" lon="6.54126">
        <ele>1704</ele>
        <time>2025-06-05T14:51:19Z</time>
      </trkpt>
      <trkpt lat="45.75942" lon="6.5413">
        <ele>1704</ele>
        <time>2025-06-05T14:51:20Z</time>
      </trkpt>
      <trkpt lat="45.75935" lon="6.54182">
        <ele>1705</ele>
        <time>2025-06-05T14:51:29Z</time>
      </trkpt>
      <trkpt lat="45.7594" lon="6.5421">
        <ele>1709</ele>
        <time>2025-06-05T14:51:33Z</time>
      </trkpt>
      <trkpt lat="45.75941" lon="6.54249">
        <ele>1711</ele>
        <time>2025-06-05T14:51:40Z</time>
      </trkpt>
      <trkpt lat="45.7594" lon="6.54274">
        <ele>1713</ele>
        <time>2025-06-05T14:51:44Z</time>
      </trkpt>
      <trkpt lat="45.75937" lon="6.54301">
        <ele>1714</ele>
        <time>2025-06-05T14:51:48Z</time>
      </trkpt>
      <trkpt lat="45.75942" lon="6.54324">
        <ele>1718</ele>
        <time>2025-06-05T14:51:52Z</time>
      </trkpt>
      <trkpt lat="45.75948" lon="6.54379">
        <ele>1722</ele>
        <time>2025-06-05T14:52:01Z</time>
      </trkpt>
      <trkpt lat="45.7596" lon="6.54465">
        <ele>1732</ele>
        <time>2025-06-05T14:52:16Z</time>
      </trkpt>
      <trkpt lat="45.75963" lon="6.54499">
        <ele>1736</ele>
        <time>2025-06-05T14:52:21Z</time>
      </trkpt>
      <trkpt lat="45.75965" lon="6.54538">
        <ele>1741</ele>
        <time>2025-06-05T14:52:28Z</time>
      </trkpt>
      <trkpt lat="45.75962" lon="6.54557">
        <ele>1743</ele>
        <time>2025-06-05T14:52:31Z</time>
      </trkpt>
      <trkpt lat="45.75962" lon="6.54574">
        <ele>1745</ele>
        <time>2025-06-05T14:52:34Z</time>
      </trkpt>
      <trkpt lat="45.75958" lon="6.54588">
        <ele>1745</ele>
        <time>2025-06-05T14:52:36Z</time>
      </trkpt>
      <trkpt lat="45.75957" lon="6.54598">
        <ele>1746</ele>
        <time>2025-06-05T14:52:38Z</time>
      </trkpt>
      <trkpt lat="45.75955" lon="6.54632">
        <ele>1749</ele>
        <time>2025-06-05T14:52:43Z</time>
      </trkpt>
      <trkpt lat="45.75954" lon="6.54664">
        <ele>1752</ele>
        <time>2025-06-05T14:52:48Z</time>
      </trkpt>
      <trkpt lat="45.75954" lon="6.54686">
        <ele>1753</ele>
        <time>2025-06-05T14:52:52Z</time>
      </trkpt>
      <trkpt lat="45.75956" lon="6.54709">
        <ele>1754</ele>
        <time>2025-06-05T14:52:56Z</time>
      </trkpt>
      <trkpt lat="45.75961" lon="6.54733">
        <ele>1756</ele>
        <time>2025-06-05T14:53:00Z</time>
      </trkpt>
      <trkpt lat="45.75985" lon="6.54806">
        <ele>1762</ele>
        <time>2025-06-05T14:53:13Z</time>
      </trkpt>
      <trkpt lat="45.75992" lon="6.54824">
        <ele>1764</ele>
        <time>2025-06-05T14:53:16Z</time>
      </trkpt>
      <trkpt lat="45.76001" lon="6.54854">
        <ele>1766</ele>
        <time>2025-06-05T14:53:22Z</time>
      </trkpt>
      <trkpt lat="45.76013" lon="6.54916">
        <ele>1769</ele>
        <time>2025-06-05T14:53:32Z</time>
      </trkpt>
      <trkpt lat="45.76009" lon="6.54936">
        <ele>1770</ele>
        <time>2025-06-05T14:53:36Z</time>
      </trkpt>
      <trkpt lat="45.76006" lon="6.54975">
        <ele>1771</ele>
        <time>2025-06-05T14:53:42Z</time>
      </trkpt>
      <trkpt lat="45.76004" lon="6.54988">
        <ele>1772</ele>
        <time>2025-06-05T14:53:44Z</time>
      </trkpt>
      <trkpt lat="45.76001" lon="6.54999">
        <ele>1772</ele>
        <time>2025-06-05T14:53:46Z</time>
      </trkpt>
      <trkpt lat="45.76" lon="6.55009">
        <ele>1773</ele>
        <time>2025-06-05T14:53:48Z</time>
      </trkpt>
      <trkpt lat="45.75992" lon="6.5502">
        <ele>1773</ele>
        <time>2025-06-05T14:53:50Z</time>
      </trkpt>
      <trkpt lat="45.75987" lon="6.5502">
        <ele>1773</ele>
        <time>2025-06-05T14:53:51Z</time>
      </trkpt>
      <trkpt lat="45.75973" lon="6.55041">
        <ele>1774</ele>
        <time>2025-06-05T14:53:56Z</time>
      </trkpt>
      <trkpt lat="45.75958" lon="6.55041">
        <ele>1774</ele>
        <time>2025-06-05T14:54:00Z</time>
      </trkpt>
      <trkpt lat="45.75918" lon="6.55034">
        <ele>1772</ele>
        <time>2025-06-05T14:54:09Z</time>
      </trkpt>
      <trkpt lat="45.75905" lon="6.55038">
        <ele>1772</ele>
        <time>2025-06-05T14:54:12Z</time>
      </trkpt>
      <trkpt lat="45.75895" lon="6.55044">
        <ele>1772</ele>
        <time>2025-06-05T14:54:15Z</time>
      </trkpt>
      <trkpt lat="45.75878" lon="6.55065">
        <ele>1773</ele>
        <time>2025-06-05T14:54:20Z</time>
      </trkpt>
      <trkpt lat="45.75872" lon="6.5507">
        <ele>1773</ele>
        <time>2025-06-05T14:54:22Z</time>
      </trkpt>
      <trkpt lat="45.75864" lon="6.55077">
        <ele>1774</ele>
        <time>2025-06-05T14:54:24Z</time>
      </trkpt>
      <trkpt lat="45.75855" lon="6.55091">
        <ele>1774</ele>
        <time>2025-06-05T14:54:27Z</time>
      </trkpt>
      <trkpt lat="45.75846" lon="6.55108">
        <ele>1775</ele>
        <time>2025-06-05T14:54:30Z</time>
      </trkpt>
      <trkpt lat="45.75835" lon="6.55118">
        <ele>1775</ele>
        <time>2025-06-05T14:54:33Z</time>
      </trkpt>
      <trkpt lat="45.7583" lon="6.55126">
        <ele>1775</ele>
        <time>2025-06-05T14:54:35Z</time>
      </trkpt>
      <trkpt lat="45.75817" lon="6.55133">
        <ele>1774</ele>
        <time>2025-06-05T14:54:38Z</time>
      </trkpt>
      <trkpt lat="45.75806" lon="6.55136">
        <ele>1773</ele>
        <time>2025-06-05T14:54:41Z</time>
      </trkpt>
      <trkpt lat="45.758" lon="6.55144">
        <ele>1773</ele>
        <time>2025-06-05T14:54:43Z</time>
      </trkpt>
      <trkpt lat="45.75785" lon="6.55174">
        <ele>1775</ele>
        <time>2025-06-05T14:54:49Z</time>
      </trkpt>
      <trkpt lat="45.75767" lon="6.55214">
        <ele>1777</ele>
        <time>2025-06-05T14:54:57Z</time>
      </trkpt>
      <trkpt lat="45.7576" lon="6.55227">
        <ele>1777</ele>
        <time>2025-06-05T14:54:59Z</time>
      </trkpt>
      <trkpt lat="45.75757" lon="6.5523">
        <ele>1777</ele>
        <time>2025-06-05T14:55:00Z</time>
      </trkpt>
      <trkpt lat="45.75742" lon="6.55244">
        <ele>1776</ele>
        <time>2025-06-05T14:55:04Z</time>
      </trkpt>
      <trkpt lat="45.75734" lon="6.55246">
        <ele>1774</ele>
        <time>2025-06-05T14:55:06Z</time>
      </trkpt>
      <trkpt lat="45.75725" lon="6.5525">
        <ele>1773</ele>
        <time>2025-06-05T14:55:08Z</time>
      </trkpt>
      <trkpt lat="45.75693" lon="6.5527">
        <ele>1769</ele>
        <time>2025-06-05T14:55:17Z</time>
      </trkpt>
      <trkpt lat="45.75677" lon="6.55285">
        <ele>1768</ele>
        <time>2025-06-05T14:55:21Z</time>
      </trkpt>
      <trkpt lat="45.7567" lon="6.5529">
        <ele>1768</ele>
        <time>2025-06-05T14:55:23Z</time>
      </trkpt>
      <trkpt lat="45.75666" lon="6.55304">
        <ele>1769</ele>
        <time>2025-06-05T14:55:25Z</time>
      </trkpt>
      <trkpt lat="45.75665" lon="6.55318">
        <ele>1772</ele>
        <time>2025-06-05T14:55:28Z</time>
      </trkpt>
      <trkpt lat="45.75661" lon="6.55322">
        <ele>1773</ele>
        <time>2025-06-05T14:55:29Z</time>
      </trkpt>
      <trkpt lat="45.75648" lon="6.55312">
        <ele>1772</ele>
        <time>2025-06-05T14:55:32Z</time>
      </trkpt>
      <trkpt lat="45.75643" lon="6.55312">
        <ele>1772</ele>
        <time>2025-06-05T14:55:33Z</time>
      </trkpt>
      <trkpt lat="45.75632" lon="6.55306">
        <ele>1772</ele>
        <time>2025-06-05T14:55:36Z</time>
      </trkpt>
      <trkpt lat="45.75618" lon="6.55295">
        <ele>1771</ele>
        <time>2025-06-05T14:55:40Z</time>
      </trkpt>
      <trkpt lat="45.75609" lon="6.55279">
        <ele>1769</ele>
        <time>2025-06-05T14:55:43Z</time>
      </trkpt>
      <trkpt lat="45.75602" lon="6.5527">
        <ele>1768</ele>
        <time>2025-06-05T14:55:45Z</time>
      </trkpt>
      <trkpt lat="45.75583" lon="6.55254">
        <ele>1766</ele>
        <time>2025-06-05T14:55:51Z</time>
      </trkpt>
      <trkpt lat="45.75569" lon="6.5524">
        <ele>1764</ele>
        <time>2025-06-05T14:55:55Z</time>
      </trkpt>
      <trkpt lat="45.75549" lon="6.55227">
        <ele>1762</ele>
        <time>2025-06-05T14:56:00Z</time>
      </trkpt>
      <trkpt lat="45.75542" lon="6.55221">
        <ele>1762</ele>
        <time>2025-06-05T14:56:02Z</time>
      </trkpt>
      <trkpt lat="45.75536" lon="6.55218">
        <ele>1761</ele>
        <time>2025-06-05T14:56:03Z</time>
      </trkpt>
      <trkpt lat="45.75528" lon="6.55218">
        <ele>1762</ele>
        <time>2025-06-05T14:56:05Z</time>
      </trkpt>
      <trkpt lat="45.75517" lon="6.55217">
        <ele>1763</ele>
        <time>2025-06-05T14:56:08Z</time>
      </trkpt>
      <trkpt lat="45.75499" lon="6.55217">
        <ele>1764</ele>
        <time>2025-06-05T14:56:12Z</time>
      </trkpt>
      <trkpt lat="45.75482" lon="6.55213">
        <ele>1762</ele>
        <time>2025-06-05T14:56:16Z</time>
      </trkpt>
      <trkpt lat="45.75476" lon="6.55211">
        <ele>1761</ele>
        <time>2025-06-05T14:56:17Z</time>
      </trkpt>
      <trkpt lat="45.75461" lon="6.5521">
        <ele>1759</ele>
        <time>2025-06-05T14:56:21Z</time>
      </trkpt>
      <trkpt lat="45.75453" lon="6.55211">
        <ele>1759</ele>
        <time>2025-06-05T14:56:23Z</time>
      </trkpt>
      <trkpt lat="45.75441" lon="6.55216">
        <ele>1759</ele>
        <time>2025-06-05T14:56:26Z</time>
      </trkpt>
      <trkpt lat="45.75429" lon="6.55218">
        <ele>1759</ele>
        <time>2025-06-05T14:56:28Z</time>
      </trkpt>
      <trkpt lat="45.75421" lon="6.55223">
        <ele>1759</ele>
        <time>2025-06-05T14:56:30Z</time>
      </trkpt>
      <trkpt lat="45.75404" lon="6.55239">
        <ele>1761</ele>
        <time>2025-06-05T14:56:35Z</time>
      </trkpt>
      <trkpt lat="45.75392" lon="6.5525">
        <ele>1761</ele>
        <time>2025-06-05T14:56:38Z</time>
      </trkpt>
      <trkpt lat="45.75368" lon="6.55278">
        <ele>1763</ele>
        <time>2025-06-05T14:56:46Z</time>
      </trkpt>
      <trkpt lat="45.75362" lon="6.55284">
        <ele>1764</ele>
        <time>2025-06-05T14:56:47Z</time>
      </trkpt>
      <trkpt lat="45.75355" lon="6.5529">
        <ele>1764</ele>
        <time>2025-06-05T14:56:49Z</time>
      </trkpt>
      <trkpt lat="45.75333" lon="6.55299">
        <ele>1762</ele>
        <time>2025-06-05T14:56:55Z</time>
      </trkpt>
      <trkpt lat="45.75319" lon="6.55306">
        <ele>1763</ele>
        <time>2025-06-05T14:56:58Z</time>
      </trkpt>
      <trkpt lat="45.75311" lon="6.55308">
        <ele>1763</ele>
        <time>2025-06-05T14:57:00Z</time>
      </trkpt>
      <trkpt lat="45.75289" lon="6.55311">
        <ele>1762</ele>
        <time>2025-06-05T14:57:05Z</time>
      </trkpt>
      <trkpt lat="45.75273" lon="6.55304">
        <ele>1759</ele>
        <time>2025-06-05T14:57:09Z</time>
      </trkpt>
      <trkpt lat="45.75261" lon="6.55296">
        <ele>1756</ele>
        <time>2025-06-05T14:57:12Z</time>
      </trkpt>
      <trkpt lat="45.75244" lon="6.55288">
        <ele>1753</ele>
        <time>2025-06-05T14:57:16Z</time>
      </trkpt>
      <trkpt lat="45.75204" lon="6.55261">
        <ele>1747</ele>
        <time>2025-06-05T14:57:27Z</time>
      </trkpt>
      <trkpt lat="45.75191" lon="6.55264">
        <ele>1748</ele>
        <time>2025-06-05T14:57:30Z</time>
      </trkpt>
      <trkpt lat="45.75181" lon="6.55261">
        <ele>1748</ele>
        <time>2025-06-05T14:57:32Z</time>
      </trkpt>
      <trkpt lat="45.75174" lon="6.55263">
        <ele>1749</ele>
        <time>2025-06-05T14:57:34Z</time>
      </trkpt>
      <trkpt lat="45.75162" lon="6.55271">
        <ele>1750</ele>
        <time>2025-06-05T14:57:37Z</time>
      </trkpt>
      <trkpt lat="45.75147" lon="6.55283">
        <ele>1750</ele>
        <time>2025-06-05T14:57:41Z</time>
      </trkpt>
      <trkpt lat="45.75136" lon="6.55311">
        <ele>1754</ele>
        <time>2025-06-05T14:57:46Z</time>
      </trkpt>
      <trkpt lat="45.75129" lon="6.55337">
        <ele>1758</ele>
        <time>2025-06-05T14:57:51Z</time>
      </trkpt>
      <trkpt lat="45.75118" lon="6.55363">
        <ele>1759</ele>
        <time>2025-06-05T14:57:56Z</time>
      </trkpt>
      <trkpt lat="45.75102" lon="6.55388">
        <ele>1759</ele>
        <time>2025-06-05T14:58:01Z</time>
      </trkpt>
      <trkpt lat="45.75094" lon="6.55399">
        <ele>1759</ele>
        <time>2025-06-05T14:58:04Z</time>
      </trkpt>
      <trkpt lat="45.75088" lon="6.55453">
        <ele>1757</ele>
        <time>2025-06-05T14:58:13Z</time>
      </trkpt>
      <trkpt lat="45.75091" lon="6.55477">
        <ele>1757</ele>
        <time>2025-06-05T14:58:17Z</time>
      </trkpt>
      <trkpt lat="45.75098" lon="6.55504">
        <ele>1757</ele>
        <time>2025-06-05T14:58:21Z</time>
      </trkpt>
      <trkpt lat="45.75107" lon="6.55526">
        <ele>1754</ele>
        <time>2025-06-05T14:58:25Z</time>
      </trkpt>
      <trkpt lat="45.75113" lon="6.55534">
        <ele>1754</ele>
        <time>2025-06-05T14:58:27Z</time>
      </trkpt>
      <trkpt lat="45.7512" lon="6.55544">
        <ele>1754</ele>
        <time>2025-06-05T14:58:30Z</time>
      </trkpt>
      <trkpt lat="45.75127" lon="6.55549">
        <ele>1755</ele>
        <time>2025-06-05T14:58:32Z</time>
      </trkpt>
      <trkpt lat="45.75136" lon="6.55561">
        <ele>1754</ele>
        <time>2025-06-05T14:58:34Z</time>
      </trkpt>
      <trkpt lat="45.75156" lon="6.55578">
        <ele>1755</ele>
        <time>2025-06-05T14:58:40Z</time>
      </trkpt>
      <trkpt lat="45.75184" lon="6.556">
        <ele>1756</ele>
        <time>2025-06-05T14:58:47Z</time>
      </trkpt>
      <trkpt lat="45.75194" lon="6.55606">
        <ele>1758</ele>
        <time>2025-06-05T14:58:50Z</time>
      </trkpt>
      <trkpt lat="45.75206" lon="6.55617">
        <ele>1759</ele>
        <time>2025-06-05T14:58:53Z</time>
      </trkpt>
      <trkpt lat="45.75212" lon="6.55626">
        <ele>1758</ele>
        <time>2025-06-05T14:58:55Z</time>
      </trkpt>
      <trkpt lat="45.75232" lon="6.55646">
        <ele>1759</ele>
        <time>2025-06-05T14:59:01Z</time>
      </trkpt>
      <trkpt lat="45.7524" lon="6.55655">
        <ele>1759</ele>
        <time>2025-06-05T14:59:03Z</time>
      </trkpt>
      <trkpt lat="45.75283" lon="6.55695">
        <ele>1756</ele>
        <time>2025-06-05T14:59:15Z</time>
      </trkpt>
      <trkpt lat="45.75312" lon="6.55729">
        <ele>1755</ele>
        <time>2025-06-05T14:59:24Z</time>
      </trkpt>
      <trkpt lat="45.75334" lon="6.5576">
        <ele>1754</ele>
        <time>2025-06-05T14:59:31Z</time>
      </trkpt>
      <trkpt lat="45.75354" lon="6.55795">
        <ele>1750</ele>
        <time>2025-06-05T14:59:39Z</time>
      </trkpt>
      <trkpt lat="45.75379" lon="6.55858">
        <ele>1746</ele>
        <time>2025-06-05T14:59:50Z</time>
      </trkpt>
      <trkpt lat="45.75388" lon="6.55879">
        <ele>1747</ele>
        <time>2025-06-05T14:59:54Z</time>
      </trkpt>
      <trkpt lat="45.75396" lon="6.55896">
        <ele>1747</ele>
        <time>2025-06-05T14:59:58Z</time>
      </trkpt>
      <trkpt lat="45.75398" lon="6.55937">
        <ele>1740</ele>
        <time>2025-06-05T15:00:04Z</time>
      </trkpt>
      <trkpt lat="45.75414" lon="6.55966">
        <ele>1745</ele>
        <time>2025-06-05T15:00:10Z</time>
      </trkpt>
      <trkpt lat="45.75413" lon="6.55979">
        <ele>1742</ele>
        <time>2025-06-05T15:00:13Z</time>
      </trkpt>
      <trkpt lat="45.75408" lon="6.56035">
        <ele>1735</ele>
        <time>2025-06-05T15:00:22Z</time>
      </trkpt>
      <trkpt lat="45.75407" lon="6.56056">
        <ele>1734</ele>
        <time>2025-06-05T15:00:25Z</time>
      </trkpt>
      <trkpt lat="45.75403" lon="6.56077">
        <ele>1731</ele>
        <time>2025-06-05T15:00:29Z</time>
      </trkpt>
      <trkpt lat="45.75396" lon="6.56103">
        <ele>1726</ele>
        <time>2025-06-05T15:00:33Z</time>
      </trkpt>
      <trkpt lat="45.75393" lon="6.56121">
        <ele>1724</ele>
        <time>2025-06-05T15:00:36Z</time>
      </trkpt>
      <trkpt lat="45.75393" lon="6.56138">
        <ele>1724</ele>
        <time>2025-06-05T15:00:39Z</time>
      </trkpt>
      <trkpt lat="45.75396" lon="6.56155">
        <ele>1725</ele>
        <time>2025-06-05T15:00:42Z</time>
      </trkpt>
      <trkpt lat="45.75404" lon="6.5617">
        <ele>1727</ele>
        <time>2025-06-05T15:00:45Z</time>
      </trkpt>
      <trkpt lat="45.75413" lon="6.56178">
        <ele>1729</ele>
        <time>2025-06-05T15:00:47Z</time>
      </trkpt>
      <trkpt lat="45.75423" lon="6.5619">
        <ele>1729</ele>
        <time>2025-06-05T15:00:51Z</time>
      </trkpt>
      <trkpt lat="45.7543" lon="6.56197">
        <ele>1730</ele>
        <time>2025-06-05T15:00:53Z</time>
      </trkpt>
      <trkpt lat="45.75439" lon="6.56202">
        <ele>1731</ele>
        <time>2025-06-05T15:00:55Z</time>
      </trkpt>
      <trkpt lat="45.75447" lon="6.5621">
        <ele>1731</ele>
        <time>2025-06-05T15:00:57Z</time>
      </trkpt>
      <trkpt lat="45.7545" lon="6.56215">
        <ele>1730</ele>
        <time>2025-06-05T15:00:58Z</time>
      </trkpt>
      <trkpt lat="45.75455" lon="6.56219">
        <ele>1730</ele>
        <time>2025-06-05T15:00:59Z</time>
      </trkpt>
      <trkpt lat="45.75478" lon="6.56228">
        <ele>1734</ele>
        <time>2025-06-05T15:01:05Z</time>
      </trkpt>
      <trkpt lat="45.75504" lon="6.56235">
        <ele>1738</ele>
        <time>2025-06-05T15:01:11Z</time>
      </trkpt>
      <trkpt lat="45.7551" lon="6.56242">
        <ele>1737</ele>
        <time>2025-06-05T15:01:13Z</time>
      </trkpt>
      <trkpt lat="45.75532" lon="6.56253">
        <ele>1736</ele>
        <time>2025-06-05T15:01:18Z</time>
      </trkpt>
      <trkpt lat="45.75538" lon="6.56258">
        <ele>1735</ele>
        <time>2025-06-05T15:01:20Z</time>
      </trkpt>
      <trkpt lat="45.75599" lon="6.5629">
        <ele>1734</ele>
        <time>2025-06-05T15:01:35Z</time>
      </trkpt>
      <trkpt lat="45.75621" lon="6.56297">
        <ele>1734</ele>
        <time>2025-06-05T15:01:41Z</time>
      </trkpt>
      <trkpt lat="45.75664" lon="6.56308">
        <ele>1736</ele>
        <time>2025-06-05T15:01:51Z</time>
      </trkpt>
      <trkpt lat="45.75672" lon="6.56313">
        <ele>1734</ele>
        <time>2025-06-05T15:01:53Z</time>
      </trkpt>
      <trkpt lat="45.75685" lon="6.56315">
        <ele>1734</ele>
        <time>2025-06-05T15:01:56Z</time>
      </trkpt>
      <trkpt lat="45.75719" lon="6.56335">
        <ele>1728</ele>
        <time>2025-06-05T15:02:04Z</time>
      </trkpt>
      <trkpt lat="45.75749" lon="6.56348">
        <ele>1725</ele>
        <time>2025-06-05T15:02:12Z</time>
      </trkpt>
      <trkpt lat="45.75759" lon="6.56354">
        <ele>1724</ele>
        <time>2025-06-05T15:02:14Z</time>
      </trkpt>
      <trkpt lat="45.75762" lon="6.56355">
        <ele>1724</ele>
        <time>2025-06-05T15:02:15Z</time>
      </trkpt>
      <trkpt lat="45.75776" lon="6.56358">
        <ele>1724</ele>
        <time>2025-06-05T15:02:18Z</time>
      </trkpt>
      <trkpt lat="45.75783" lon="6.56361">
        <ele>1723</ele>
        <time>2025-06-05T15:02:20Z</time>
      </trkpt>
      <trkpt lat="45.75798" lon="6.56371">
        <ele>1721</ele>
        <time>2025-06-05T15:02:24Z</time>
      </trkpt>
      <trkpt lat="45.7582" lon="6.56362">
        <ele>1725</ele>
        <time>2025-06-05T15:02:29Z</time>
      </trkpt>
      <trkpt lat="45.75829" lon="6.56361">
        <ele>1726</ele>
        <time>2025-06-05T15:02:31Z</time>
      </trkpt>
      <trkpt lat="45.7585" lon="6.56364">
        <ele>1731</ele>
        <time>2025-06-05T15:02:36Z</time>
      </trkpt>
      <trkpt lat="45.75855" lon="6.56364">
        <ele>1732</ele>
        <time>2025-06-05T15:02:37Z</time>
      </trkpt>
      <trkpt lat="45.75859" lon="6.5636">
        <ele>1734</ele>
        <time>2025-06-05T15:02:39Z</time>
      </trkpt>
      <trkpt lat="45.75861" lon="6.56356">
        <ele>1736</ele>
        <time>2025-06-05T15:02:39Z</time>
      </trkpt>
      <trkpt lat="45.75882" lon="6.56309">
        <ele>1749</ele>
        <time>2025-06-05T15:02:48Z</time>
      </trkpt>
      <trkpt lat="45.759" lon="6.56266">
        <ele>1757</ele>
        <time>2025-06-05T15:02:57Z</time>
      </trkpt>
      <trkpt lat="45.75909" lon="6.56263">
        <ele>1759</ele>
        <time>2025-06-05T15:02:59Z</time>
      </trkpt>
      <trkpt lat="45.75927" lon="6.5629">
        <ele>1760</ele>
        <time>2025-06-05T15:03:05Z</time>
      </trkpt>
      <trkpt lat="45.7593" lon="6.56299">
        <ele>1760</ele>
        <time>2025-06-05T15:03:06Z</time>
      </trkpt>
      <trkpt lat="45.7594" lon="6.5635">
        <ele>1760</ele>
        <time>2025-06-05T15:03:15Z</time>
      </trkpt>
      <trkpt lat="45.75946" lon="6.56373">
        <ele>1760</ele>
        <time>2025-06-05T15:03:19Z</time>
      </trkpt>
      <trkpt lat="45.75957" lon="6.564">
        <ele>1763</ele>
        <time>2025-06-05T15:03:24Z</time>
      </trkpt>
      <trkpt lat="45.75959" lon="6.56406">
        <ele>1763</ele>
        <time>2025-06-05T15:03:25Z</time>
      </trkpt>
      <trkpt lat="45.75971" lon="6.56426">
        <ele>1765</ele>
        <time>2025-06-05T15:03:30Z</time>
      </trkpt>
      <trkpt lat="45.75993" lon="6.56468">
        <ele>1765</ele>
        <time>2025-06-05T15:03:38Z</time>
      </trkpt>
      <trkpt lat="45.76017" lon="6.56491">
        <ele>1768</ele>
        <time>2025-06-05T15:03:45Z</time>
      </trkpt>
      <trkpt lat="45.76029" lon="6.56511">
        <ele>1767</ele>
        <time>2025-06-05T15:03:49Z</time>
      </trkpt>
      <trkpt lat="45.76037" lon="6.5652">
        <ele>1767</ele>
        <time>2025-06-05T15:03:52Z</time>
      </trkpt>
      <trkpt lat="45.7605" lon="6.56531">
        <ele>1768</ele>
        <time>2025-06-05T15:03:55Z</time>
      </trkpt>
      <trkpt lat="45.76058" lon="6.56541">
        <ele>1769</ele>
        <time>2025-06-05T15:03:58Z</time>
      </trkpt>
      <trkpt lat="45.76067" lon="6.56556">
        <ele>1768</ele>
        <time>2025-06-05T15:04:01Z</time>
      </trkpt>
      <trkpt lat="45.76084" lon="6.5657">
        <ele>1772</ele>
        <time>2025-06-05T15:04:05Z</time>
      </trkpt>
      <trkpt lat="45.76091" lon="6.56572">
        <ele>1774</ele>
        <time>2025-06-05T15:04:07Z</time>
      </trkpt>
      <trkpt lat="45.76093" lon="6.56566">
        <ele>1776</ele>
        <time>2025-06-05T15:04:08Z</time>
      </trkpt>
      <trkpt lat="45.76092" lon="6.56552">
        <ele>1778</ele>
        <time>2025-06-05T15:04:10Z</time>
      </trkpt>
      <trkpt lat="45.76089" lon="6.56532">
        <ele>1782</ele>
        <time>2025-06-05T15:04:14Z</time>
      </trkpt>
      <trkpt lat="45.76096" lon="6.56538">
        <ele>1783</ele>
        <time>2025-06-05T15:04:16Z</time>
      </trkpt>
      <trkpt lat="45.7611" lon="6.56558">
        <ele>1782</ele>
        <time>2025-06-05T15:04:20Z</time>
      </trkpt>
      <trkpt lat="45.7613" lon="6.566">
        <ele>1780</ele>
        <time>2025-06-05T15:04:29Z</time>
      </trkpt>
      <trkpt lat="45.76139" lon="6.56631">
        <ele>1778</ele>
        <time>2025-06-05T15:04:34Z</time>
      </trkpt>
      <trkpt lat="45.76149" lon="6.56654">
        <ele>1778</ele>
        <time>2025-06-05T15:04:38Z</time>
      </trkpt>
      <trkpt lat="45.76157" lon="6.5667">
        <ele>1778</ele>
        <time>2025-06-05T15:04:42Z</time>
      </trkpt>
      <trkpt lat="45.76187" lon="6.56693">
        <ele>1782</ele>
        <time>2025-06-05T15:04:50Z</time>
      </trkpt>
      <trkpt lat="45.76205" lon="6.56716">
        <ele>1783</ele>
        <time>2025-06-05T15:04:55Z</time>
      </trkpt>
      <trkpt lat="45.7623" lon="6.56766">
        <ele>1782</ele>
        <time>2025-06-05T15:05:05Z</time>
      </trkpt>
      <trkpt lat="45.76242" lon="6.56784">
        <ele>1782</ele>
        <time>2025-06-05T15:05:09Z</time>
      </trkpt>
      <trkpt lat="45.76247" lon="6.5679">
        <ele>1783</ele>
        <time>2025-06-05T15:05:11Z</time>
      </trkpt>
      <trkpt lat="45.76265" lon="6.56805">
        <ele>1784</ele>
        <time>2025-06-05T15:05:16Z</time>
      </trkpt>
      <trkpt lat="45.76268" lon="6.56812">
        <ele>1784</ele>
        <time>2025-06-05T15:05:17Z</time>
      </trkpt>
      <trkpt lat="45.76269" lon="6.56822">
        <ele>1782</ele>
        <time>2025-06-05T15:05:19Z</time>
      </trkpt>
      <trkpt lat="45.76269" lon="6.56838">
        <ele>1780</ele>
        <time>2025-06-05T15:05:21Z</time>
      </trkpt>
      <trkpt lat="45.7627" lon="6.56849">
        <ele>1778</ele>
        <time>2025-06-05T15:05:23Z</time>
      </trkpt>
      <trkpt lat="45.76273" lon="6.5686">
        <ele>1777</ele>
        <time>2025-06-05T15:05:25Z</time>
      </trkpt>
      <trkpt lat="45.76277" lon="6.56867">
        <ele>1776</ele>
        <time>2025-06-05T15:05:26Z</time>
      </trkpt>
      <trkpt lat="45.76284" lon="6.56872">
        <ele>1777</ele>
        <time>2025-06-05T15:05:28Z</time>
      </trkpt>
      <trkpt lat="45.76292" lon="6.56873">
        <ele>1778</ele>
        <time>2025-06-05T15:05:30Z</time>
      </trkpt>
      <trkpt lat="45.76311" lon="6.56871">
        <ele>1782</ele>
        <time>2025-06-05T15:05:35Z</time>
      </trkpt>
      <trkpt lat="45.76334" lon="6.56871">
        <ele>1786</ele>
        <time>2025-06-05T15:05:40Z</time>
      </trkpt>
      <trkpt lat="45.76341" lon="6.56872">
        <ele>1786</ele>
        <time>2025-06-05T15:05:42Z</time>
      </trkpt>
      <trkpt lat="45.76356" lon="6.56875">
        <ele>1786</ele>
        <time>2025-06-05T15:05:45Z</time>
      </trkpt>
      <trkpt lat="45.76366" lon="6.56881">
        <ele>1785</ele>
        <time>2025-06-05T15:05:48Z</time>
      </trkpt>
      <trkpt lat="45.76387" lon="6.56898">
        <ele>1783</ele>
        <time>2025-06-05T15:05:53Z</time>
      </trkpt>
      <trkpt lat="45.76411" lon="6.5693">
        <ele>1782</ele>
        <time>2025-06-05T15:06:01Z</time>
      </trkpt>
      <trkpt lat="45.76445" lon="6.56959">
        <ele>1778</ele>
        <time>2025-06-05T15:06:10Z</time>
      </trkpt>
      <trkpt lat="45.76492" lon="6.56978">
        <ele>1779</ele>
        <time>2025-06-05T15:06:22Z</time>
      </trkpt>
      <trkpt lat="45.76507" lon="6.56986">
        <ele>1779</ele>
        <time>2025-06-05T15:06:25Z</time>
      </trkpt>
      <trkpt lat="45.76508" lon="6.56988">
        <ele>1779</ele>
        <time>2025-06-05T15:06:26Z</time>
      </trkpt>
      <trkpt lat="45.76507" lon="6.56986">
        <ele>1779</ele>
        <time>2025-06-05T15:06:26Z</time>
      </trkpt>
      <trkpt lat="45.76492" lon="6.56978">
        <ele>1779</ele>
        <time>2025-06-05T15:06:30Z</time>
      </trkpt>
      <trkpt lat="45.76488" lon="6.56967">
        <ele>1778</ele>
        <time>2025-06-05T15:06:32Z</time>
      </trkpt>
      <trkpt lat="45.76475" lon="6.56958">
        <ele>1778</ele>
        <time>2025-06-05T15:06:35Z</time>
      </trkpt>
      <trkpt lat="45.76458" lon="6.56939">
        <ele>1779</ele>
        <time>2025-06-05T15:06:40Z</time>
      </trkpt>
      <trkpt lat="45.76443" lon="6.56924">
        <ele>1780</ele>
        <time>2025-06-05T15:06:45Z</time>
      </trkpt>
      <trkpt lat="45.76424" lon="6.56907">
        <ele>1783</ele>
        <time>2025-06-05T15:06:50Z</time>
      </trkpt>
      <trkpt lat="45.7641" lon="6.56899">
        <ele>1784</ele>
        <time>2025-06-05T15:06:53Z</time>
      </trkpt>
      <trkpt lat="45.76398" lon="6.56881">
        <ele>1785</ele>
        <time>2025-06-05T15:06:57Z</time>
      </trkpt>
      <trkpt lat="45.76393" lon="6.5687">
        <ele>1786</ele>
        <time>2025-06-05T15:07:00Z</time>
      </trkpt>
      <trkpt lat="45.76382" lon="6.56857">
        <ele>1788</ele>
        <time>2025-06-05T15:07:03Z</time>
      </trkpt>
      <trkpt lat="45.76377" lon="6.56844">
        <ele>1789</ele>
        <time>2025-06-05T15:07:05Z</time>
      </trkpt>
      <trkpt lat="45.76368" lon="6.56836">
        <ele>1791</ele>
        <time>2025-06-05T15:07:08Z</time>
      </trkpt>
      <trkpt lat="45.76365" lon="6.56828">
        <ele>1792</ele>
        <time>2025-06-05T15:07:09Z</time>
      </trkpt>
      <trkpt lat="45.76362" lon="6.56787">
        <ele>1796</ele>
        <time>2025-06-05T15:07:16Z</time>
      </trkpt>
      <trkpt lat="45.76342" lon="6.56741">
        <ele>1804</ele>
        <time>2025-06-05T15:07:25Z</time>
      </trkpt>
      <trkpt lat="45.76327" lon="6.56714">
        <ele>1804</ele>
        <time>2025-06-05T15:07:30Z</time>
      </trkpt>
      <trkpt lat="45.7631" lon="6.56675">
        <ele>1803</ele>
        <time>2025-06-05T15:07:38Z</time>
      </trkpt>
      <trkpt lat="45.76285" lon="6.56642">
        <ele>1801</ele>
        <time>2025-06-05T15:07:46Z</time>
      </trkpt>
      <trkpt lat="45.76273" lon="6.56637">
        <ele>1802</ele>
        <time>2025-06-05T15:07:49Z</time>
      </trkpt>
      <trkpt lat="45.76259" lon="6.56606">
        <ele>1803</ele>
        <time>2025-06-05T15:07:55Z</time>
      </trkpt>
      <trkpt lat="45.76255" lon="6.56595">
        <ele>1804</ele>
        <time>2025-06-05T15:07:57Z</time>
      </trkpt>
      <trkpt lat="45.7625" lon="6.56567">
        <ele>1805</ele>
        <time>2025-06-05T15:08:01Z</time>
      </trkpt>
      <trkpt lat="45.76243" lon="6.56559">
        <ele>1804</ele>
        <time>2025-06-05T15:08:04Z</time>
      </trkpt>
      <trkpt lat="45.76239" lon="6.5655">
        <ele>1804</ele>
        <time>2025-06-05T15:08:05Z</time>
      </trkpt>
      <trkpt lat="45.76239" lon="6.56542">
        <ele>1804</ele>
        <time>2025-06-05T15:08:07Z</time>
      </trkpt>
      <trkpt lat="45.76236" lon="6.56537">
        <ele>1804</ele>
        <time>2025-06-05T15:08:08Z</time>
      </trkpt>
      <trkpt lat="45.76233" lon="6.56536">
        <ele>1804</ele>
        <time>2025-06-05T15:08:08Z</time>
      </trkpt>
      <trkpt lat="45.76227" lon="6.56515">
        <ele>1804</ele>
        <time>2025-06-05T15:08:12Z</time>
      </trkpt>
      <trkpt lat="45.76215" lon="6.56506">
        <ele>1805</ele>
        <time>2025-06-05T15:08:15Z</time>
      </trkpt>
      <trkpt lat="45.76186" lon="6.56458">
        <ele>1809</ele>
        <time>2025-06-05T15:08:26Z</time>
      </trkpt>
      <trkpt lat="45.7618" lon="6.56455">
        <ele>1810</ele>
        <time>2025-06-05T15:08:27Z</time>
      </trkpt>
      <trkpt lat="45.76171" lon="6.56454">
        <ele>1812</ele>
        <time>2025-06-05T15:08:29Z</time>
      </trkpt>
      <trkpt lat="45.76166" lon="6.56455">
        <ele>1813</ele>
        <time>2025-06-05T15:08:30Z</time>
      </trkpt>
      <trkpt lat="45.7616" lon="6.56447">
        <ele>1812</ele>
        <time>2025-06-05T15:08:32Z</time>
      </trkpt>
      <trkpt lat="45.76156" lon="6.56437">
        <ele>1812</ele>
        <time>2025-06-05T15:08:34Z</time>
      </trkpt>
      <trkpt lat="45.76149" lon="6.56436">
        <ele>1810</ele>
        <time>2025-06-05T15:08:36Z</time>
      </trkpt>
      <trkpt lat="45.76141" lon="6.56443">
        <ele>1808</ele>
        <time>2025-06-05T15:08:38Z</time>
      </trkpt>
      <trkpt lat="45.76136" lon="6.56438">
        <ele>1808</ele>
        <time>2025-06-05T15:08:39Z</time>
      </trkpt>
      <trkpt lat="45.76121" lon="6.56429">
        <ele>1805</ele>
        <time>2025-06-05T15:08:43Z</time>
      </trkpt>
      <trkpt lat="45.76094" lon="6.56421">
        <ele>1801</ele>
        <time>2025-06-05T15:08:50Z</time>
      </trkpt>
      <trkpt lat="45.76082" lon="6.5641">
        <ele>1799</ele>
        <time>2025-06-05T15:08:53Z</time>
      </trkpt>
      <trkpt lat="45.76056" lon="6.56372">
        <ele>1790</ele>
        <time>2025-06-05T15:09:02Z</time>
      </trkpt>
      <trkpt lat="45.76047" lon="6.56354">
        <ele>1788</ele>
        <time>2025-06-05T15:09:05Z</time>
      </trkpt>
      <trkpt lat="45.76034" lon="6.56338">
        <ele>1785</ele>
        <time>2025-06-05T15:09:09Z</time>
      </trkpt>
      <trkpt lat="45.76031" lon="6.56315">
        <ele>1783</ele>
        <time>2025-06-05T15:09:13Z</time>
      </trkpt>
      <trkpt lat="45.76024" lon="6.56305">
        <ele>1782</ele>
        <time>2025-06-05T15:09:15Z</time>
      </trkpt>
      <trkpt lat="45.76014" lon="6.563">
        <ele>1781</ele>
        <time>2025-06-05T15:09:18Z</time>
      </trkpt>
      <trkpt lat="45.76009" lon="6.56291">
        <ele>1780</ele>
        <time>2025-06-05T15:09:20Z</time>
      </trkpt>
      <trkpt lat="45.76003" lon="6.56275">
        <ele>1779</ele>
        <time>2025-06-05T15:09:23Z</time>
      </trkpt>
      <trkpt lat="45.75996" lon="6.5626">
        <ele>1778</ele>
        <time>2025-06-05T15:09:26Z</time>
      </trkpt>
      <trkpt lat="45.75986" lon="6.56247">
        <ele>1775</ele>
        <time>2025-06-05T15:09:29Z</time>
      </trkpt>
      <trkpt lat="45.75982" lon="6.56235">
        <ele>1774</ele>
        <time>2025-06-05T15:09:31Z</time>
      </trkpt>
      <trkpt lat="45.75981" lon="6.56216">
        <ele>1773</ele>
        <time>2025-06-05T15:09:34Z</time>
      </trkpt>
      <trkpt lat="45.75973" lon="6.562">
        <ele>1772</ele>
        <time>2025-06-05T15:09:37Z</time>
      </trkpt>
      <trkpt lat="45.75968" lon="6.56181">
        <ele>1771</ele>
        <time>2025-06-05T15:09:41Z</time>
      </trkpt>
      <trkpt lat="45.75967" lon="6.56159">
        <ele>1771</ele>
        <time>2025-06-05T15:09:44Z</time>
      </trkpt>
      <trkpt lat="45.75964" lon="6.56128">
        <ele>1770</ele>
        <time>2025-06-05T15:09:49Z</time>
      </trkpt>
      <trkpt lat="45.75958" lon="6.5611">
        <ele>1770</ele>
        <time>2025-06-05T15:09:53Z</time>
      </trkpt>
      <trkpt lat="45.75952" lon="6.56107">
        <ele>1771</ele>
        <time>2025-06-05T15:09:54Z</time>
      </trkpt>
      <trkpt lat="45.75947" lon="6.56084">
        <ele>1772</ele>
        <time>2025-06-05T15:09:58Z</time>
      </trkpt>
      <trkpt lat="45.75938" lon="6.56055">
        <ele>1773</ele>
        <time>2025-06-05T15:10:03Z</time>
      </trkpt>
      <trkpt lat="45.75908" lon="6.55954">
        <ele>1782</ele>
        <time>2025-06-05T15:10:21Z</time>
      </trkpt>
      <trkpt lat="45.75907" lon="6.55919">
        <ele>1784</ele>
        <time>2025-06-05T15:10:27Z</time>
      </trkpt>
      <trkpt lat="45.75923" lon="6.55851">
        <ele>1785</ele>
        <time>2025-06-05T15:10:38Z</time>
      </trkpt>
      <trkpt lat="45.75957" lon="6.55778">
        <ele>1784</ele>
        <time>2025-06-05T15:10:53Z</time>
      </trkpt>
      <trkpt lat="45.76004" lon="6.55711">
        <ele>1780</ele>
        <time>2025-06-05T15:11:08Z</time>
      </trkpt>
      <trkpt lat="45.76008" lon="6.55692">
        <ele>1780</ele>
        <time>2025-06-05T15:11:11Z</time>
      </trkpt>
      <trkpt lat="45.76007" lon="6.55604">
        <ele>1783</ele>
        <time>2025-06-05T15:11:26Z</time>
      </trkpt>
      <trkpt lat="45.76002" lon="6.55575">
        <ele>1785</ele>
        <time>2025-06-05T15:11:31Z</time>
      </trkpt>
      <trkpt lat="45.76002" lon="6.55572">
        <ele>1785</ele>
        <time>2025-06-05T15:11:31Z</time>
      </trkpt>
      <trkpt lat="45.76003" lon="6.55524">
        <ele>1785</ele>
        <time>2025-06-05T15:11:39Z</time>
      </trkpt>
      <trkpt lat="45.76001" lon="6.55485">
        <ele>1787</ele>
        <time>2025-06-05T15:11:45Z</time>
      </trkpt>
      <trkpt lat="45.76003" lon="6.55474">
        <ele>1787</ele>
        <time>2025-06-05T15:11:47Z</time>
      </trkpt>
      <trkpt lat="45.76037" lon="6.55443">
        <ele>1784</ele>
        <time>2025-06-05T15:11:57Z</time>
      </trkpt>
      <trkpt lat="45.76041" lon="6.55425">
        <ele>1784</ele>
        <time>2025-06-05T15:12:00Z</time>
      </trkpt>
      <trkpt lat="45.76036" lon="6.55389">
        <ele>1786</ele>
        <time>2025-06-05T15:12:06Z</time>
      </trkpt>
      <trkpt lat="45.76036" lon="6.55355">
        <ele>1787</ele>
        <time>2025-06-05T15:12:11Z</time>
      </trkpt>
      <trkpt lat="45.76041" lon="6.55331">
        <ele>1787</ele>
        <time>2025-06-05T15:12:15Z</time>
      </trkpt>
      <trkpt lat="45.76058" lon="6.55288">
        <ele>1786</ele>
        <time>2025-06-05T15:12:23Z</time>
      </trkpt>
      <trkpt lat="45.76063" lon="6.55254">
        <ele>1786</ele>
        <time>2025-06-05T15:12:29Z</time>
      </trkpt>
      <trkpt lat="45.76064" lon="6.55243">
        <ele>1786</ele>
        <time>2025-06-05T15:12:31Z</time>
      </trkpt>
      <trkpt lat="45.76065" lon="6.55236">
        <ele>1786</ele>
        <time>2025-06-05T15:12:32Z</time>
      </trkpt>
      <trkpt lat="45.76078" lon="6.55218">
        <ele>1786</ele>
        <time>2025-06-05T15:12:36Z</time>
      </trkpt>
      <trkpt lat="45.76088" lon="6.55196">
        <ele>1786</ele>
        <time>2025-06-05T15:12:40Z</time>
      </trkpt>
      <trkpt lat="45.76101" lon="6.5515">
        <ele>1786</ele>
        <time>2025-06-05T15:12:49Z</time>
      </trkpt>
      <trkpt lat="45.76109" lon="6.55127">
        <ele>1786</ele>
        <time>2025-06-05T15:12:53Z</time>
      </trkpt>
      <trkpt lat="45.76125" lon="6.551">
        <ele>1787</ele>
        <time>2025-06-05T15:12:58Z</time>
      </trkpt>
      <trkpt lat="45.76157" lon="6.55076">
        <ele>1790</ele>
        <time>2025-06-05T15:13:07Z</time>
      </trkpt>
      <trkpt lat="45.76164" lon="6.55068">
        <ele>1791</ele>
        <time>2025-06-05T15:13:09Z</time>
      </trkpt>
      <trkpt lat="45.7617" lon="6.55061">
        <ele>1791</ele>
        <time>2025-06-05T15:13:11Z</time>
      </trkpt>
      <trkpt lat="45.76181" lon="6.55036">
        <ele>1793</ele>
        <time>2025-06-05T15:13:16Z</time>
      </trkpt>
      <trkpt lat="45.76199" lon="6.54991">
        <ele>1795</ele>
        <time>2025-06-05T15:13:24Z</time>
      </trkpt>
      <trkpt lat="45.76219" lon="6.54925">
        <ele>1799</ele>
        <time>2025-06-05T15:13:36Z</time>
      </trkpt>
      <trkpt lat="45.7624" lon="6.54844">
        <ele>1803</ele>
        <time>2025-06-05T15:13:50Z</time>
      </trkpt>
      <trkpt lat="45.76245" lon="6.54823">
        <ele>1804</ele>
        <time>2025-06-05T15:13:53Z</time>
      </trkpt>
      <trkpt lat="45.76268" lon="6.54767">
        <ele>1807</ele>
        <time>2025-06-05T15:14:04Z</time>
      </trkpt>
      <trkpt lat="45.76278" lon="6.5475">
        <ele>1807</ele>
        <time>2025-06-05T15:14:08Z</time>
      </trkpt>
      <trkpt lat="45.76287" lon="6.54739">
        <ele>1807</ele>
        <time>2025-06-05T15:14:10Z</time>
      </trkpt>
      <trkpt lat="45.76292" lon="6.5473">
        <ele>1807</ele>
        <time>2025-06-05T15:14:12Z</time>
      </trkpt>
      <trkpt lat="45.76275" lon="6.54744">
        <ele>1807</ele>
        <time>2025-06-05T15:14:17Z</time>
      </trkpt>
      <trkpt lat="45.76267" lon="6.54664">
        <ele>1804</ele>
        <time>2025-06-05T15:14:30Z</time>
      </trkpt>
      <trkpt lat="45.76251" lon="6.54624">
        <ele>1800</ele>
        <time>2025-06-05T15:14:38Z</time>
      </trkpt>
      <trkpt lat="45.76232" lon="6.54555">
        <ele>1796</ele>
        <time>2025-06-05T15:14:50Z</time>
      </trkpt>
      <trkpt lat="45.7618" lon="6.54533">
        <ele>1792</ele>
        <time>2025-06-05T15:15:02Z</time>
      </trkpt>
      <trkpt lat="45.76134" lon="6.54445">
        <ele>1780</ele>
        <time>2025-06-05T15:15:20Z</time>
      </trkpt>
      <trkpt lat="45.76173" lon="6.54317">
        <ele>1771</ele>
        <time>2025-06-05T15:15:43Z</time>
      </trkpt>
      <trkpt lat="45.76147" lon="6.54251">
        <ele>1761</ele>
        <time>2025-06-05T15:15:55Z</time>
      </trkpt>
      <trkpt lat="45.76109" lon="6.54033">
        <ele>1736</ele>
        <time>2025-06-05T15:16:32Z</time>
      </trkpt>
      <trkpt lat="45.76089" lon="6.54007">
        <ele>1733</ele>
        <time>2025-06-05T15:16:38Z</time>
      </trkpt>
      <trkpt lat="45.76077" lon="6.53992">
        <ele>1730</ele>
        <time>2025-06-05T15:16:42Z</time>
      </trkpt>
      <trkpt lat="45.76099" lon="6.53964">
        <ele>1727</ele>
        <time>2025-06-05T15:16:49Z</time>
      </trkpt>
      <trkpt lat="45.76119" lon="6.53944">
        <ele>1723</ele>
        <time>2025-06-05T15:16:55Z</time>
      </trkpt>
      <trkpt lat="45.76129" lon="6.53943">
        <ele>1723</ele>
        <time>2025-06-05T15:16:57Z</time>
      </trkpt>
      <trkpt lat="45.76131" lon="6.53917">
        <ele>1718</ele>
        <time>2025-06-05T15:17:01Z</time>
      </trkpt>
      <trkpt lat="45.76112" lon="6.5392">
        <ele>1719</ele>
        <time>2025-06-05T15:17:06Z</time>
      </trkpt>
      <trkpt lat="45.76095" lon="6.53906">
        <ele>1717</ele>
        <time>2025-06-05T15:17:10Z</time>
      </trkpt>
      <trkpt lat="45.76114" lon="6.53886">
        <ele>1714</ele>
        <time>2025-06-05T15:17:16Z</time>
      </trkpt>
      <trkpt lat="45.76128" lon="6.53861">
        <ele>1711</ele>
        <time>2025-06-05T15:17:21Z</time>
      </trkpt>
      <trkpt lat="45.76123" lon="6.53838">
        <ele>1708</ele>
        <time>2025-06-05T15:17:25Z</time>
      </trkpt>
      <trkpt lat="45.76113" lon="6.53822">
        <ele>1705</ele>
        <time>2025-06-05T15:17:28Z</time>
      </trkpt>
      <trkpt lat="45.76095" lon="6.53835">
        <ele>1706</ele>
        <time>2025-06-05T15:17:33Z</time>
      </trkpt>
      <trkpt lat="45.76097" lon="6.53802">
        <ele>1702</ele>
        <time>2025-06-05T15:17:38Z</time>
      </trkpt>
      <trkpt lat="45.76076" lon="6.53803">
        <ele>1700</ele>
        <time>2025-06-05T15:17:43Z</time>
      </trkpt>
      <trkpt lat="45.76062" lon="6.53781">
        <ele>1696</ele>
        <time>2025-06-05T15:17:48Z</time>
      </trkpt>
      <trkpt lat="45.76058" lon="6.53745">
        <ele>1691</ele>
        <time>2025-06-05T15:17:54Z</time>
      </trkpt>
      <trkpt lat="45.76049" lon="6.53694">
        <ele>1685</ele>
        <time>2025-06-05T15:18:03Z</time>
      </trkpt>
      <trkpt lat="45.76048" lon="6.53677">
        <ele>1683</ele>
        <time>2025-06-05T15:18:06Z</time>
      </trkpt>
      <trkpt lat="45.76048" lon="6.53666">
        <ele>1682</ele>
        <time>2025-06-05T15:18:07Z</time>
      </trkpt>
      <trkpt lat="45.7605" lon="6.53651">
        <ele>1681</ele>
        <time>2025-06-05T15:18:10Z</time>
      </trkpt>
      <trkpt lat="45.76057" lon="6.53619">
        <ele>1678</ele>
        <time>2025-06-05T15:18:15Z</time>
      </trkpt>
      <trkpt lat="45.76068" lon="6.53594">
        <ele>1677</ele>
        <time>2025-06-05T15:18:20Z</time>
      </trkpt>
      <trkpt lat="45.76092" lon="6.53535">
        <ele>1674</ele>
        <time>2025-06-05T15:18:31Z</time>
      </trkpt>
      <trkpt lat="45.76105" lon="6.53522">
        <ele>1674</ele>
        <time>2025-06-05T15:18:35Z</time>
      </trkpt>
      <trkpt lat="45.7612" lon="6.53517">
        <ele>1674</ele>
        <time>2025-06-05T15:18:38Z</time>
      </trkpt>
      <trkpt lat="45.76125" lon="6.53511">
        <ele>1674</ele>
        <time>2025-06-05T15:18:40Z</time>
      </trkpt>
      <trkpt lat="45.76126" lon="6.5351">
        <ele>1674</ele>
        <time>2025-06-05T15:18:40Z</time>
      </trkpt>
      <trkpt lat="45.76126" lon="6.53504">
        <ele>1673</ele>
        <time>2025-06-05T15:18:41Z</time>
      </trkpt>
      <trkpt lat="45.76125" lon="6.53494">
        <ele>1672</ele>
        <time>2025-06-05T15:18:43Z</time>
      </trkpt>
      <trkpt lat="45.76122" lon="6.53492">
        <ele>1672</ele>
        <time>2025-06-05T15:18:44Z</time>
      </trkpt>
      <trkpt lat="45.76119" lon="6.5349">
        <ele>1671</ele>
        <time>2025-06-05T15:18:44Z</time>
      </trkpt>
      <trkpt lat="45.7611" lon="6.5349">
        <ele>1671</ele>
        <time>2025-06-05T15:18:47Z</time>
      </trkpt>
      <trkpt lat="45.76024" lon="6.535">
        <ele>1665</ele>
        <time>2025-06-05T15:19:07Z</time>
      </trkpt>
      <trkpt lat="45.76014" lon="6.53499">
        <ele>1664</ele>
        <time>2025-06-05T15:19:09Z</time>
      </trkpt>
      <trkpt lat="45.76005" lon="6.53495">
        <ele>1663</ele>
        <time>2025-06-05T15:19:11Z</time>
      </trkpt>
      <trkpt lat="45.76001" lon="6.53492">
        <ele>1663</ele>
        <time>2025-06-05T15:19:12Z</time>
      </trkpt>
      <trkpt lat="45.75997" lon="6.53487">
        <ele>1663</ele>
        <time>2025-06-05T15:19:14Z</time>
      </trkpt>
      <trkpt lat="45.75992" lon="6.53477">
        <ele>1662</ele>
        <time>2025-06-05T15:19:16Z</time>
      </trkpt>
      <trkpt lat="45.7599" lon="6.53466">
        <ele>1662</ele>
        <time>2025-06-05T15:19:17Z</time>
      </trkpt>
      <trkpt lat="45.7599" lon="6.5346">
        <ele>1661</ele>
        <time>2025-06-05T15:19:18Z</time>
      </trkpt>
      <trkpt lat="45.7599" lon="6.53453">
        <ele>1661</ele>
        <time>2025-06-05T15:19:20Z</time>
      </trkpt>
      <trkpt lat="45.75993" lon="6.5344">
        <ele>1661</ele>
        <time>2025-06-05T15:19:22Z</time>
      </trkpt>
      <trkpt lat="45.75997" lon="6.53432">
        <ele>1661</ele>
        <time>2025-06-05T15:19:23Z</time>
      </trkpt>
      <trkpt lat="45.76" lon="6.53427">
        <ele>1661</ele>
        <time>2025-06-05T15:19:24Z</time>
      </trkpt>
      <trkpt lat="45.76006" lon="6.53421">
        <ele>1661</ele>
        <time>2025-06-05T15:19:26Z</time>
      </trkpt>
      <trkpt lat="45.76023" lon="6.53406">
        <ele>1661</ele>
        <time>2025-06-05T15:19:31Z</time>
      </trkpt>
      <trkpt lat="45.76031" lon="6.53396">
        <ele>1661</ele>
        <time>2025-06-05T15:19:33Z</time>
      </trkpt>
      <trkpt lat="45.76037" lon="6.53386">
        <ele>1661</ele>
        <time>2025-06-05T15:19:35Z</time>
      </trkpt>
      <trkpt lat="45.76039" lon="6.53378">
        <ele>1661</ele>
        <time>2025-06-05T15:19:37Z</time>
      </trkpt>
      <trkpt lat="45.76035" lon="6.53358">
        <ele>1660</ele>
        <time>2025-06-05T15:19:40Z</time>
      </trkpt>
      <trkpt lat="45.76032" lon="6.53359">
        <ele>1660</ele>
        <time>2025-06-05T15:19:41Z</time>
      </trkpt>
      <trkpt lat="45.76022" lon="6.53363">
        <ele>1660</ele>
        <time>2025-06-05T15:19:43Z</time>
      </trkpt>
      <trkpt lat="45.75999" lon="6.53376">
        <ele>1659</ele>
        <time>2025-06-05T15:19:49Z</time>
      </trkpt>
      <trkpt lat="45.75988" lon="6.53385">
        <ele>1659</ele>
        <time>2025-06-05T15:19:52Z</time>
      </trkpt>
    </trkseg>
  </trk>
</gpx>